GFSGL_2pvu_pres_000.txt.gz
Presure
203 204 213 192 216 214 214 227 224 230 250 258 276 323 339 339 343 338 333 326 418 410 406 403 416 411 428 434 433 441 365 343 298 289 296 320 303 298 300 307 292 302 309
122 125 158 223 216 213 231 223 250 259 274 296 350 350 339 293 297 425 411 406 434 422 420 413 414 418 414 411 419 418 416 419 401 368 357 306 281 285 291 306 270 276 284
146 168 222 214 218 232 242 255 273 284 342 352 311 285 323 426 410 407 401 411 409 407 403 398 396 395 392 399 401 406 412 417 421 422 417 421 426 381 275 277 275 266 269
211 214 215 236 247 272 291 313 327 351 271 282 303 438 432 411 393 401 400 394 385 384 390 389 386 380 380 378 384 391 393 397 402 407 401 397 397 397 329 259 261 267 266
210 245 253 255 286 324 322 323 282 282 292 411 427 414 398 388 398 391 384 377 369 364 370 379 383 379 372 371 365 362 363 365 371 377 379 372 374 381 383 384 390 392 375
252 258 264 293 310 316 259 285 278 383 435 420 405 401 389 390 386 380 371 364 361 357 356 359 370 378 373 370 366 363 361 360 360 368 367 359 356 363 369 371 373 380 385
312 270 310 320 256 284 281 359 449 427 408 398 402 394 386 379 374 370 362 357 346 343 348 351 357 360 361 362 359 362 364 357 351 349 349 348 353 362 372 374 379 379 382
286 300 267 278 282 329 450 434 417 409 403 395 383 373 367 364 362 362 360 357 353 352 352 345 344 351 356 355 350 344 345 349 344 353 349 348 351 355 356 354 355 390 362
341 339 287 279 435 431 423 408 403 397 385 370 360 362 364 361 353 343 341 338 339 344 349 360 353 339 348 350 341 343 339 347 338 327 361 357 357 365 369 356 330 370 376
288 272 313 441 416 407 402 401 394 380 359 353 354 350 340 470 471 468 462 465 472 327 336 348 358 356 340 344 341 341 323 313 328 322 361 454 447 346 339 340 347 356 363
291 352 425 413 397 393 393 391 378 354 351 347 342 366 449 455 438 435 440 445 449 458 377 319 349 355 353 346 336 306 311 313 318 302 308 313 372 426 431 418 409 365 344
426 416 405 394 385 384 389 374 353 349 339 341 374 441 430 418 418 432 455 462 455 468 486 306 344 349 350 331 299 294 297 303 299 302 307 311 320 331 327 400 426 408 403
413 401 386 382 376 387 371 350 347 334 336 364 427 418 401 401 423 435 460 450 460 479 480 335 318 351 307 297 330 302 295 292 299 291 297 290 303 307 312 331 331 434 426
399 465 415 379 371 368 350 345 334 334 351 356 411 394 389 411 430 437 435 447 445 437 417 340 306 312 300 305 302 304 289 300 289 290 294 302 295 303 312 306 319 329 408
474 432 387 370 369 352 337 332 333 327 351 352 404 380 399 426 430 419 417 409 408 399 322 335 310 302 341 324 290 296 292 294 286 285 278 291 288 299 293 307 302 309 310
434 387 373 365 355 335 333 323 328 330 346 355 390 378 424 435 402 397 391 385 374 349 309 306 315 324 301 276 298 287 281 290 281 288 276 286 280 284 278 291 296 312 341
389 374 361 351 336 329 323 327 319 343 340 414 383 375 426 402 388 381 373 363 347 325 304 299 311 303 281 283 306 286 293 283 282 287 285 284 284 279 282 287 296 297 306
373 361 345 336 329 322 320 328 311 336 332 364 382 370 427 390 378 367 359 353 335 318 303 296 294 288 309 283 297 284 286 282 283 277 280 283 287 277 277 277 277 285 298
366 347 336 331 322 318 318 320 306 331 325 353 384 366 411 385 370 359 351 348 353 319 304 303 302 289 309 282 293 284 281 278 277 281 279 279 281 280 288 276 268 286 298
347 339 331 324 319 318 320 310 328 327 318 338 388 367 392 386 366 352 344 344 345 328 307 313 299 289 304 283 293 285 285 276 275 279 278 279 266 268 280 279 279 281 296
346 334 324 319 318 318 325 301 332 320 317 327 406 370 363 387 364 352 339 337 340 329 307 308 300 284 293 282 292 283 282 276 273 278 277 266 272 264 279 287 285 284 288
337 323 320 317 321 317 316 299 335 315 313 326 382 380 365 377 369 351 337 333 329 330 314 307 299 290 285 286 284 288 285 279 270 267 275 280 279 283 275 277 285 281 278
324 321 318 320 320 315 300 316 335 312 314 321 338 407 369 353 383 362 340 331 326 328 326 311 302 292 287 291 282 286 276 281 279 274 281 278 278 275 276 275 284 279 279
325 319 322 320 313 303 305 333 328 311 314 318 323 407 406 362 350 377 351 336 330 327 321 319 306 299 290 286 291 284 290 269 276 282 280 278 282 279 280 279 285 284 280
324 327 324 310 303 309 326 328 305 316 318 322 322 350 400 401 361 346 376 347 338 330 321 319 317 307 299 290 288 293 282 295 296 283 281 278 270 276 277 286 289 283 284
332 315 307 304 311 321 310 318 313 317 319 325 321 335 414 392 389 362 344 370 342 334 329 321 316 314 308 304 297 296 294 285 288 291 293 291 281 279 277 280 283 289 291

GFSGL_2pvu_pres_003.txt.gz
Presure
197 196 205 212 213 213 222 225 223 236 245 249 325 282 305 276 249 278 294 305 393 440 428 423 427 428 423 427 394 380 400 404 414 420 434 351 310 292 289 306 327 320 320
196 203 205 206 222 227 225 232 240 252 346 336 328 347 339 290 294 443 431 421 407 397 401 398 402 401 404 404 404 394 395 391 394 418 414 416 368 343 313 284 280 323 326
202 206 209 226 230 217 240 249 342 336 271 348 339 295 288 449 433 424 409 399 404 394 389 386 382 377 380 394 388 386 388 395 405 414 414 408 417 411 356 340 306 275 316
211 214 225 221 247 250 286 285 274 342 308 279 293 415 436 423 412 406 398 397 396 391 386 378 369 367 366 369 384 381 377 383 385 387 402 405 409 411 418 400 346 340 288
229 239 238 252 268 358 279 332 302 299 313 419 433 428 420 411 411 394 385 374 370 370 371 375 365 359 359 360 369 376 375 369 375 372 369 370 375 382 390 401 410 413 399
246 256 269 346 358 349 298 299 313 343 437 424 420 416 404 393 389 367 363 362 359 360 360 359 360 361 351 351 357 367 373 366 362 358 350 349 353 358 363 369 376 386 396
349 352 348 347 304 306 313 328 433 430 412 402 407 394 386 368 367 357 353 349 344 343 347 362 368 359 352 347 349 360 366 370 367 361 354 350 359 360 359 358 355 364 370
290 277 279 303 303 315 383 427 412 406 393 402 387 376 362 356 353 339 338 407 461 459 411 338 337 372 370 358 343 351 358 358 356 353 347 347 351 350 352 351 355 358 359
256 291 298 323 346 431 417 404 392 390 396 379 365 358 349 339 361 439 428 421 426 433 439 451 456 324 347 362 354 345 356 349 350 348 340 338 339 346 353 357 365 399 360
309 310 335 442 422 408 397 425 396 385 380 358 348 343 339 362 430 406 404 421 435 447 460 459 455 472 331 353 363 345 350 349 337 334 330 319 324 323 441 444 426 354 354
319 411 431 414 439 475 445 406 383 377 355 343 336 337 355 367 398 397 429 446 453 466 469 457 461 473 311 358 364 349 353 336 328 309 300 301 304 309 326 324 386 438 431
441 419 452 491 469 442 408 383 378 351 343 333 333 337 353 401 389 436 438 432 440 449 460 474 492 362 310 361 361 357 327 326 301 294 291 294 294 298 307 313 334 330 371
430 494 403 389 387 402 383 374 349 338 329 329 320 346 395 391 430 436 425 435 442 447 451 456 346 327 354 365 352 323 314 294 290 294 296 300 300 307 309 318 308 322 352
418 497 476 436 393 379 368 347 336 329 328 322 341 343 390 385 434 413 409 403 407 412 418 393 326 323 351 333 319 297 297 295 292 292 290 292 299 301 303 293 306 319 309
495 462 417 385 376 361 346 333 330 322 325 317 335 343 384 431 406 396 391 389 389 385 372 321 316 330 318 303 292 303 291 294 295 286 289 289 281 292 286 295 293 299 306
426 394 369 367 359 343 337 329 320 324 316 327 331 337 379 421 393 386 380 375 364 355 330 312 312 308 309 326 307 295 302 285 288 289 284 290 276 289 280 288 291 290 291
365 370 361 347 345 337 329 320 319 329 302 331 324 332 375 413 387 380 369 358 347 334 315 306 307 297 293 306 313 284 302 286 280 289 277 281 287 280 289 282 283 286 294
360 364 349 350 342 329 321 321 319 322 302 332 317 324 377 404 388 372 363 351 336 322 308 300 292 293 324 294 306 281 298 280 281 288 280 278 279 277 283 284 289 283 279
353 365 351 347 329 322 321 323 320 309 318 330 316 324 378 368 392 369 359 349 334 320 308 302 295 292 314 286 303 284 297 282 277 282 277 277 278 279 283 277 277 286 284
372 362 351 335 321 321 324 319 318 301 345 326 314 321 327 374 406 375 358 348 340 327 316 304 300 306 299 286 304 289 279 289 281 279 275 279 274 280 278 270 272 277 286
347 347 341 329 322 324 328 315 305 316 347 314 314 321 321 399 365 385 362 347 341 338 324 313 301 300 303 288 284 291 279 287 287 276 278 276 272 276 281 269 279 286 287
343 337 328 324 324 328 318 305 310 325 337 301 317 318 323 330 386 362 377 352 340 338 332 325 308 298 302 294 280 278 296 280 289 284 280 276 275 273 276 278 282 282 284
342 334 331 331 334 314 305 313 319 299 317 313 315 323 329 323 363 380 369 372 351 338 332 330 321 308 291 295 291 284 280 282 276 288 281 287 280 278 277 283 283 283 283
347 338 337 336 313 304 314 323 301 302 291 319 328 325 329 322 325 423 376 355 372 347 339 329 331 321 298 301 284 285 283 284 285 281 272 280 278 279 282 286 283 281 283
348 343 316 308 310 318 308 306 306 291 296 321 328 327 325 322 323 354 419 377 354 365 347 336 327 328 326 310 299 301 286 285 286 286 288 284 289 293 294 295 282 287 287
325 308 309 317 308 301 310 308 302 313 322 322 327 327 324 323 325 338 408 408 381 353 369 349 336 330 326 323 316 306 299 296 293 288 285 285 291 285 289 287 289 294 293

GFSGL_2pvu_pres_006.txt.gz
Presure
190 199 193 201 198 208 224 240 239 239 251 272 337 357 352 350 330 311 285 320 426 436 429 418 413 408 404 401 400 403 400 416 429 397 395 410 426 455 402 311 318 343 350
191 202 193 205 221 237 228 247 240 270 262 284 277 281 275 307 306 392 438 430 423 416 413 407 401 397 393 389 387 387 386 393 399 412 416 379 399 407 440 397 377 316 334
204 210 218 218 228 243 242 266 294 293 289 255 270 327 344 442 429 420 414 412 409 403 398 392 387 384 383 387 383 378 376 379 388 396 391 401 389 375 387 411 429 422 411
214 214 228 236 239 274 316 307 318 301 311 324 347 440 426 418 406 410 399 389 385 372 365 364 365 364 361 363 373 375 369 365 369 388 387 387 391 400 401 408 416 419 417
217 241 247 284 287 331 324 319 320 326 352 448 425 410 403 395 407 394 375 367 366 362 357 355 354 354 355 358 360 371 368 363 362 369 381 375 381 386 394 399 406 414 421
241 257 276 267 348 344 346 340 354 449 428 413 403 414 395 397 388 367 356 354 354 352 376 381 463 341 338 338 355 362 366 358 355 357 370 371 371 370 375 375 379 387 400
296 274 305 340 339 336 337 440 434 436 487 456 423 398 389 373 363 352 346 350 364 405 413 414 418 432 449 442 335 357 363 355 350 353 361 370 359 360 363 361 358 364 370
280 283 341 338 335 370 432 429 507 483 451 416 395 383 364 351 350 348 359 369 406 398 411 426 434 440 439 443 355 339 363 352 347 353 362 369 374 367 366 362 362 364 365
283 339 340 326 425 429 458 415 397 384 412 387 374 357 346 341 340 351 365 400 409 438 440 442 452 472 474 454 328 331 375 354 343 359 360 354 353 351 352 355 354 358 355
310 346 342 439 466 434 406 400 396 406 380 362 348 338 340 336 349 358 397 440 438 429 434 440 447 467 456 451 466 318 358 357 349 359 349 342 338 332 345 351 375 402 379
348 353 455 442 478 488 482 427 397 373 355 345 335 334 331 344 342 391 441 417 429 432 445 457 460 460 461 467 479 323 364 357 358 340 328 318 305 300 297 300 309 324 326
341 453 515 511 501 471 415 386 366 354 343 333 328 331 322 338 357 432 411 406 405 410 419 433 447 465 479 494 317 360 363 349 334 317 303 298 301 297 290 290 296 301 297
443 437 408 399 423 394 373 366 350 344 334 327 330 318 333 332 380 412 397 395 396 400 409 420 432 359 332 350 363 361 338 334 315 302 299 287 285 291 304 305 306 303 320
441 407 388 378 373 381 359 351 346 333 329 324 325 306 334 329 383 401 391 385 386 390 396 382 324 325 350 356 359 338 331 309 297 295 289 288 290 290 299 293 303 293 300
418 388 377 366 368 365 354 343 335 325 327 327 316 313 332 326 382 396 382 378 371 368 353 320 313 338 344 345 335 318 290 297 295 287 287 287 284 286 287 289 289 290 292
395 371 361 361 369 358 349 337 328 323 323 327 306 340 328 324 376 396 381 369 355 351 324 312 306 321 317 300 305 289 297 294 286 288 287 285 285 280 283 278 289 285 288
376 356 350 366 370 357 342 328 322 325 316 316 309 337 321 325 337 400 379 365 349 339 320 308 301 299 300 294 300 295 296 282 287 284 286 288 279 284 280 281 290 287 277
359 349 363 354 361 354 331 326 324 324 316 304 328 334 311 327 325 394 381 365 346 333 319 305 302 296 295 311 293 298 290 279 282 285 280 286 277 277 277 278 280 284 281
343 339 352 350 347 335 330 325 330 315 305 320 327 338 311 323 327 348 391 369 352 335 320 308 301 294 290 296 307 293 297 287 277 284 278 277 284 277 278 277 283 290 276
324 336 352 347 338 333 328 332 322 304 314 315 297 313 312 323 330 328 381 378 359 346 326 316 303 294 293 297 307 297 284 290 275 291 279 275 277 273 277 277 277 281 280
340 338 348 350 337 334 335 318 305 315 318 304 302 293 322 327 328 327 325 384 368 353 343 323 316 299 295 297 306 304 281 296 292 273 289 281 272 276 273 275 275 273 280
346 342 348 354 344 339 315 310 319 310 308 307 296 319 325 328 329 327 323 341 380 366 352 340 329 313 301 296 291 305 292 282 287 294 277 284 285 279 276 274 276 275 277
350 346 350 351 317 309 316 314 300 315 308 307 314 323 324 328 330 328 323 325 392 383 361 352 340 332 313 310 299 297 300 288 281 277 289 281 278 286 285 285 284 285 284
356 349 334 308 312 319 292 306 307 300 305 313 317 320 325 330 332 334 333 334 336 433 376 366 350 341 333 325 312 303 299 296 296 288 280 280 286 277 275 282 280 278 280
355 307 311 316 302 293 304 293 303 300 319 319 319 322 324 329 334 337 340 341 347 356 429 367 376 352 339 335 329 319 306 305 301 288 292 292 288 285 288 288 287 287 288
308 318 319 290 293 296 295 300 307 315 316 320 319 323 327 331 338 343 352 356 356 361 387 414 367 372 356 342 335 329 327 319 307 299 304 300 292 289 288 284 283 286 288

GFSGL_2pvu_pres_009.txt.gz
Presure
184 117 196 202 196 210 213 231 226 239 250 286 295 279 348 346 344 344 416 438 425 416 414 419 416 417 412 412 411 411 410 406 416 405 401 416 435 414 418 438 444 329 309
197 194 200 199 214 212 226 238 250 251 286 283 300 351 347 455 450 431 415 406 403 399 403 403 398 395 391 386 382 388 398 403 409 400 391 397 403 422 405 419 419 419 323
194 206 204 215 217 243 252 253 280 322 358 360 347 458 443 446 445 433 420 402 397 399 391 379 372 371 368 366 368 364 362 365 379 402 387 378 391 402 420 404 399 419 434
206 205 211 234 246 255 257 325 334 351 343 422 442 510 497 481 457 430 411 396 387 373 366 361 357 359 360 359 355 355 355 358 360 366 384 374 372 385 393 413 408 401 426
207 224 251 241 260 258 292 334 354 341 442 454 437 407 397 442 416 398 381 366 360 355 353 355 356 363 375 414 420 427 368 345 350 357 369 371 361 368 386 395 403 379 394
240 235 241 263 252 309 334 348 360 436 475 427 410 398 425 404 388 366 352 348 351 351 355 365 411 408 406 405 410 426 432 336 343 353 361 368 359 365 382 385 392 404 415
226 244 259 251 313 331 339 450 443 454 433 440 428 404 385 367 355 348 347 345 351 361 412 455 455 455 451 448 444 435 436 441 337 349 360 365 358 358 376 380 378 385 395
247 248 252 295 329 350 441 445 490 475 459 418 393 374 356 350 346 341 343 349 369 441 430 439 447 452 442 437 445 460 448 438 337 351 362 361 356 356 369 380 372 366 367
253 253 263 325 353 463 437 416 478 492 410 382 364 348 346 343 340 330 345 353 419 411 409 419 436 454 453 451 474 493 466 452 332 357 369 355 356 363 376 376 369 367 360
257 257 321 362 458 437 409 397 383 393 375 361 347 341 341 339 330 338 340 420 404 399 404 412 423 439 466 456 454 458 453 403 333 367 353 359 373 372 364 355 360 355 354
253 322 353 450 442 414 392 379 378 377 359 347 337 337 336 333 314 343 352 409 396 396 402 411 426 437 451 475 476 462 472 310 370 359 373 359 347 342 337 332 324 328 328
316 352 451 447 419 385 373 364 369 359 352 340 332 335 338 319 347 336 401 400 391 393 399 417 431 448 460 468 451 342 314 362 365 365 342 327 316 309 303 302 307 309 313
357 394 458 429 396 372 350 364 370 358 348 332 330 329 329 313 336 332 401 392 386 383 386 373 348 331 328 327 344 351 365 355 342 323 309 303 299 302 293 292 293 302 307
387 461 439 405 373 357 371 369 360 355 338 330 334 326 310 355 323 332 395 389 378 374 358 329 320 326 346 351 349 349 336 330 313 301 299 302 286 289 296 297 297 300 299
459 440 413 380 352 339 365 367 359 343 331 330 329 316 326 353 317 333 343 385 369 361 340 321 312 342 346 345 338 328 322 307 298 296 288 284 287 291 287 284 293 289 293
444 414 385 360 335 333 358 359 352 335 328 335 320 314 332 361 319 326 334 393 370 354 347 316 307 326 343 334 329 325 302 290 279 287 287 285 287 280 281 286 287 279 290
413 389 359 339 325 344 352 349 338 336 332 318 308 322 310 300 311 328 336 400 373 354 356 318 306 303 327 295 326 306 287 286 301 287 283 284 284 279 282 282 283 285 288
378 361 347 336 343 346 355 346 340 336 319 308 317 313 309 305 315 334 336 329 385 363 345 331 307 299 297 322 291 291 301 288 291 279 279 281 284 285 278 278 278 278 279
392 365 354 347 348 347 360 347 341 321 312 320 310 310 311 306 329 332 334 335 379 376 353 339 317 302 294 291 283 292 291 292 290 282 277 286 284 279 280 276 276 282 277
357 387 364 359 350 350 360 349 314 319 315 302 315 309 313 321 329 333 333 331 326 396 370 348 332 310 298 293 290 280 279 291 288 284 289 276 285 279 277 284 277 275 284
351 337 384 363 353 354 316 317 321 294 309 304 299 309 324 324 322 330 335 336 328 323 396 367 349 327 311 298 294 292 290 279 301 285 286 283 280 287 280 273 276 277 275
343 358 383 364 341 317 318 306 295 305 293 304 304 321 317 327 323 326 331 336 339 333 331 410 368 352 333 320 307 296 295 290 283 300 276 285 286 275 286 287 281 275 277
340 347 331 305 315 320 300 291 297 293 303 315 317 318 314 315 322 326 332 339 341 345 344 339 420 373 352 341 331 315 307 297 296 292 302 281 280 298 285 277 283 286 284
352 332 313 325 320 304 292 289 302 304 307 314 319 322 323 323 328 332 337 342 347 357 359 353 349 413 384 354 347 336 324 317 309 296 298 302 291 286 278 297 289 276 279
338 326 305 322 312 294 292 304 299 296 309 316 318 323 325 329 331 336 342 346 350 357 366 366 363 358 419 402 357 347 337 334 321 316 308 303 301 299 295 292 282 281 288
330 291 320 308 293 295 300 297 301 298 299 308 314 319 324 334 337 339 343 349 353 359 368 366 363 370 367 416 393 363 349 339 335 329 321 317 309 306 305 300 296 296 295

GFSGL_2pvu_pres_012.txt.gz
Presure
187 189 183 198 205 204 212 219 222 241 246 256 266 260 302 352 367 468 451 451 429 482 461 444 426 415 403 398 400 404 403 401 410 418 427 407 407 415 423 431 450 466 470
185 189 197 204 197 215 222 227 244 256 262 276 272 316 373 455 429 432 438 422 443 435 426 418 406 397 391 387 382 377 375 375 383 389 394 402 399 397 403 406 412 449 438
200 204 206 197 219 227 230 247 254 267 257 310 350 380 455 445 428 433 439 414 398 390 382 374 367 363 360 358 357 357 356 355 359 362 365 361 381 394 396 397 405 428 421
204 201 205 215 225 231 251 250 267 267 328 371 442 449 447 439 490 450 403 382 365 356 352 350 353 355 357 358 357 357 355 353 357 360 352 359 360 364 387 391 395 399 416
205 207 217 218 244 260 252 264 266 334 370 471 450 455 463 495 433 394 369 355 349 346 348 350 348 355 361 438 445 430 411 410 417 413 369 356 354 359 376 390 390 390 412
213 221 237 241 252 253 268 268 385 387 462 490 415 489 498 411 383 363 351 346 341 344 338 351 395 433 431 438 455 460 454 451 413 407 413 442 344 353 361 383 387 376 392
232 242 246 257 254 269 281 397 485 459 435 408 396 383 382 375 358 349 346 341 338 350 353 428 418 415 420 431 446 463 462 446 453 444 428 429 431 348 357 376 380 373 383
232 246 254 254 272 264 403 489 462 430 404 391 379 380 364 358 348 342 342 336 348 348 418 412 406 412 418 431 444 458 450 445 449 462 446 440 364 346 356 377 371 368 379
243 248 250 264 263 393 490 466 432 401 382 368 371 361 357 348 340 339 332 327 343 359 401 400 414 425 430 440 453 459 453 483 474 489 457 453 338 349 367 374 361 362 376
258 250 265 258 392 486 471 438 403 376 353 377 367 355 346 336 340 336 324 341 337 403 395 402 405 427 445 458 462 476 449 463 473 468 457 329 350 368 362 354 358 367 371
255 261 254 350 485 473 448 405 377 362 376 370 359 350 338 340 336 320 358 336 343 398 389 381 382 398 432 458 476 486 469 462 467 331 338 367 363 358 358 364 369 381 370
264 250 356 483 470 451 412 377 352 337 378 364 355 338 334 340 322 336 335 335 345 395 378 370 342 336 350 350 353 353 340 325 311 366 357 365 367 358 347 343 345 348 344
243 329 412 471 445 406 378 359 344 345 366 364 344 333 335 328 323 324 345 330 345 393 371 343 327 323 336 337 339 348 351 347 360 368 351 346 339 324 320 313 311 311 310
317 442 464 442 395 379 359 348 343 356 360 348 342 333 333 313 324 311 309 338 347 397 369 336 320 317 345 338 351 354 355 344 343 337 319 318 310 305 299 302 301 294 292
407 450 437 404 382 370 355 349 348 355 354 341 334 335 316 328 314 313 308 336 343 376 373 348 317 313 339 338 338 332 334 333 314 313 303 302 300 297 296 296 298 295 298
445 441 415 378 363 369 357 350 352 360 352 343 336 318 325 309 319 313 332 341 344 339 381 355 317 307 336 341 328 329 319 305 300 294 297 298 276 290 295 298 292 285 289
430 431 396 372 359 347 361 356 352 366 354 324 321 315 310 317 308 321 329 336 334 337 385 363 328 306 305 336 328 323 306 296 286 277 299 271 283 289 289 284 282 288 289
416 418 382 365 355 343 372 357 355 344 320 324 298 311 304 305 317 331 327 333 343 338 333 380 349 313 303 297 322 318 302 281 288 280 295 279 280 286 285 279 286 286 287
417 406 370 360 348 349 371 357 351 319 314 298 307 296 307 313 323 324 329 327 335 341 337 338 375 337 307 297 293 304 281 295 290 283 298 281 282 280 280 279 285 281 281
424 390 361 356 345 347 324 309 317 314 292 298 298 307 316 316 319 317 319 326 333 337 342 338 339 371 333 308 295 292 281 280 282 291 286 287 276 275 282 285 279 284 278
417 379 353 339 348 331 316 310 322 295 293 308 306 308 317 322 327 329 328 332 336 337 344 344 345 334 373 334 309 297 292 284 281 280 281 288 284 287 282 278 284 279 280
406 368 347 339 337 319 315 328 298 292 301 302 300 305 315 317 322 329 336 337 338 343 351 347 356 349 336 381 347 315 305 295 291 283 282 280 278 286 279 289 274 283 283
395 358 337 347 328 314 310 312 293 300 299 301 298 300 303 307 314 321 332 352 350 345 350 355 357 364 363 343 391 359 329 309 302 296 293 291 280 298 280 275 278 281 276
382 351 333 342 323 317 323 294 297 298 296 290 299 300 302 306 309 316 321 368 364 360 355 358 360 368 382 371 357 401 370 343 327 312 298 301 300 294 288 295 280 280 280
359 344 330 339 318 316 303 296 293 292 289 290 292 295 300 302 306 313 319 327 376 367 362 369 361 372 376 373 371 369 400 389 356 337 333 312 305 299 303 298 300 297 290
352 343 327 327 311 317 298 302 290 287 287 288 290 291 295 301 303 308 318 323 376 379 372 373 359 376 374 374 379 380 373 424 413 364 349 338 333 319 316 312 304 303 303

GFSGL_2pvu_pres_018.txt.gz
Presure
194 201 188 187 190 197 203 197 200 221 228 254 256 253 278 273 290 305 494 491 460 434 407 410 402 392 380 371 365 364 364 369 381 373 369 357 364 376 406 418 414 419 419
198 187 186 193 202 196 209 207 218 240 251 264 270 248 284 302 317 496 466 435 408 391 403 392 378 367 359 359 358 359 361 362 364 374 363 351 360 363 369 381 402 415 416
197 195 197 200 211 211 216 228 245 249 262 274 250 271 303 435 490 459 420 392 380 387 381 369 359 353 352 352 352 357 362 368 432 437 434 440 448 368 366 372 371 387 402
201 200 201 214 215 224 234 242 248 253 246 248 271 336 481 481 441 410 383 368 391 380 369 356 353 353 343 361 350 358 418 416 421 430 432 433 434 439 459 369 371 371 380
197 202 215 217 220 225 243 246 249 262 247 268 338 451 467 440 402 376 360 359 379 370 353 355 344 346 353 342 411 402 388 389 435 451 454 443 435 433 449 464 374 371 367
215 216 214 223 213 210 248 245 216 240 279 294 473 460 434 399 373 356 384 373 371 352 354 336 339 340 338 414 396 375 380 389 439 472 467 458 445 445 452 467 475 371 364
211 218 225 208 206 249 258 257 249 294 330 333 457 441 399 380 363 360 377 374 351 352 338 337 332 326 352 402 367 357 361 402 477 485 474 462 464 459 468 475 465 428 367
216 221 222 215 246 254 246 265 295 323 339 463 439 406 380 365 356 369 371 354 347 335 334 333 327 341 412 380 343 334 341 372 489 483 464 444 455 451 473 450 454 421 391
218 222 237 247 250 251 242 279 322 409 462 445 413 381 366 357 354 370 358 347 327 334 330 328 342 357 403 354 334 344 335 334 504 472 449 463 484 451 453 441 447 412 406
225 240 249 255 252 232 271 321 329 462 444 430 393 368 355 361 364 366 352 326 332 322 329 329 346 353 396 343 329 337 350 366 327 450 462 461 494 453 447 450 451 409 408
241 252 255 250 225 271 316 328 341 448 441 411 378 361 351 357 370 359 330 327 316 323 314 335 340 348 392 338 325 333 336 331 352 336 319 356 438 466 469 453 445 424 419
245 255 263 232 255 286 328 342 453 447 431 393 366 351 373 364 343 331 318 317 312 320 331 341 340 346 388 336 323 336 343 351 354 350 357 351 337 326 383 384 352 337 338
201 259 257 262 325 326 338 411 399 406 416 378 357 367 363 373 328 310 317 306 328 333 328 336 331 347 390 336 320 336 342 342 347 349 359 361 357 356 365 362 358 365 365
224 213 309 329 323 357 341 386 385 438 398 369 350 381 363 326 315 307 314 326 335 337 336 332 333 351 381 352 318 338 333 323 322 327 332 336 343 347 362 367 362 359 363
205 268 270 318 310 348 383 396 398 425 382 361 351 368 319 322 302 307 318 327 328 335 339 339 339 337 332 380 321 333 328 324 328 333 333 332 330 333 335 341 342 340 345
302 281 315 323 312 322 376 407 438 411 372 354 342 333 325 307 296 310 314 314 317 324 332 347 342 339 350 368 330 315 331 326 322 314 305 302 302 303 305 305 305 307 311
275 290 323 317 330 342 408 447 428 400 363 350 329 323 322 303 306 309 308 307 311 314 320 331 359 348 334 335 378 316 334 324 313 303 294 296 300 293 292 291 291 291 295
328 331 315 333 382 369 449 438 418 381 352 341 322 319 310 298 307 300 299 303 304 305 310 320 334 370 351 364 346 351 317 328 312 294 293 288 288 289 283 283 289 291 293
319 306 326 351 376 399 439 425 405 368 348 335 326 318 304 302 295 295 295 294 298 299 305 311 320 340 376 357 357 356 329 330 319 299 290 289 278 287 283 274 283 286 285
311 320 335 318 365 443 421 411 394 361 344 333 323 328 303 304 291 293 291 292 292 296 297 305 312 320 360 379 357 359 357 327 330 312 298 282 287 278 279 281 273 290 284
310 322 324 361 372 422 409 404 386 355 334 333 324 331 303 304 292 289 286 287 285 291 296 296 308 315 324 401 379 361 370 353 345 329 310 300 285 279 279 280 278 273 283
321 330 359 351 392 416 406 401 381 354 333 337 325 318 302 300 297 289 280 282 285 286 294 296 303 312 317 336 404 386 377 369 354 374 318 312 301 286 285 279 277 279 278
355 367 348 343 387 407 404 396 381 354 337 334 326 316 315 300 299 291 284 280 287 283 289 295 298 311 313 328 400 403 402 376 368 365 366 334 321 304 294 282 288 284 276
372 357 336 341 358 401 394 393 381 357 341 331 329 316 316 310 303 294 288 282 286 287 287 295 297 309 316 324 356 414 405 384 367 368 385 363 373 314 315 302 293 286 285
350 344 328 359 358 399 383 380 386 364 345 330 326 322 310 314 309 304 297 290 291 291 291 296 298 311 317 323 341 416 412 398 379 391 391 394 374 368 370 315 317 303 298
340 331 321 363 351 400 378 374 387 374 350 335 325 324 316 302 308 317 319 318 305 294 296 297 300 312 318 325 339 410 411 408 394 387 418 397 378 382 364 371 365 327 311

GFSGL_2pvu_pres_021.txt.gz
Presure
209 202 190 183 190 183 197 196 195 200 213 240 246 254 264 237 260 283 293 352 473 447 413 395 380 387 392 381 373 369 372 374 379 372 372 366 364 369 373 381 379 376 401
199 195 195 198 185 192 194 193 221 234 232 257 265 264 253 260 275 304 453 464 441 407 388 372 390 385 377 366 364 362 354 376 370 361 373 430 436 438 373 374 83 376 375
193 191 189 185 196 200 189 217 228 244 255 258 262 243 244 264 337 351 464 436 400 383 372 387 383 373 357 359 344 342 349 348 408 415 388 390 397 415 446 447 449 377 374
185 188 201 217 216 219 212 232 245 246 253 246 249 243 263 329 354 458 435 403 383 371 370 386 373 356 355 337 343 337 337 412 391 373 367 388 401 455 459 462 447 438 381
189 203 214 211 227 222 232 246 244 253 247 255 275 299 371 362 455 440 404 382 368 363 386 372 357 347 339 342 339 352 410 382 350 347 351 434 477 481 476 471 457 441 438
211 209 213 223 199 225 242 242 249 222 232 263 277 281 358 459 437 405 381 366 366 380 371 357 338 338 335 333 353 362 399 350 342 337 347 487 502 485 472 467 458 448 438
218 220 217 217 228 239 245 252 253 232 241 314 283 336 423 445 415 386 374 360 368 374 360 336 335 328 329 338 356 401 358 342 359 369 341 485 469 455 474 465 464 456 450
214 217 218 226 238 250 240 254 230 249 301 277 333 333 397 427 396 370 356 363 373 361 336 325 324 320 348 340 348 393 343 338 343 351 348 342 457 462 466 465 453 454 473
215 223 228 240 247 243 264 214 290 294 268 329 338 400 391 413 381 362 374 369 359 335 312 324 313 338 358 362 373 368 335 340 346 339 353 327 424 481 488 451 465 453 449
215 222 239 254 246 252 227 313 272 268 342 346 390 406 430 396 371 354 369 370 335 309 317 318 337 337 347 361 385 353 330 342 356 357 355 362 322 468 453 450 438 431 438
226 234 253 249 233 217 256 270 277 323 323 375 381 436 417 381 357 380 365 332 309 313 328 335 340 342 339 355 380 350 325 346 348 344 360 355 356 323 429 462 448 438 419
230 249 260 239 218 246 276 265 278 322 345 362 430 438 399 369 351 373 324 312 307 322 328 334 339 347 350 351 366 358 323 342 334 337 345 359 355 355 327 345 443 441 416
253 261 217 248 240 265 275 269 322 338 327 376 447 426 384 355 350 322 323 308 310 318 320 327 335 361 353 349 351 379 321 335 328 329 330 336 354 351 361 336 325 461 446
260 255 246 250 268 286 267 323 324 323 369 453 443 410 372 349 370 323 313 303 316 311 317 321 327 341 368 345 340 383 322 336 326 332 336 334 332 340 362 357 356 340 338
183 254 253 251 276 263 274 318 335 336 373 449 432 395 362 343 321 325 307 310 307 305 308 311 320 329 373 358 347 368 328 334 323 326 327 325 330 337 339 358 357 350 354
271 257 252 288 265 304 320 324 326 373 366 441 417 380 355 338 316 321 306 307 300 298 302 306 310 319 331 393 362 347 378 326 324 319 312 311 306 317 322 332 342 352 359
254 255 281 276 314 327 317 336 375 369 417 428 404 368 349 325 320 319 306 299 299 296 297 301 303 305 318 333 389 371 360 322 330 315 305 295 298 299 300 301 310 314 317
252 293 302 307 322 317 331 387 373 356 413 419 393 359 343 326 324 319 303 295 293 291 290 291 299 301 302 318 335 390 365 371 330 320 303 294 294 295 291 292 292 294 292
289 262 319 335 321 325 400 379 359 347 418 411 390 353 344 332 318 321 303 302 291 287 285 289 291 298 299 305 320 339 393 358 359 331 309 295 290 291 285 287 285 283 286
255 322 325 311 330 406 382 362 347 344 413 407 386 354 337 326 322 314 310 300 296 290 284 286 289 290 296 301 313 324 356 396 359 364 328 303 293 290 280 283 284 276 290
329 326 313 343 412 364 366 352 337 383 405 402 391 358 335 333 327 312 319 298 299 294 288 281 290 289 294 295 304 318 333 424 404 369 366 326 302 292 289 281 275 284 272
315 326 374 373 386 371 350 344 329 383 393 392 389 364 341 331 327 313 315 310 302 297 295 290 287 291 291 296 302 316 324 347 420 415 382 368 327 305 294 288 285 279 278
344 400 362 413 385 357 343 334 321 370 390 379 389 373 351 333 324 323 310 309 312 308 305 299 297 298 294 298 300 311 321 337 438 420 411 381 365 332 311 297 290 287 281
361 405 414 392 367 347 333 327 317 354 390 374 375 382 358 340 328 322 320 310 302 307 313 320 322 309 297 298 301 312 323 332 408 430 421 389 371 373 364 321 305 296 289
401 391 399 373 353 343 331 319 315 352 373 375 376 381 373 350 331 322 321 316 308 307 313 328 334 298 300 298 304 313 323 329 393 429 423 412 380 373 387 369 341 312 306
388 377 382 365 347 341 329 317 310 332 343 381 363 365 337 375 351 331 321 318 318 321 334 336 299 298 297 298 308 316 324 328 353 421 425 411 402 394 414 380 390 368 336

GFSGL_2pvu_pres_024.txt.gz
Presure
207 195 191 187 196 185 185 186 186 203 217 228 237 252 253 245 273 232 291 300 278 380 349 449 421 398 378 371 390 388 377 369 379 348 356 355 360 362 366 370 375 75 390
200 200 192 185 187 198 197 187 206 225 226 244 259 251 250 212 265 278 267 288 353 439 448 418 394 372 368 393 384 366 368 352 352 353 348 351 424 415 405 407 416 429 388
202 196 191 198 193 198 211 225 211 223 233 251 257 236 204 257 283 285 332 354 413 448 420 394 373 364 382 375 363 357 346 349 347 351 379 411 378 370 373 376 384 401 75
196 191 194 193 201 208 211 213 232 229 246 257 264 232 235 260 255 272 364 371 420 423 395 379 367 376 380 363 344 344 336 343 349 367 393 362 361 361 354 357 415 483 315
192 193 189 207 206 204 221 229 227 238 252 259 254 237 261 291 278 335 345 429 431 399 376 361 375 379 353 340 330 335 329 355 364 413 355 350 353 368 355 348 508 495 486
189 189 200 204 212 210 214 227 241 261 255 260 227 255 287 272 325 334 411 435 410 383 362 347 382 344 331 326 323 346 360 363 402 359 344 346 346 366 357 408 468 487 481
190 195 206 196 216 223 226 237 254 252 260 263 253 264 283 266 339 368 447 426 393 368 376 385 336 327 321 326 337 337 345 357 405 344 341 347 366 367 335 465 467 455 466
196 204 212 221 223 231 232 252 256 251 267 270 260 288 266 320 337 380 438 407 380 353 381 331 325 319 343 343 344 347 338 361 369 338 342 358 365 365 349 407 487 476 456
204 209 223 228 232 228 251 250 240 242 250 264 279 276 315 342 384 447 430 393 363 377 324 321 312 332 336 342 349 350 347 386 348 334 348 346 361 363 363 395 456 481 455
217 225 229 227 236 252 250 242 236 246 261 270 280 268 329 353 375 443 415 379 361 338 325 313 320 326 333 340 359 350 347 391 337 338 338 339 352 361 363 332 454 444 438
227 230 230 242 261 251 249 244 279 285 290 284 264 321 335 382 379 432 398 366 375 322 314 309 321 319 325 341 364 353 346 387 333 335 331 334 337 358 362 336 455 439 431
228 239 242 257 249 236 245 224 268 271 279 264 320 333 390 374 421 418 383 356 326 320 309 316 314 310 319 333 370 360 349 387 329 334 328 332 333 342 365 344 444 437 417
243 259 258 248 233 231 249 281 302 295 323 326 332 402 380 363 429 404 370 373 324 318 307 310 304 306 308 320 338 372 353 383 327 333 331 338 340 334 356 356 333 445 403
250 252 236 233 225 272 284 280 277 259 338 328 355 393 371 352 417 389 357 336 321 314 305 303 298 299 304 306 322 369 369 368 331 330 329 331 332 339 340 354 349 332 445
242 231 238 253 256 282 276 262 258 324 314 343 407 378 358 351 407 378 351 331 321 311 306 303 295 291 293 302 307 323 388 354 352 331 326 321 322 324 335 351 347 352 335
233 244 260 259 279 278 243 266 320 319 342 415 383 364 348 417 397 368 345 326 314 312 304 298 290 288 289 295 303 312 330 380 378 333 323 315 311 315 321 334 346 358 351
245 250 291 284 277 299 309 317 322 347 392 357 371 353 340 411 390 362 343 326 318 316 304 299 290 285 282 289 293 303 315 359 370 345 327 313 305 304 304 318 331 345 358
271 289 272 248 262 325 319 328 349 372 405 383 360 342 360 404 386 357 346 335 320 319 304 298 295 289 284 289 290 293 303 316 388 375 336 319 303 300 301 301 301 313 325
282 263 299 330 317 322 340 355 364 382 392 366 352 332 405 398 382 359 340 330 332 312 322 295 294 293 287 283 291 292 300 309 321 414 377 331 310 299 299 293 295 294 294
314 336 321 312 335 343 356 374 420 402 374 354 339 325 399 393 386 362 343 335 328 321 313 314 300 294 294 293 290 292 295 302 316 332 424 376 327 305 297 297 289 292 289
319 317 330 347 358 369 403 404 409 384 360 341 329 320 392 379 387 370 349 334 324 326 309 307 310 307 305 304 300 304 296 300 311 321 341 425 378 326 304 295 294 286 287
337 346 363 379 369 415 396 387 394 367 348 332 326 316 351 375 375 378 357 339 332 323 321 312 305 307 310 313 319 320 295 296 308 319 332 453 429 376 327 305 295 292 283
364 373 378 422 409 398 389 376 380 358 341 329 324 313 340 371 370 379 371 349 335 325 322 320 311 305 305 315 330 300 296 298 308 321 326 347 445 427 374 329 308 295 293
404 388 382 385 391 376 376 364 377 354 336 328 321 313 309 341 363 351 351 371 346 330 318 316 315 313 315 335 320 296 296 298 308 321 325 337 446 439 414 373 334 312 301
376 368 370 374 376 387 371 362 365 359 339 328 320 313 304 338 335 357 336 336 370 353 325 320 319 321 333 322 297 296 299 298 308 324 324 331 434 441 428 401 369 360 320
411 401 374 363 363 379 362 359 358 361 348 331 320 315 306 303 336 326 327 330 330 332 311 317 320 329 324 305 301 299 299 302 312 326 317 330 382 437 433 420 398 376 371

GFSGL_2pvu_pres_027.txt.gz
Presure
199 208 221 212 211 215 213 203 194 189 190 183 201 204 223 236 246 267 254 251 265 261 298 290 338 384 441 419 395 381 372 389 393 372 358 354 359 362 360 363 366 360 366
202 213 213 215 215 212 202 195 194 188 188 212 211 235 235 240 262 253 239 279 244 295 280 336 405 446 420 394 379 366 384 375 362 352 340 344 350 364 365 407 418 399 73
203 208 214 220 212 200 198 202 200 194 207 214 235 234 256 264 256 260 284 277 293 266 337 364 454 428 396 376 368 386 368 345 339 335 337 351 366 375 423 381 371 370 371
201 208 221 223 203 195 206 200 203 212 219 238 238 251 262 260 251 252 287 294 283 331 341 413 440 404 378 367 389 344 340 326 334 345 349 353 370 421 370 362 356 356 367
205 216 227 211 200 197 204 203 220 227 235 241 258 262 248 237 236 274 307 301 286 339 396 451 418 384 370 376 339 331 324 350 353 354 357 352 416 365 351 351 359 378 379
217 228 208 201 201 204 203 220 228 236 244 260 254 250 243 242 290 287 269 267 335 375 396 433 393 375 379 334 321 323 345 354 350 352 359 377 363 347 349 361 374 377 381
223 200 202 201 203 205 217 227 233 252 253 240 245 246 226 273 281 267 293 333 321 387 449 408 385 372 329 322 323 336 339 352 374 360 353 392 346 348 349 360 375 378 367
196 197 204 208 207 226 227 238 269 244 245 239 242 265 276 297 260 276 333 332 402 371 431 398 381 337 323 311 327 324 339 351 376 362 359 356 340 342 341 351 371 367 345
198 205 206 213 228 228 238 253 257 236 228 242 261 276 289 252 348 336 326 417 383 407 409 372 355 326 313 320 319 321 335 369 370 358 388 340 338 335 341 351 373 355 330
204 208 216 227 232 250 260 243 233 227 235 258 284 288 258 280 341 321 366 397 366 432 393 382 331 321 310 316 313 312 325 348 373 348 387 339 335 331 335 345 370 350 445
213 223 228 231 246 240 247 245 234 224 263 280 297 250 298 343 321 341 407 381 353 412 376 377 325 314 307 301 307 310 312 330 381 349 381 337 331 337 340 341 368 338 432
229 230 243 257 259 235 242 225 246 256 267 272 274 302 347 318 329 413 391 365 380 396 365 366 323 311 306 302 299 298 306 321 385 359 359 337 331 335 337 342 364 338 411
227 253 258 247 238 250 259 251 256 238 284 251 275 349 316 331 397 398 372 352 416 383 357 337 321 310 303 296 293 294 298 307 328 366 347 334 332 327 328 339 356 340 410
253 247 238 239 252 252 260 257 255 266 263 329 341 316 335 374 408 384 359 344 405 375 353 331 319 310 297 294 289 287 291 300 315 354 383 335 329 322 322 335 353 351 330
244 252 260 259 255 262 264 291 318 319 350 343 306 344 367 383 396 366 348 384 397 369 350 326 318 309 301 294 286 284 290 290 303 320 381 341 329 320 310 322 337 351 347
231 243 249 250 254 282 290 334 322 314 320 327 344 356 414 405 377 354 337 409 392 366 343 330 319 308 302 295 289 289 285 291 293 307 333 383 331 319 307 308 332 347 346
258 260 247 264 319 288 285 323 338 323 330 350 371 430 406 384 360 344 326 402 389 367 348 335 320 318 313 295 294 291 288 288 291 297 315 387 343 321 306 305 310 337 351
259 252 252 283 321 342 341 335 343 350 371 372 412 401 387 370 350 335 323 394 388 369 345 332 333 315 311 319 302 299 294 292 294 295 304 321 393 330 313 303 300 308 330
267 257 310 345 340 350 355 360 363 377 400 396 393 392 375 355 338 329 317 379 387 372 351 339 329 326 312 315 310 305 303 304 303 296 295 313 341 393 321 303 302 293 302
318 311 357 361 363 368 369 353 377 396 396 390 384 382 362 343 331 328 312 373 375 377 361 342 331 327 319 308 301 306 309 314 319 314 295 307 321 435 374 316 298 298 292
372 377 365 356 351 378 403 383 378 364 383 383 363 374 354 337 328 326 309 347 366 379 368 346 335 325 320 316 308 302 300 307 322 308 294 304 316 331 445 346 313 297 294
368 357 354 392 393 390 381 372 368 362 362 366 367 366 352 334 327 323 311 325 347 357 365 360 339 330 319 317 311 309 310 322 335 298 295 302 312 324 360 443 342 312 297
356 391 397 390 386 394 409 409 385 367 359 366 366 359 355 337 327 319 313 303 334 344 338 334 362 338 325 316 312 313 318 335 310 295 296 298 309 323 332 465 438 338 313
400 389 387 396 386 358 350 359 403 375 356 357 353 356 358 348 329 318 313 300 308 332 327 326 326 329 346 326 320 319 329 324 298 295 297 300 312 330 323 353 458 432 340
390 381 369 355 346 344 344 338 335 384 372 358 347 342 351 355 337 321 316 309 285 308 330 320 326 326 326 300 310 323 322 315 306 298 298 304 319 326 316 335 459 451 425
367 353 350 349 347 339 332 334 343 340 333 364 381 365 354 355 348 333 321 312 302 291 306 330 319 342 344 312 308 309 315 306 296 297 304 319 323 308 316 335 365 452 443

GFSGL_2pvu_pres_030.txt.gz
Presure
193 186 198 199 197 198 204 211 230 232 218 205 204 202 211 207 228 249 265 254 252 241 228 281 285 288 378 352 412 457 430 405 393 395 388 360 354 353 343 341 345 353 358
195 191 187 195 189 202 211 234 224 201 199 204 208 214 213 230 241 264 252 240 231 225 280 271 273 335 358 379 400 433 400 399 399 353 345 333 330 342 351 362 365 372 384
185 186 192 192 198 208 227 204 200 198 200 208 213 217 236 251 264 244 246 227 235 272 306 273 351 367 355 396 441 410 385 375 342 334 331 346 354 360 366 368 369 368 409
192 194 192 197 202 227 205 200 197 205 208 211 219 234 243 253 251 256 230 263 263 308 275 332 341 335 406 424 418 389 360 336 327 339 342 350 361 372 367 368 384 380 365
191 193 195 202 230 210 203 200 207 210 217 230 234 231 259 237 235 236 240 267 256 256 324 333 348 394 389 429 399 366 338 327 332 333 344 354 381 372 364 381 373 356 352
191 196 202 228 206 202 201 206 208 216 233 232 268 250 242 248 240 248 243 290 305 329 321 322 353 402 371 420 381 341 327 325 324 325 343 405 377 366 371 366 351 357 344
194 201 211 233 199 205 202 207 215 235 243 262 250 243 255 239 253 264 290 244 318 318 328 316 414 384 432 398 357 331 319 319 321 318 341 388 374 361 377 345 345 345 346
201 207 235 204 203 205 213 214 228 245 258 250 259 260 235 259 269 281 289 309 330 339 317 410 393 368 419 384 342 324 318 308 313 314 338 395 355 399 346 348 338 345 350
206 231 188 202 210 212 215 227 254 255 251 256 246 253 259 256 301 307 306 321 310 337 350 411 376 358 401 367 333 320 312 307 307 310 328 393 370 357 345 338 345 349 354
226 204 203 215 215 221 243 263 255 244 259 258 239 255 266 259 307 309 330 322 371 321 383 394 360 415 381 356 328 318 310 303 300 306 318 356 385 342 339 339 343 348 366
206 195 215 207 234 252 254 253 251 242 254 257 253 250 260 305 305 311 322 321 338 384 409 372 352 397 367 349 325 315 304 299 295 296 307 330 386 344 334 335 335 348 360
202 216 221 241 251 251 258 240 241 253 263 273 246 271 318 317 303 337 333 356 361 392 381 356 378 386 356 340 324 313 305 294 290 295 298 313 384 345 334 329 332 347 357
212 236 244 243 250 252 265 247 259 249 257 277 307 326 314 312 371 350 347 368 413 390 362 342 401 376 353 338 325 315 306 297 294 294 291 305 335 359 332 327 323 339 358
236 241 251 251 261 261 256 257 268 267 279 294 283 310 358 349 357 379 387 409 393 369 347 337 394 370 352 335 324 314 307 303 297 292 295 299 312 389 335 323 315 328 356
242 251 252 265 273 251 257 261 312 335 319 349 357 357 357 373 365 368 414 394 373 352 336 375 392 368 351 335 324 319 310 301 298 296 294 294 305 353 344 322 310 318 345
257 253 263 264 254 260 259 265 335 332 364 360 363 369 350 352 409 397 391 382 361 341 326 396 387 366 348 337 326 319 320 310 300 301 301 298 301 317 389 327 312 308 322
252 269 258 260 264 284 370 370 364 374 375 350 350 353 398 388 373 386 387 364 348 336 320 381 387 370 347 334 335 318 310 322 306 303 305 303 307 307 358 339 317 306 310
275 265 259 260 385 384 387 375 368 361 356 399 390 384 370 368 373 376 374 354 340 334 319 354 384 375 353 339 328 329 314 316 315 313 310 319 319 302 321 405 323 307 304
262 267 336 288 389 372 361 349 367 400 397 388 380 378 370 366 364 366 371 350 336 330 317 334 370 379 362 342 327 330 319 313 308 305 307 319 325 299 315 340 352 316 303
291 318 345 376 366 354 349 388 401 384 380 399 402 402 389 371 360 370 364 350 334 325 318 307 357 379 370 347 335 323 320 318 312 306 307 328 315 295 308 322 421 332 309
395 380 371 359 344 375 394 395 386 382 391 363 348 345 392 367 358 364 356 354 336 324 323 304 333 350 334 361 339 327 317 317 314 314 317 338 313 295 302 315 328 439 327
375 365 356 342 391 402 391 381 378 362 349 344 343 341 332 369 360 354 350 356 342 327 320 307 308 331 340 330 364 335 321 315 314 317 328 334 299 298 296 310 322 334 433
363 355 346 397 393 381 374 357 347 344 344 343 337 324 336 332 351 354 342 340 355 335 321 313 296 318 325 326 328 325 347 313 317 320 330 318 301 297 297 307 328 324 421
362 356 398 383 392 367 355 347 346 333 319 321 327 333 331 331 335 335 357 344 347 349 329 316 304 290 313 324 322 330 327 305 310 320 323 310 307 297 302 313 327 316 336
372 393 395 378 357 355 305 391 384 378 370 361 356 353 348 342 338 335 371 365 353 351 344 325 316 299 291 305 325 320 358 318 309 311 315 307 296 294 305 327 318 312 324
396 390 365 358 329 318 381 365 386 386 367 355 349 342 340 343 340 340 334 360 358 347 349 337 330 318 301 294 304 323 317 317 310 309 314 303 291 304 320 309 305 313 331

GFSGL_2pvu_pres_033.txt.gz
Presure
195 203 205 196 193 193 192 196 195 198 201 206 228 212 204 207 209 214 216 237 260 265 259 250 247 252 315 284 322 254 344 366 440 445 409 397 358 348 341 341 351 356 357
203 204 197 191 188 195 190 192 195 200 203 207 237 206 208 213 214 219 238 257 252 255 244 238 238 244 321 318 323 346 331 411 456 418 373 350 339 340 349 350 359 369 373
201 205 211 207 195 191 193 196 200 203 204 235 206 205 215 212 220 257 255 250 239 254 261 238 273 277 315 307 313 327 338 403 433 387 351 336 336 335 342 357 381 379 382
211 222 196 191 191 192 197 201 198 223 231 210 200 215 210 233 256 253 258 257 263 263 269 273 284 323 310 306 305 339 407 446 412 361 334 329 325 329 346 392 397 385 372
193 191 190 193 194 197 204 196 213 229 212 201 217 214 239 254 255 267 249 252 252 258 263 323 324 315 318 317 346 386 394 427 386 346 328 322 320 321 356 399 384 365 394
185 193 195 202 196 205 195 213 225 211 209 218 224 251 269 275 260 252 258 264 267 301 316 326 311 325 320 322 361 366 386 409 361 334 320 313 313 317 367 366 381 394 359
196 195 194 203 202 212 214 224 209 216 217 241 252 272 265 198 247 261 259 268 304 325 342 320 317 320 328 373 395 382 427 394 351 325 314 310 305 313 360 389 380 352 353
196 201 204 196 214 226 215 207 215 226 242 261 271 256 254 257 265 258 272 276 295 323 324 323 325 350 354 384 386 365 405 380 343 325 312 305 305 309 355 402 350 346 348
203 199 202 215 228 212 210 215 235 238 257 266 270 272 251 260 264 277 292 327 350 335 334 340 372 398 353 390 365 355 387 368 336 323 312 301 301 306 328 384 350 344 341
202 205 231 226 212 213 218 233 245 256 272 271 257 250 258 266 269 325 342 339 346 348 374 343 390 352 396 374 353 397 370 358 331 321 311 302 298 299 319 395 348 338 333
207 237 214 211 212 234 235 242 256 265 259 253 256 265 276 292 348 345 347 357 383 367 386 341 416 396 374 354 358 384 361 353 327 318 308 304 300 299 311 366 352 335 328
232 221 212 214 236 234 247 254 269 264 252 257 267 317 341 354 350 378 367 385 371 346 394 409 396 371 356 341 397 377 354 343 328 317 308 305 304 303 309 324 361 334 320
216 210 226 237 235 244 254 263 253 256 263 278 363 362 358 385 374 408 363 349 370 397 395 392 380 357 342 337 389 369 352 339 325 319 313 305 305 302 301 316 377 336 316
216 229 234 238 238 253 259 258 254 264 358 391 375 382 381 378 361 344 395 395 380 367 379 383 364 347 336 346 386 367 352 335 327 322 320 305 305 306 308 309 375 342 315
227 238 237 241 253 249 263 272 275 269 399 395 381 368 351 342 382 399 383 381 372 363 386 369 353 341 330 342 383 364 347 338 330 320 321 323 309 308 312 308 325 350 317
237 238 245 254 265 267 274 269 293 393 381 366 348 337 367 395 389 385 379 370 370 366 369 358 345 334 327 342 380 365 347 334 335 322 315 324 314 316 318 309 319 362 323
237 247 260 266 262 263 271 284 391 370 362 345 351 390 395 386 382 407 383 392 378 365 367 355 339 331 321 330 381 368 347 336 329 325 315 316 315 318 324 310 315 406 334
249 263 271 262 263 265 376 394 379 367 353 373 384 384 381 376 383 360 344 339 375 368 370 354 337 329 320 321 362 374 350 337 325 326 315 314 311 305 327 306 309 329 351
264 263 265 265 270 271 402 391 378 362 381 395 376 365 376 365 345 341 342 335 371 364 362 357 340 329 321 309 346 353 362 342 328 321 322 317 313 310 340 305 305 321 419
268 265 278 274 286 403 399 386 376 382 394 378 379 357 345 343 342 341 341 324 328 365 355 364 346 330 322 307 330 339 348 350 335 322 319 318 317 320 342 307 301 312 328
266 270 276 338 405 403 391 380 380 390 388 387 349 345 308 320 324 325 324 323 330 330 359 341 358 335 322 310 305 329 326 347 344 330 319 317 318 329 333 302 301 305 322
276 284 318 410 406 395 387 389 391 388 374 352 329 306 378 373 363 351 343 339 336 334 350 351 337 353 329 320 304 308 322 324 347 341 327 318 319 332 329 299 300 300 318
279 375 414 409 397 392 397 389 381 378 368 313 304 383 368 361 370 360 354 352 347 341 332 345 347 348 344 323 313 298 309 322 322 328 331 311 319 329 318 305 300 300 311
398 422 409 399 397 398 384 411 391 386 394 301 368 368 405 416 402 349 348 343 344 341 341 333 364 347 351 337 321 310 295 304 320 329 325 311 311 320 314 310 296 299 320
423 407 402 399 396 383 400 365 392 395 327 381 382 395 378 384 421 432 354 340 333 334 338 340 329 362 344 349 335 322 308 294 298 318 317 316 309 309 311 301 293 309 319
409 402 401 390 381 394 401 395 403 389 375 363 399 382 366 360 370 433 422 383 341 332 330 332 335 327 348 343 350 335 329 308 296 299 316 315 311 310 313 304 294 313 307

GFSGL_2pvu_pres_036.txt.gz
Presure
192 191 200 204 210 206 215 214 203 199 194 197 196 204 203 214 219 221 211 215 222 274 271 264 248 247 263 271 265 307 334 328 341 339 338 349 433 434 401 363 345 343 346
190 196 205 209 211 215 204 198 193 194 190 195 202 204 213 220 217 202 215 211 276 254 265 255 252 262 267 273 314 323 331 333 336 340 354 380 442 416 370 345 338 339 338
209 206 206 212 205 193 190 193 189 194 200 205 198 221 224 212 206 218 244 274 263 255 256 263 253 276 287 291 330 331 328 344 355 393 405 390 426 385 349 337 328 327 328
203 205 200 194 190 190 193 196 206 208 205 207 234 218 210 212 239 255 274 264 253 262 256 263 279 291 318 325 328 339 346 354 388 381 348 390 408 363 339 328 319 319 323
199 193 193 196 196 194 205 211 207 207 234 221 213 211 229 237 253 264 262 258 257 259 288 321 328 339 324 342 348 363 396 369 395 346 377 420 384 349 331 327 316 311 322
195 200 195 193 203 204 208 207 211 226 221 220 216 243 233 253 270 262 252 274 256 278 277 311 349 332 341 351 364 374 404 353 379 377 361 396 365 338 326 317 308 305 322
192 194 199 203 207 206 205 213 227 227 207 212 240 238 249 260 262 270 269 263 287 332 356 335 348 350 362 412 380 360 407 405 385 364 367 380 351 330 320 312 303 305 321
188 196 205 201 205 205 214 230 227 209 226 241 238 243 259 258 263 262 267 279 377 368 365 360 358 398 380 362 385 413 398 384 365 355 391 369 344 326 318 309 298 304 316
202 204 195 205 212 213 201 217 199 229 239 238 242 254 260 258 264 272 294 379 378 380 385 402 371 355 407 388 402 392 375 362 356 390 377 362 340 323 314 309 303 302 312
204 192 204 213 207 219 235 192 226 235 238 240 257 263 262 276 262 285 404 405 400 384 363 343 346 398 391 372 385 378 363 349 346 384 367 357 336 321 313 308 306 303 307
183 203 208 207 220 237 198 227 234 237 239 254 266 260 271 265 297 407 400 381 364 345 343 395 389 383 373 379 382 366 347 339 377 372 355 350 338 321 316 310 309 306 307
205 213 212 218 228 203 226 237 236 239 250 265 259 262 275 289 417 384 369 357 342 388 397 385 381 377 368 385 367 352 338 332 384 366 351 341 328 323 317 305 306 309 307
215 211 217 223 205 227 233 235 242 247 264 267 261 274 278 403 386 374 359 347 397 391 379 379 374 377 368 369 354 343 333 330 382 363 351 335 325 320 321 316 309 310 316
205 219 232 220 225 232 236 242 247 261 256 262 275 277 385 393 380 368 354 394 386 373 399 383 386 371 359 365 350 337 330 343 383 365 348 337 328 319 320 326 315 315 325
220 233 224 224 233 231 244 247 258 263 261 274 276 325 404 390 375 363 390 380 372 374 359 346 363 377 357 364 345 332 328 333 380 364 348 334 333 319 319 321 319 327 311
229 225 227 235 230 248 250 254 259 264 269 283 314 403 400 387 373 375 379 371 367 346 340 347 334 367 367 362 344 331 326 321 367 365 345 330 332 318 315 312 311 332 305
227 227 238 230 244 251 254 259 266 276 291 295 399 397 390 382 369 381 373 381 343 343 340 339 334 323 363 359 343 330 323 319 339 368 346 332 330 320 316 317 305 341 303
231 241 230 243 251 251 262 271 283 289 331 409 407 398 383 383 387 376 374 347 295 310 324 336 316 324 360 363 344 331 322 314 337 370 349 337 326 323 320 317 312 351 302
241 236 248 252 259 266 276 288 289 329 420 421 408 393 386 389 382 362 352 304 314 362 353 337 329 328 340 358 349 334 321 313 331 330 359 341 329 320 320 319 324 335 301
246 255 253 262 271 275 290 291 405 424 420 407 399 393 383 379 400 368 356 299 374 371 364 354 341 334 327 346 358 338 326 315 307 331 325 349 332 320 317 316 331 331 303
254 250 263 274 273 288 299 426 428 417 406 399 394 381 381 398 380 378 308 319 369 357 359 356 350 345 335 324 339 349 331 320 306 314 324 323 344 328 319 317 333 330 300
257 265 276 272 285 301 436 426 411 403 395 392 380 380 373 368 390 387 370 363 370 380 353 348 344 343 338 330 345 349 339 323 314 304 319 323 324 340 326 319 329 318 302
267 276 276 288 315 432 418 406 395 390 384 378 380 402 400 402 392 380 363 401 374 387 416 356 341 337 338 338 325 345 348 332 319 309 297 318 321 326 315 311 324 320 306
280 277 292 400 421 411 401 404 384 378 392 398 405 400 401 397 374 363 354 385 362 367 420 395 343 331 330 334 333 356 347 344 328 317 307 291 316 319 323 309 308 316 310
283 296 382 420 412 409 388 383 414 411 417 410 392 384 380 370 355 401 395 368 353 348 428 415 361 334 328 325 334 327 356 349 342 332 317 305 293 313 316 313 307 310 305
303 421 421 411 397 404 423 443 420 401 387 379 388 396 403 416 414 389 385 359 344 335 329 386 400 361 338 329 326 330 326 334 342 341 334 323 306 296 306 316 311 308 311

GFSGL_2pvu_pres_039.txt.gz
Presure
201 193 197 193 185 190 198 213 210 197 195 195 196 195 201 211 208 223 232 219 217 228 239 254 260 255 254 257 262 289 320 335 342 348 339 341 362 380 439 382 398 395 431
195 194 184 195 200 211 216 198 195 198 199 194 200 204 209 208 230 231 211 210 237 242 258 257 261 271 263 260 306 341 346 362 363 364 359 369 409 377 427 347 395 435 400
191 190 196 206 211 202 194 199 193 191 191 202 206 206 215 221 225 204 204 243 242 258 268 260 270 270 280 359 360 381 376 370 367 376 370 397 379 366 423 393 371 404 366
187 193 202 206 194 193 186 194 188 188 204 203 206 210 218 232 216 207 242 240 255 268 261 265 273 284 343 374 382 391 396 394 418 410 355 380 424 410 394 367 403 375 349
191 197 202 186 190 186 195 178 192 207 201 204 208 215 227 216 194 242 243 246 262 261 264 267 277 318 405 437 425 393 377 353 353 417 402 416 402 383 366 408 389 349 336
202 192 192 201 194 195 208 202 208 193 202 214 214 227 217 205 243 240 240 250 258 257 271 272 307 428 435 384 368 348 349 427 404 419 397 390 369 361 365 393 372 345 333
183 192 186 181 196 182 204 202 202 202 217 214 229 218 209 233 237 240 243 256 259 268 278 298 423 394 375 364 348 393 395 392 382 390 380 368 355 348 388 370 360 340 329
191 201 184 203 175 201 195 206 199 217 213 224 224 206 230 229 240 247 247 257 267 277 296 405 392 381 365 363 403 387 383 382 393 385 371 353 344 385 373 360 351 331 324
194 194 201 188 197 186 213 197 215 209 221 224 208 224 237 239 249 245 256 270 278 285 381 397 386 369 397 400 385 383 382 378 387 372 354 345 340 380 361 353 346 326 321
197 199 206 200 182 210 199 211 211 219 222 227 224 239 237 250 240 259 269 278 285 316 398 392 382 365 389 383 390 380 379 381 376 360 347 339 376 373 354 344 337 322 317
189 207 200 190 206 197 207 212 216 224 227 224 238 238 250 247 257 268 278 283 308 396 397 392 372 386 375 388 378 353 375 375 365 350 342 335 388 372 353 341 330 323 317
206 198 193 205 196 209 210 217 230 229 227 233 239 250 249 255 268 270 279 304 394 398 396 384 368 376 370 364 346 349 376 371 360 346 337 334 385 363 353 339 329 325 321
197 209 205 193 211 211 218 231 232 227 232 239 253 252 257 267 262 279 299 402 398 400 389 372 377 376 376 339 346 340 371 375 358 342 333 338 382 358 350 338 326 316 323
209 204 208 213 211 219 228 236 224 234 242 258 255 257 266 265 277 306 411 404 403 399 381 373 373 379 340 340 342 338 369 375 354 338 331 333 382 357 341 338 325 322 326
204 214 211 214 220 230 235 223 239 244 261 254 257 268 266 279 295 424 410 412 400 385 383 378 372 354 323 305 336 334 322 373 352 337 330 330 381 355 339 338 321 318 315
218 212 220 220 232 230 219 239 247 261 255 258 265 270 280 296 426 424 420 403 391 385 381 375 359 342 296 322 336 332 329 372 353 336 329 322 382 358 342 334 322 316 318
213 225 222 233 229 219 241 251 262 257 257 259 265 295 296 429 426 417 405 394 384 378 415 398 358 295 302 359 349 334 330 345 354 337 329 318 334 365 345 330 325 319 319
224 226 237 229 233 240 249 255 268 262 271 275 300 311 436 421 412 400 391 388 373 389 387 372 368 294 370 365 354 341 333 332 357 340 328 316 331 361 348 333 322 319 318
226 238 231 236 244 254 258 272 267 275 282 305 319 433 414 402 397 390 386 374 374 370 380 376 378 306 367 358 355 345 337 332 347 343 328 317 314 329 358 338 324 318 318
242 233 239 247 255 260 276 272 281 288 295 402 424 418 410 404 385 376 373 368 383 389 390 384 378 363 352 341 341 345 341 332 330 349 331 319 310 326 327 344 329 319 319
234 240 248 257 268 278 276 285 297 293 433 428 417 403 385 386 412 403 392 385 391 385 387 378 367 354 389 376 347 341 338 335 330 348 339 321 313 306 329 326 338 326 320
244 250 262 276 277 282 290 299 365 438 426 409 400 438 432 415 416 411 405 401 383 394 373 361 349 389 360 394 364 340 332 341 330 340 346 329 316 306 313 326 328 338 320
255 268 281 280 283 292 295 437 433 417 418 467 458 446 433 410 396 384 375 367 366 371 358 349 369 374 354 389 379 343 331 332 333 336 349 339 322 313 301 316 333 326 307
278 280 279 279 289 333 435 422 411 408 446 437 412 401 392 436 434 429 424 411 399 384 370 373 384 359 344 400 391 345 328 325 334 325 355 350 332 319 311 297 316 321 315
273 278 287 303 350 434 414 418 405 414 439 405 391 427 371 400 379 374 371 374 402 405 396 387 371 350 332 413 401 354 332 325 324 328 330 348 347 330 320 311 296 313 319
284 302 323 385 429 417 418 402 414 424 402 385 371 367 371 370 374 378 380 374 354 374 383 379 363 342 329 321 323 381 348 332 325 326 326 327 344 344 332 326 312 299 307

GFSGL_2pvu_pres_042.txt.gz
Presure
203 201 198 200 205 200 198 187 186 193 210 197 195 189 194 184 185 202 208 207 221 222 234 222 221 247 251 251 257 276 286 289 311 451 440 410 381 379 364 359 357 350 363
200 197 198 195 199 196 190 191 196 209 195 200 193 193 196 208 208 210 206 218 227 230 228 216 245 250 251 251 275 281 284 304 387 408 391 376 360 354 402 432 439 433 428
194 195 209 191 191 195 199 195 205 189 187 185 185 195 185 204 210 211 218 222 225 231 225 244 251 252 251 268 269 276 301 336 412 394 374 418 414 417 410 416 416 412 401
200 194 196 197 200 200 200 202 192 191 193 184 194 200 204 216 208 216 216 227 237 230 240 248 250 249 262 267 273 293 326 413 397 378 423 403 392 387 386 396 388 381 370
195 199 202 199 201 200 201 199 191 192 197 192 202 204 199 206 211 214 230 234 230 229 240 250 250 259 266 270 286 322 412 404 380 408 394 388 387 393 398 387 377 365 367
196 198 195 198 196 199 201 192 193 192 195 207 202 213 202 207 212 223 233 231 221 236 252 253 257 263 266 283 314 412 408 389 395 393 389 385 376 391 379 364 358 357 392
197 193 194 194 197 193 197 192 192 183 204 200 206 206 214 210 219 231 237 223 233 248 257 255 263 265 283 308 387 404 400 377 388 417 386 386 388 377 362 350 349 391 386
197 193 197 199 204 201 194 196 176 201 201 213 203 214 209 217 228 233 226 231 242 262 255 262 265 292 303 386 400 401 384 379 392 364 352 380 377 363 350 343 365 378 371
193 193 198 204 198 200 205 198 202 191 207 201 215 211 216 227 212 227 234 241 265 258 261 267 296 296 339 404 401 397 374 380 381 351 355 381 374 357 346 337 386 369 360
198 201 201 198 203 200 208 204 196 206 195 217 212 216 225 207 226 231 242 262 268 259 273 290 290 336 409 401 401 385 373 377 358 348 353 376 370 352 341 339 386 359 351
202 203 202 202 191 209 202 207 206 198 216 218 216 222 213 224 230 244 255 269 268 275 289 286 325 413 408 404 389 380 378 376 346 341 341 378 367 348 337 368 386 361 344
202 203 204 202 210 199 204 206 206 214 220 217 220 222 221 229 244 254 268 273 278 290 289 321 416 414 409 391 385 385 375 359 318 333 340 345 363 346 335 366 382 357 343
203 202 204 208 201 208 206 208 212 223 219 221 220 218 227 245 255 269 277 278 290 293 314 430 420 402 393 388 385 378 370 341 298 327 336 336 362 344 333 363 376 351 342
204 204 205 204 212 209 206 213 225 220 227 229 216 230 246 256 268 275 281 291 288 343 438 424 399 389 389 384 377 377 350 329 298 343 336 333 361 343 330 338 369 350 340
219 205 217 213 215 213 221 227 222 229 229 228 232 248 261 273 277 280 286 306 403 419 414 400 386 390 382 381 414 380 363 316 293 352 342 334 359 343 330 333 376 348 339
216 220 223 217 226 227 228 228 231 223 236 239 249 262 277 282 280 285 331 431 416 410 408 395 385 383 371 382 379 372 370 372 326 355 343 334 359 343 329 326 369 349 335
227 227 227 232 233 229 236 232 241 228 239 243 256 272 270 281 317 335 426 425 407 395 380 373 368 373 369 382 377 372 370 369 361 355 341 334 351 344 329 320 333 353 333
228 231 236 230 229 236 232 227 242 243 254 266 273 266 282 325 350 438 420 408 399 393 393 402 394 385 384 381 386 378 373 365 356 351 342 336 333 345 330 316 328 358 339
234 231 228 238 233 241 234 247 243 261 281 278 276 290 335 405 428 412 421 450 441 435 419 401 390 387 388 387 382 376 364 355 341 341 344 338 331 349 333 316 321 330 339
231 240 242 240 234 247 242 253 271 281 276 277 297 354 440 426 412 422 452 443 437 431 423 410 394 393 388 387 377 363 351 351 359 344 341 337 331 354 336 318 308 325 349
241 230 235 248 246 249 264 267 274 280 279 303 377 437 422 410 416 447 414 396 391 384 378 374 368 363 361 385 366 350 340 362 377 355 337 334 332 336 341 322 306 319 328
234 240 249 249 258 261 267 278 280 288 313 446 434 410 414 431 415 410 394 383 366 432 433 414 397 382 370 364 355 341 384 355 368 364 336 332 331 329 346 328 314 303 321
248 250 258 253 263 270 281 273 301 329 435 419 427 414 478 412 408 387 377 369 370 367 362 356 351 399 389 372 361 350 370 347 380 374 335 326 329 328 350 336 319 306 306
255 255 258 263 277 274 287 304 341 426 409 440 409 389 424 410 394 374 365 368 361 358 371 368 366 353 401 391 378 377 358 339 392 375 335 323 333 326 341 345 329 317 301
256 263 267 280 267 294 303 379 423 404 386 398 390 380 362 414 392 367 366 361 452 515 474 474 428 367 347 389 385 367 341 330 402 383 337 324 324 325 338 347 344 328 315
265 277 268 277 297 309 381 413 410 388 381 392 385 373 366 357 393 371 366 446 597 526 482 464 458 456 356 373 376 358 338 325 324 394 344 329 323 327 325 335 344 346 332

GFSGL_2pvu_pres_045.txt.gz
Presure
201 199 213 214 208 202 199 199 199 199 197 196 194 199 204 207 198 197 195 194 188 205 206 215 216 214 231 239 231 246 250 271 268 271 277 299 331 436 416 410 415 408 403
204 210 214 204 205 203 192 195 199 193 196 197 203 198 196 208 195 197 191 185 205 208 213 217 212 231 235 231 239 248 266 273 270 277 302 319 430 418 400 405 401 401 401
213 211 207 200 192 195 196 195 196 195 198 200 199 198 198 203 196 186 197 205 200 211 218 216 228 241 229 237 246 257 270 272 278 301 301 422 419 401 392 416 397 391 402
214 212 201 199 194 198 199 193 194 203 199 195 203 201 205 196 192 204 202 206 206 223 222 226 236 229 234 240 254 266 275 277 294 300 352 418 406 387 395 367 384 400 391
209 204 199 198 199 197 195 201 198 199 200 198 200 196 199 199 205 210 206 207 224 223 225 214 229 229 233 252 262 277 275 293 295 333 416 412 392 384 371 356 396 387 375
204 201 199 201 196 201 202 202 195 193 196 202 195 196 202 205 204 213 207 215 221 224 222 227 221 231 248 260 276 277 289 292 330 418 414 400 381 390 357 352 391 377 364
200 200 199 194 198 199 198 193 193 196 200 199 196 197 201 204 198 208 212 216 222 224 226 225 231 240 260 276 281 283 285 328 419 416 408 389 378 382 348 350 385 372 359
198 202 199 197 194 191 192 194 194 200 200 201 201 197 205 210 213 209 213 226 223 226 233 228 239 255 274 283 282 287 330 424 418 414 394 383 379 367 345 341 380 363 351
194 193 194 192 194 193 195 194 201 199 200 201 203 209 216 221 206 217 228 231 225 229 230 237 251 274 283 274 317 327 415 418 419 398 387 384 376 346 306 341 368 358 345
196 194 198 201 195 195 201 196 202 206 204 212 216 214 219 208 224 229 234 226 228 223 235 251 273 280 275 302 330 421 424 414 401 391 385 378 369 340 306 339 375 352 343
202 202 194 197 201 205 203 202 205 216 221 218 223 222 216 227 229 234 228 231 227 241 250 272 280 274 289 335 431 409 401 398 391 384 375 373 349 309 315 339 371 349 337
205 203 202 201 197 204 206 216 218 216 221 228 227 225 228 230 234 229 234 228 244 256 277 279 278 288 343 419 410 399 395 390 388 370 401 374 349 306 307 341 370 350 337
203 207 206 210 217 217 215 221 222 229 231 224 228 230 226 232 229 239 232 247 265 282 281 281 291 422 419 419 407 396 393 386 371 393 402 370 358 354 308 342 366 346 338
219 221 223 225 224 228 231 233 237 239 234 230 230 230 233 229 234 239 254 265 273 283 281 320 446 428 411 398 389 380 368 368 361 375 372 369 367 367 358 340 361 345 335
224 224 221 219 216 218 225 243 247 239 229 233 236 238 229 241 251 257 268 281 281 280 402 442 424 406 390 392 391 387 375 373 371 370 367 369 369 366 357 339 359 341 330
217 214 213 216 224 226 240 254 240 234 239 239 231 242 252 255 266 273 283 279 303 439 440 417 399 414 425 419 411 404 397 386 373 372 370 368 363 360 353 339 354 339 327
209 212 220 220 227 234 250 239 237 239 228 227 247 248 256 265 277 281 273 346 449 428 406 413 407 452 440 426 416 406 392 377 373 378 372 371 360 352 347 340 348 340 323
213 217 220 226 239 251 253 242 232 225 238 243 252 256 263 281 274 275 449 442 423 415 427 406 430 403 391 407 406 399 388 382 381 377 371 362 352 343 342 340 332 342 323
215 228 229 244 246 239 248 230 231 249 254 253 264 266 278 269 276 426 430 437 414 401 445 427 395 384 400 382 371 367 375 384 375 372 364 354 342 336 339 340 332 344 323
228 239 250 245 241 240 234 245 246 258 256 263 268 284 271 281 445 419 402 411 389 378 411 393 378 368 357 413 399 388 378 364 367 364 351 340 359 348 340 337 330 343 324
247 252 251 227 238 231 249 252 258 271 263 266 289 270 313 446 425 405 388 394 385 367 405 386 368 364 358 352 357 351 394 375 366 354 344 349 363 358 341 335 329 345 326
255 254 234 237 239 248 256 257 265 263 286 278 274 322 368 431 410 400 381 403 382 369 353 381 361 357 355 345 349 361 349 393 373 356 343 371 341 362 338 333 330 348 330
249 240 237 244 251 255 261 260 268 277 265 301 336 380 417 407 424 405 382 401 385 365 405 381 364 356 352 404 401 377 363 362 382 364 348 367 336 365 337 332 329 338 339
240 241 246 252 254 257 260 269 266 281 314 348 409 413 400 426 411 397 376 397 379 426 405 386 369 424 473 457 423 391 367 347 388 371 370 339 361 365 332 330 328 331 344
246 248 256 252 260 256 268 266 303 313 355 419 410 393 407 400 396 378 408 391 429 399 373 385 423 491 469 457 453 420 380 352 385 378 362 336 385 355 332 324 327 330 351
259 254 256 264 257 268 266 305 322 364 410 399 395 387 394 392 383 399 395 430 398 362 413 406 412 520 466 451 448 453 403 353 378 372 332 327 398 353 330 323 329 325 336

GFSGL_2pvu_pres_048.txt.gz
Presure
196 198 205 203 201 199 201 208 211 217 205 196 201 197 202 195 197 194 197 206 210 208 204 209 196 213 198 213 211 221 229 220 237 241 242 250 278 284 288 322 346 444 430
201 205 204 204 208 210 218 205 213 210 200 196 197 195 197 196 202 195 196 204 207 211 208 194 211 199 206 207 220 230 237 236 236 245 248 266 289 282 297 347 435 436 413
204 210 214 211 201 220 208 214 215 199 199 193 196 195 195 199 195 199 203 205 202 205 201 205 212 209 231 222 230 237 234 236 241 248 261 283 281 290 317 436 435 418 403
217 209 207 207 220 207 210 203 202 199 196 194 193 195 186 196 197 202 204 196 203 203 202 210 219 224 219 230 237 233 236 235 246 256 282 284 285 293 371 435 420 405 397
207 211 207 203 224 213 211 203 199 196 192 189 187 191 194 201 204 202 195 204 204 202 208 221 227 228 231 236 235 236 235 243 252 279 284 283 289 356 430 427 409 398 395
209 207 204 222 218 212 198 194 195 191 188 194 193 196 199 196 203 196 205 205 201 218 222 232 228 231 234 233 236 233 242 254 275 282 284 287 357 434 426 407 398 395 387
213 213 217 228 217 194 195 192 186 192 195 198 202 200 199 198 197 205 202 203 218 224 232 228 230 235 232 240 236 242 256 269 281 281 288 385 429 412 406 398 390 387 370
243 252 219 202 200 195 194 193 197 200 204 202 189 202 194 201 205 203 215 225 234 235 235 230 236 235 238 236 244 258 274 279 280 292 374 411 407 401 392 393 381 378 351
202 201 199 195 195 197 201 204 203 199 194 200 196 196 203 210 230 237 232 241 240 237 229 236 234 232 236 250 260 278 280 279 294 417 418 409 403 391 387 383 376 372 344
196 200 201 203 206 204 204 202 204 198 195 196 205 210 219 226 226 228 244 246 240 232 235 230 232 231 253 262 282 283 276 300 426 428 410 404 390 385 384 381 406 364 347
204 205 206 206 204 203 200 198 200 205 205 219 222 224 219 221 229 238 249 243 238 237 225 227 240 254 259 283 276 284 355 439 427 412 400 385 375 369 371 396 390 363 355
204 202 200 202 202 209 214 209 214 224 221 219 216 216 219 224 234 250 243 246 231 227 230 247 262 262 287 269 290 431 428 425 405 390 384 382 373 369 364 378 375 364 365
212 215 215 215 217 221 225 221 218 214 217 215 213 223 225 230 250 241 239 228 225 239 252 266 264 289 273 293 436 422 408 395 401 405 402 390 378 371 366 369 369 374 367
215 220 219 217 211 206 209 215 230 233 220 213 217 224 233 249 240 229 229 228 248 251 265 271 280 275 321 433 418 399 402 403 405 420 414 398 381 376 367 362 363 370 363
232 198 215 208 209 227 221 223 216 214 216 223 226 231 251 239 233 230 235 252 265 264 281 263 302 433 428 414 402 397 411 410 442 430 412 399 385 372 363 366 361 362 359
219 225 222 228 241 239 216 248 243 243 250 238 249 257 254 232 232 245 258 269 263 276 278 379 453 424 406 405 384 435 419 400 382 408 399 386 375 371 363 368 362 357 354
215 221 236 232 271 269 256 254 240 239 239 253 255 247 231 239 250 256 270 254 273 279 453 448 423 405 399 390 377 418 389 379 386 363 394 382 378 369 371 361 359 350 347
221 228 234 266 266 264 257 259 259 253 252 254 244 235 242 253 255 268 256 280 273 379 441 441 421 395 390 384 372 393 377 366 354 391 373 374 373 372 364 362 352 342 340
232 225 236 249 249 237 239 240 244 258 258 245 242 248 255 255 267 267 284 277 432 439 413 434 419 393 382 381 366 377 367 358 355 354 381 374 365 367 358 355 345 336 335
248 228 231 232 252 260 259 247 253 253 255 256 255 260 258 266 277 279 278 430 439 411 427 413 402 384 395 380 361 380 362 350 350 342 344 376 364 361 354 344 336 341 339
238 237 225 240 242 253 252 252 254 250 250 265 259 263 275 287 275 287 368 434 412 412 409 399 380 398 390 373 404 381 362 350 343 337 341 344 368 361 349 337 355 359 340
239 250 236 240 242 267 256 251 252 257 256 263 270 282 273 281 301 377 433 407 407 402 403 386 397 397 439 413 391 379 366 355 342 358 373 350 363 363 347 335 343 358 338
225 240 238 238 264 259 253 254 254 261 275 282 277 278 298 323 401 423 401 386 403 398 402 385 401 427 401 375 351 396 398 427 414 397 379 357 338 366 347 357 338 360 338
256 254 266 266 260 257 261 259 264 268 265 275 288 321 365 420 417 360 387 397 394 452 427 398 427 402 372 344 404 397 410 434 427 400 380 358 338 369 346 361 334 364 333
261 265 252 252 265 263 261 253 264 276 281 317 327 408 416 411 394 386 392 390 461 443 418 394 416 387 359 399 411 389 460 446 441 412 384 357 369 368 355 342 347 363 330
252 263 264 254 262 257 266 274 281 290 319 330 422 408 399 390 382 385 389 463 450 428 406 392 405 377 352 391 390 482 453 440 444 425 394 356 366 372 350 334 372 355 326

GFSGL_2pvu_pres_054.txt.gz
Presure
221 201 203 207 215 214 216 196 193 204 206 195 197 212 206 211 212 203 205 211 214 210 200 194 203 201 198 204 197 205 201 217 220 232 229 228 221 230 248 261 250 242 246
201 188 212 212 213 209 193 201 205 201 202 202 233 215 215 220 222 197 206 205 210 206 203 197 193 203 206 204 205 205 217 226 236 233 223 225 220 238 255 258 243 242 260
207 184 206 185 187 194 203 201 201 211 213 226 217 213 215 232 205 205 212 218 212 193 195 203 201 206 202 205 214 223 230 234 226 234 220 235 252 239 258 250 243 254 269
201 202 194 190 194 196 231 217 213 214 219 214 211 211 206 213 207 225 233 217 202 202 197 202 203 204 210 218 227 231 223 221 217 242 267 257 239 259 251 251 252 269 271
241 217 208 216 219 218 209 215 211 206 208 218 210 208 223 214 210 203 202 196 199 194 202 207 214 217 226 218 225 211 227 222 259 259 245 245 256 251 251 251 271 285 286
218 214 212 213 210 210 210 205 205 206 204 201 200 203 203 206 206 196 195 196 205 212 212 217 223 212 212 224 238 254 250 260 239 239 255 255 251 251 254 271 282 294 452
214 210 218 214 214 210 206 227 207 205 205 204 203 196 199 198 207 206 206 211 209 217 223 220 228 240 266 266 264 260 257 247 249 250 252 251 250 260 272 284 308 426 416
214 213 212 209 209 210 211 209 208 209 207 204 203 204 206 210 214 209 203 202 224 217 207 252 242 254 259 259 257 252 251 247 247 244 243 255 267 278 293 332 426 413 405
216 214 212 211 210 211 210 207 206 209 213 214 217 217 216 219 211 219 225 211 213 220 213 227 232 235 252 252 251 249 242 243 247 251 257 280 292 308 426 433 413 398 385
222 221 220 216 215 215 215 213 213 214 213 208 219 217 208 215 212 214 216 229 236 215 211 214 257 217 257 252 251 249 251 257 244 264 276 288 326 444 435 422 400 389 385
235 232 227 224 224 225 221 217 214 217 216 211 213 209 220 227 217 213 204 208 208 247 240 227 254 255 244 241 247 255 253 253 273 275 289 335 426 431 421 409 397 381 373
244 241 234 227 224 221 219 207 211 216 224 220 228 221 217 223 222 207 205 205 221 268 252 254 254 244 250 250 250 259 263 277 278 291 369 451 428 405 425 411 388 376 386
224 232 229 238 238 230 228 229 230 227 226 224 222 203 210 213 203 235 238 244 246 252 252 259 250 253 243 248 262 266 276 277 292 357 454 424 415 409 405 389 381 374 389
206 218 225 224 220 221 224 216 211 216 216 214 231 215 207 233 235 231 237 243 256 199 266 261 250 241 245 256 268 270 278 297 437 448 419 414 409 398 385 377 371 372 374
219 200 226 225 218 226 230 249 238 214 227 226 223 220 221 221 242 236 238 239 240 265 248 254 249 244 252 265 275 275 288 461 441 417 415 403 400 386 366 366 368 370 358
211 205 211 220 215 238 236 243 244 234 231 226 240 210 241 216 232 248 236 233 245 265 255 252 254 259 265 280 274 289 431 437 415 408 415 409 392 378 392 379 364 363 354
204 205 229 224 221 231 251 252 218 236 237 235 229 249 238 230 234 237 238 242 267 267 250 261 259 267 280 279 294 428 435 417 405 415 464 428 398 396 384 369 363 354 345
217 228 229 225 215 213 243 237 251 227 242 234 248 222 229 240 240 232 245 256 253 252 268 260 270 277 282 298 446 429 408 405 406 485 455 421 391 388 378 388 364 349 341
206 226 214 222 237 223 236 254 244 235 237 227 226 233 240 236 236 253 231 254 268 265 258 265 279 288 307 386 424 415 412 405 474 464 432 406 437 415 394 379 361 349 338
227 221 225 226 233 242 230 247 240 226 225 226 235 232 234 230 238 241 259 258 249 263 270 271 287 307 431 429 425 416 412 423 470 445 416 413 402 398 381 368 359 349 339
215 211 224 227 229 238 227 238 237 232 226 233 230 230 244 245 249 256 262 270 273 267 267 291 297 434 427 425 423 427 428 475 452 427 410 399 381 363 341 335 349 348 340
218 223 234 245 241 235 233 230 245 231 230 247 236 238 246 229 263 258 262 253 263 275 293 299 433 434 411 393 374 443 476 462 434 417 406 392 374 354 370 376 359 348 340
225 228 238 242 211 236 240 231 227 251 238 236 245 251 262 255 254 259 274 274 282 291 311 433 418 402 389 376 438 466 467 451 436 416 401 384 365 351 382 404 397 374 363
246 236 236 235 248 245 246 234 240 238 241 235 257 244 245 269 265 273 272 283 305 399 422 404 400 390 376 451 456 469 456 440 425 409 396 377 357 411 375 374 391 389 378
232 245 216 252 243 242 257 246 237 239 252 251 256 273 263 281 268 278 302 385 425 414 402 393 388 395 390 455 467 456 443 435 421 406 389 367 353 382 373 381 382 388 377
231 255 236 243 239 251 241 247 253 262 263 253 267 266 277 278 299 305 431 405 406 395 391 413 402 389 458 465 453 443 432 421 407 392 376 351 388 377 440 423 393 386 375

GFSGL_2pvu_pres_057.txt.gz
Presure
219 201 201 207 205 203 202 206 204 200 195 197 208 217 199 195 208 200 196 237 214 213 212 210 224 217 215 213 220 206 206 211 215 220 224 232 236 237 258 263 269 265 251
198 195 192 201 204 201 235 202 222 196 218 204 208 190 193 195 194 195 204 205 213 207 206 206 213 211 199 204 204 213 210 221 227 237 212 264 264 263 263 263 265 261 261
195 185 186 186 186 186 180 215 186 198 210 204 188 191 194 204 209 209 217 206 214 210 210 201 198 205 204 208 208 213 221 237 221 240 217 233 238 255 259 256 251 257 262
174 182 187 186 187 183 195 196 186 191 200 192 193 216 219 205 203 198 207 203 200 203 205 202 205 208 207 213 222 235 227 230 245 221 238 261 249 217 251 250 256 259 260
187 191 193 197 190 198 199 199 198 195 208 208 214 204 204 200 203 205 206 206 205 206 211 205 212 222 221 234 226 214 217 211 224 239 231 265 251 240 254 253 259 270 271
220 209 214 233 232 241 235 214 209 209 210 205 209 206 206 205 208 207 206 206 212 216 217 221 217 212 222 224 215 207 205 224 263 205 251 251 250 246 245 259 274 275 293
238 229 205 207 206 208 208 205 207 210 211 206 205 205 206 207 207 213 218 221 197 215 216 218 215 233 219 217 222 223 223 228 261 253 248 242 247 240 251 275 277 288 320
253 239 239 229 222 217 216 214 213 211 209 210 213 216 216 197 214 211 216 215 214 222 220 226 210 217 215 218 217 212 260 272 252 251 249 247 240 252 275 277 292 333 459
218 241 260 254 248 240 237 234 231 228 228 227 227 229 225 222 216 207 217 218 236 231 228 204 213 234 210 222 233 234 266 260 246 244 251 247 253 269 283 296 327 452 436
224 215 221 222 225 230 241 249 248 240 235 230 232 228 223 222 228 236 231 231 222 209 230 225 242 214 212 234 239 251 244 257 242 259 246 252 266 282 295 357 448 426 416
228 227 235 217 213 219 229 225 227 243 224 224 228 232 229 227 224 215 216 215 219 225 217 226 223 227 230 233 231 237 251 254 255 251 259 265 279 295 347 448 425 410 404
216 222 228 227 214 228 223 203 205 216 227 223 230 244 247 222 238 236 228 230 233 224 238 227 215 220 236 244 243 247 256 255 262 267 256 278 293 320 445 431 415 411 400
217 216 218 224 225 210 206 206 216 215 235 227 223 221 226 235 246 230 223 216 234 230 220 226 227 227 235 238 231 255 253 252 261 268 277 293 316 444 428 415 407 406 399
200 214 214 217 209 223 217 215 215 207 233 226 223 222 233 236 233 239 250 229 231 223 235 248 237 236 237 242 254 251 282 255 271 273 294 321 449 436 423 412 457 423 394
213 206 209 214 216 214 213 195 195 223 218 211 223 217 233 235 226 223 232 249 246 229 246 245 235 236 236 241 247 264 255 266 273 283 311 454 445 436 425 486 447 413 388
211 215 204 213 216 215 209 222 197 226 215 221 215 228 230 232 236 239 245 245 227 241 241 232 242 232 241 251 256 274 266 277 279 306 461 446 412 439 496 466 428 403 382
206 215 206 213 221 216 205 194 204 228 213 224 217 235 230 214 246 258 249 239 236 232 234 240 225 256 254 257 260 259 276 286 306 362 429 406 393 500 472 441 413 390 375
213 212 215 186 222 219 207 201 214 230 222 215 232 237 236 246 252 243 236 229 244 242 230 230 243 243 253 259 269 279 280 303 361 424 408 400 400 478 452 424 407 418 394
210 213 203 219 222 214 206 213 222 225 217 222 238 238 214 229 243 239 232 240 230 237 237 240 255 252 262 269 279 273 308 362 425 408 399 406 479 458 431 410 417 404 385
201 214 215 216 219 215 216 208 228 224 223 235 241 232 248 252 257 233 238 229 253 239 241 251 257 261 268 266 277 303 408 419 412 399 397 477 466 442 417 404 394 391 378
213 212 217 224 217 205 223 228 222 220 247 243 250 249 248 235 240 246 229 252 244 241 254 259 271 263 270 284 302 406 421 412 395 413 413 470 453 431 408 396 389 363 350
224 223 217 211 203 233 227 216 215 242 234 250 235 239 239 236 235 240 248 240 248 255 265 261 266 276 288 313 393 413 408 394 410 390 469 457 443 425 405 390 378 363 348
218 209 204 232 225 218 221 235 241 242 248 243 243 243 237 259 264 268 255 253 251 267 266 275 281 309 374 424 397 408 401 402 391 462 461 443 431 416 401 385 372 363 378
222 228 218 227 226 218 238 243 249 239 250 245 255 257 253 250 252 251 259 268 267 269 282 285 311 424 416 405 408 411 405 483 476 465 452 434 421 409 396 380 366 349 377
216 225 227 214 231 256 251 258 251 253 234 229 253 240 243 256 258 262 267 276 279 280 316 353 414 413 402 390 408 397 482 477 466 453 439 427 415 400 391 370 355 380 375
228 233 229 254 255 252 250 246 227 245 252 279 265 259 258 262 268 278 281 281 304 361 421 415 404 394 391 399 411 480 475 463 451 438 425 417 404 393 380 359 358 377 381

GFSGL_2pvu_pres_060.txt.gz
Presure
233 231 229 215 198 195 199 206 210 205 208 215 217 212 207 215 202 212 227 205 190 193 201 199 229 203 208 196 204 201 198 204 213 211 214 221 216 237 228 229 222 216 264
214 198 200 200 195 195 200 203 196 175 187 177 183 192 190 190 181 198 200 193 190 195 210 226 202 195 195 192 199 205 211 213 214 221 217 216 236 226 216 254 271 266 259
191 200 186 194 198 201 196 193 191 186 189 208 187 193 188 203 197 190 189 195 202 235 199 202 192 193 198 205 210 211 214 208 214 221 230 222 215 240 220 231 264 257 254
188 197 190 198 202 183 177 191 199 182 186 182 185 184 211 190 186 198 206 201 201 196 197 197 199 205 207 210 211 222 204 216 225 232 222 228 234 215 239 252 263 252 249
211 188 195 190 191 184 180 188 187 187 182 184 182 186 185 191 206 203 195 205 195 198 206 204 209 213 212 222 209 215 241 244 236 218 224 232 230 227 245 254 254 253 249
193 189 190 182 187 183 189 187 185 191 186 189 193 205 220 201 204 202 199 203 204 205 209 213 216 225 217 213 233 231 226 217 223 219 223 212 243 233 230 248 266 243 269
227 217 207 204 206 200 194 194 201 199 220 212 201 202 203 207 207 207 205 182 210 227 225 226 227 224 236 231 216 215 220 233 230 229 218 209 219 241 247 262 256 260 263
258 244 237 227 224 228 231 226 227 215 213 217 214 232 219 225 225 238 245 256 253 244 237 234 231 228 249 249 231 233 225 225 227 222 206 232 231 256 252 260 256 264 271
184 231 229 239 241 231 225 222 226 238 238 233 233 239 236 241 237 229 227 218 233 237 249 250 243 242 232 231 237 241 222 220 219 215 223 234 242 243 254 262 261 273 274
210 220 209 224 227 224 233 234 231 221 213 205 230 217 238 202 205 199 234 218 224 220 244 240 239 230 231 230 231 241 239 230 229 214 216 221 239 248 255 252 270 269 304
186 209 213 211 224 218 223 220 227 227 222 216 213 214 210 208 220 230 220 228 228 229 233 226 231 239 236 226 244 235 250 240 240 236 236 241 247 262 253 263 270 284 319
199 192 205 217 218 213 221 216 216 215 219 220 212 216 211 210 200 228 213 211 215 206 235 230 214 216 238 254 235 240 232 226 251 239 244 253 258 253 254 268 276 316 406
213 204 208 205 203 218 216 218 215 219 211 218 222 224 210 201 201 194 227 223 212 212 229 232 236 239 222 249 232 233 239 249 238 241 253 258 257 252 267 277 318 433 418
211 203 200 203 210 210 221 213 212 205 217 203 223 226 223 201 196 205 229 224 207 225 242 232 240 250 237 237 247 231 242 242 238 257 251 266 263 267 275 295 439 421 414
206 203 203 210 202 207 213 216 215 217 208 214 199 226 222 212 213 228 228 223 216 229 234 246 241 245 238 243 237 243 245 258 253 244 265 262 269 278 291 392 426 415 411
202 206 205 215 205 205 215 215 213 216 213 218 219 222 219 214 209 233 222 216 226 241 245 247 245 248 244 244 246 244 248 242 244 256 260 276 274 298 315 419 420 412 475
205 213 212 216 209 218 212 202 222 214 211 227 225 217 211 211 232 227 216 224 239 240 244 250 248 249 249 240 236 241 247 247 254 263 274 269 293 307 418 412 418 485 454
204 206 217 222 211 211 193 223 215 214 227 225 216 209 207 223 223 221 224 221 240 251 251 242 240 249 241 229 247 252 250 258 263 277 271 300 316 421 414 406 401 473 440
205 209 215 214 215 222 224 217 207 224 225 215 201 221 215 226 223 219 226 241 253 248 240 236 242 249 250 254 251 258 257 274 272 277 304 317 412 420 412 408 389 454 429
216 216 220 214 229 225 212 217 221 223 210 209 217 214 224 220 231 227 235 261 252 253 235 261 259 253 252 252 256 264 277 263 283 311 320 416 404 413 409 460 461 441 418
220 220 226 235 222 207 217 222 224 212 224 231 227 226 229 240 222 249 258 254 229 260 262 250 252 251 263 254 277 271 276 298 317 416 412 400 396 401 416 465 453 433 411
223 228 223 222 221 205 225 217 224 223 231 219 227 233 234 217 265 251 257 257 250 257 245 255 262 260 265 278 276 292 311 348 402 408 402 389 403 478 472 460 443 422 407
227 227 224 212 226 228 225 232 223 225 229 227 242 222 242 263 241 260 256 255 253 254 262 264 267 277 277 290 307 324 422 413 409 400 399 449 478 471 463 451 434 415 400
226 217 232 234 232 219 216 234 230 232 246 233 243 254 267 247 261 252 256 258 260 265 269 278 274 299 311 317 401 411 409 403 408 406 483 477 472 463 450 441 426 410 390
236 235 230 220 245 239 233 233 252 237 243 247 252 240 266 271 252 261 264 266 273 276 284 301 323 347 420 415 415 410 420 419 423 490 474 471 461 451 436 429 419 402 388
219 239 238 236 234 248 244 239 252 256 250 254 273 269 252 261 266 266 276 279 289 302 326 366 422 417 399 410 423 413 408 502 484 475 466 456 447 435 425 414 410 398 379

GFSGL_2pvu_pres_063.txt.gz
Presure
211 211 206 206 209 219 222 221 220 221 215 218 211 235 219 234 213 166 222 186 184 191 194 201 194 187 197 205 196 197 205 193 201 200 203 202 211 212 218 214 233 222 220
214 217 216 220 215 209 213 218 210 218 198 204 212 185 211 209 191 179 187 189 196 213 187 185 201 204 204 210 197 200 233 196 201 203 207 212 214 216 216 228 216 216 226
213 212 213 220 195 197 215 206 199 201 192 204 183 186 193 199 184 192 198 183 186 193 196 204 204 209 198 192 195 212 203 205 211 214 217 219 223 231 226 215 227 228 224
210 212 201 215 209 199 208 192 209 199 207 188 186 186 184 184 182 187 185 188 192 194 203 204 199 194 198 211 206 215 213 221 227 231 231 233 228 244 240 244 236 216 226
261 206 223 215 194 192 209 191 211 192 195 195 192 193 199 188 193 190 194 186 183 200 195 196 201 202 206 211 216 252 250 250 254 245 247 241 242 244 242 241 242 229 231
258 237 205 222 203 203 200 200 203 191 190 187 190 191 189 187 184 191 193 195 202 199 200 204 256 252 235 225 224 214 224 231 214 246 225 220 232 225 228 240 248 245 232
211 218 238 215 209 207 212 207 199 195 191 187 185 187 188 196 196 205 199 208 217 205 225 228 234 223 226 226 225 220 242 241 230 231 229 236 231 249 227 229 229 252 256
183 190 213 223 226 232 220 212 210 210 208 208 209 207 218 220 224 224 236 229 231 201 218 220 202 205 213 217 211 204 203 202 229 240 241 246 242 236 237 235 256 261 250
176 168 172 179 165 172 219 209 225 231 236 237 237 236 241 239 232 219 220 226 219 216 217 209 205 208 233 230 223 216 218 232 233 239 241 242 241 237 246 255 253 251 248
196 192 193 191 187 188 183 195 210 211 204 206 215 219 205 216 214 227 233 230 229 213 212 223 216 198 232 228 219 218 212 233 230 241 239 229 241 253 242 253 259 245 251
179 208 193 185 193 197 208 208 197 207 211 211 214 220 224 220 214 211 216 204 199 222 224 214 211 206 211 222 220 213 228 233 233 245 239 251 253 246 255 253 247 248 256
189 200 202 204 206 219 206 211 193 199 216 207 203 211 212 211 224 214 224 211 216 190 224 226 215 225 206 222 226 216 231 240 250 241 241 247 270 259 253 249 242 250 265
188 206 198 189 199 212 216 193 208 209 203 212 213 209 205 210 214 214 216 210 210 224 219 214 220 228 222 225 216 227 230 252 243 231 249 268 248 241 252 252 246 265 269
220 204 200 195 204 202 203 200 202 212 203 210 215 212 210 208 194 218 211 211 226 223 214 216 214 225 218 226 233 225 243 253 250 257 272 243 245 252 250 252 264 261 279
218 194 209 208 212 182 203 216 206 201 208 207 213 213 209 217 215 216 208 224 222 213 215 222 218 222 219 233 218 227 248 252 255 253 246 247 255 250 261 263 269 275 292
211 217 211 211 213 202 200 208 207 206 206 206 214 209 207 211 221 212 218 219 206 221 221 220 211 222 226 217 223 249 249 252 256 253 248 254 252 262 260 267 280 294 310
216 211 206 215 212 206 214 211 212 203 213 217 212 207 210 219 216 220 219 220 212 211 217 207 223 226 237 226 234 255 256 255 255 256 252 257 263 262 269 285 297 317 404
219 205 213 211 217 218 214 215 202 212 214 214 217 213 221 222 213 223 220 220 213 222 219 226 225 240 228 230 260 263 263 251 269 254 259 265 264 276 284 306 311 413 409
214 206 216 223 217 212 217 214 221 216 217 222 225 224 228 193 223 222 221 214 233 226 229 228 234 231 237 252 270 251 255 265 255 261 267 267 279 289 311 421 406 403 395
222 221 219 216 217 224 224 226 224 223 227 227 234 222 208 229 224 222 227 237 231 229 229 245 230 241 253 269 246 259 263 254 266 270 279 285 305 372 419 408 350 402 404
226 223 220 233 232 228 225 226 229 229 233 222 216 224 229 220 211 233 235 230 228 245 230 239 261 254 278 268 266 259 256 268 276 281 301 305 323 411 367 364 404 412 476
239 239 234 227 223 227 229 228 226 217 223 218 235 227 222 217 234 236 226 232 236 239 244 281 281 249 270 267 260 272 276 281 297 313 392 413 409 345 413 415 413 478 464
228 228 230 228 233 231 229 231 232 210 230 227 225 221 236 238 227 243 238 247 248 253 290 282 274 263 267 271 276 286 294 309 408 421 406 388 427 421 417 407 484 468 455
230 231 236 242 240 238 237 235 214 231 235 229 241 230 229 229 256 244 246 255 276 288 281 263 270 277 280 289 297 312 317 376 426 322 413 415 418 417 491 481 468 459 444
243 240 237 239 238 234 230 245 235 236 241 230 247 229 256 241 253 256 278 284 289 276 271 280 288 295 310 324 425 426 407 434 425 422 440 516 503 492 477 466 455 444 431
236 239 238 241 245 239 230 245 245 245 246 244 250 254 255 255 285 285 293 284 275 283 296 299 314 368 423 433 431 420 423 556 543 529 511 494 480 472 463 450 440 430 420

GFSGL_2pvu_pres_066.txt.gz
Presure
235 235 231 223 216 209 202 202 204 201 199 200 197 201 202 220 213 218 242 177 193 166 183 188 176 194 197 191 201 202 202 200 198 197 200 205 231 237 237 241 241 236 232
203 227 216 215 214 214 215 217 216 225 223 225 228 225 224 218 218 193 218 194 207 179 196 199 174 207 200 193 201 204 200 201 201 203 207 235 234 222 214 224 218 229 218
256 234 225 224 222 226 243 235 179 224 176 230 201 237 204 222 209 201 195 191 197 195 207 193 197 192 200 194 201 191 188 207 242 230 223 214 224 207 226 242 241 233 212
259 255 250 227 213 224 229 226 244 229 205 190 241 202 205 214 196 197 199 194 192 198 195 194 183 197 190 192 198 211 245 224 225 202 224 208 228 217 210 206 200 230 224
211 239 246 253 245 226 228 203 228 219 210 205 200 200 200 201 203 197 195 191 178 193 191 192 195 193 199 224 227 229 208 217 230 239 237 228 196 205 212 213 224 223 234
175 209 209 235 243 251 246 226 230 216 213 209 208 205 200 190 192 192 194 194 194 195 196 200 201 216 241 217 215 222 213 201 215 212 201 203 199 215 211 212 220 249 247
190 180 180 186 181 210 220 223 213 223 219 214 208 195 195 198 196 199 204 210 216 227 227 229 228 222 215 211 209 208 212 215 223 224 232 210 202 207 226 208 229 252 247
195 193 178 172 179 175 177 178 180 174 195 190 173 205 219 218 215 211 209 205 210 213 207 197 202 209 208 203 201 195 194 208 215 228 220 222 223 232 234 222 237 253 250
171 196 206 203 183 164 185 187 171 174 192 190 196 199 201 205 201 198 194 204 209 211 214 213 211 210 204 212 211 208 211 220 222 210 204 209 217 225 232 232 235 248 250
196 194 187 205 202 199 192 200 199 198 185 176 215 202 211 204 202 205 206 211 205 186 204 205 215 194 211 215 213 210 221 224 215 221 216 218 227 230 245 228 234 260 263
195 190 183 208 188 208 187 185 188 196 201 201 200 207 213 196 198 205 204 202 212 215 214 210 209 193 220 215 206 223 220 216 218 221 218 225 227 225 237 227 239 265 256
202 200 194 193 190 196 214 165 201 195 201 196 196 203 201 201 203 196 198 204 204 206 211 205 205 204 219 213 205 222 216 213 233 216 228 227 223 230 226 241 243 262 250
202 133 202 157 194 196 194 194 210 211 196 197 206 209 204 195 205 203 195 204 204 210 214 207 203 214 217 209 215 217 221 221 227 218 226 224 229 229 241 245 254 260 257
132 182 194 205 202 203 200 206 219 214 199 213 214 211 205 194 205 207 210 206 210 214 210 209 213 216 212 214 221 222 216 234 223 217 227 228 231 238 245 253 267 235 257
195 197 200 196 203 203 202 206 216 218 216 215 207 209 211 203 216 215 214 205 215 215 204 214 215 217 219 220 221 226 218 231 218 228 227 230 239 243 262 265 270 264 262
202 204 202 197 200 204 197 204 217 227 223 207 214 212 207 216 219 216 218 214 216 212 213 219 223 218 227 223 223 216 226 231 229 226 230 241 240 259 280 271 258 268 272
206 207 206 204 205 205 211 213 161 231 223 221 211 215 223 217 213 218 214 218 222 222 225 223 216 231 228 220 232 222 237 229 226 239 240 247 254 287 265 252 268 280 276
212 204 206 213 212 210 211 236 233 224 222 211 219 225 219 216 220 225 225 225 225 230 226 222 239 229 223 227 220 233 227 224 240 241 251 268 289 262 259 276 279 277 295
217 218 215 203 211 232 229 228 224 228 229 227 227 234 220 221 237 228 227 236 228 226 236 221 228 234 220 228 230 220 236 243 254 253 286 291 270 265 284 281 297 305 308
232 232 231 230 234 229 227 227 228 227 227 224 223 218 230 237 227 231 236 229 242 224 230 229 227 218 233 227 236 241 258 255 274 288 285 265 272 290 293 305 320 389 411
235 236 234 236 229 232 235 234 235 228 227 223 229 245 228 229 228 233 231 236 231 227 233 231 230 234 217 241 252 258 267 288 293 280 266 290 299 311 313 383 427 421 344
247 242 239 239 243 245 238 241 241 233 233 243 229 232 229 237 235 236 237 232 230 237 237 238 230 241 244 263 260 284 300 289 275 279 301 311 348 425 405 391 326 419 401
236 237 240 245 243 234 237 241 239 237 234 233 229 234 241 241 236 238 238 238 242 247 237 241 251 256 270 285 295 289 280 282 306 315 324 409 431 373 322 412 408 470 445
243 238 236 234 229 229 235 240 241 238 235 237 238 243 238 241 243 247 250 249 243 241 257 265 268 273 286 292 285 292 309 319 418 423 445 398 408 407 389 497 520 501 488
240 238 240 240 239 240 240 240 254 246 245 242 241 243 240 251 247 233 241 249 256 260 273 281 296 292 294 295 315 330 441 423 435 421 420 406 363 540 527 509 495 480 467
246 244 237 238 242 248 249 252 249 241 247 218 254 242 238 241 242 267 264 273 276 287 294 295 296 296 322 366 471 437 355 385 412 468 557 540 523 511 498 483 470 459 453

GFSGL_2pvu_pres_069.txt.gz
Presure
228 260 229 243 229 225 211 205 207 211 215 217 224 219 213 203 201 197 209 205 220 231 223 177 203 190 173 214 178 172 211 201 205 194 189 191 220 222 232 219 215 200 226
196 254 261 241 238 234 232 227 225 218 216 216 232 185 172 228 221 223 230 201 206 224 183 210 212 188 213 201 203 200 190 184 184 185 170 206 221 220 214 199 212 221 209
207 170 231 279 248 233 230 224 227 226 217 218 198 224 215 234 194 189 195 202 204 206 202 199 204 206 205 198 198 195 203 181 205 207 217 216 205 206 201 207 203 184 191
193 169 193 188 265 250 246 229 225 205 207 214 210 224 225 220 220 215 222 213 208 203 201 195 213 181 206 168 187 191 199 229 219 205 203 209 208 211 202 199 203 205 196
182 197 185 187 190 205 251 239 228 232 227 213 221 217 232 217 204 222 217 215 215 224 197 185 203 194 188 192 207 215 212 208 195 209 206 197 201 209 203 207 213 221 205
176 204 208 179 182 187 188 184 204 241 235 229 222 215 221 211 178 188 178 195 192 197 194 195 203 216 214 208 211 210 210 209 210 205 209 200 206 207 200 204 223 231 216
211 200 195 207 201 178 189 193 177 181 176 173 180 168 170 190 194 199 202 195 205 203 207 206 187 199 203 200 203 205 201 205 200 208 205 210 210 210 206 202 207 216 232
193 198 197 186 203 201 194 193 177 187 175 197 175 188 213 204 182 197 208 203 202 210 203 192 200 204 201 193 192 205 211 205 205 202 205 190 217 218 212 206 217 215 226
205 193 203 197 191 192 194 203 216 199 203 202 198 198 199 197 203 198 199 203 206 208 203 191 191 193 191 194 197 195 201 206 213 205 205 206 217 217 214 211 217 226 227
201 191 200 191 205 198 188 188 157 193 199 200 211 213 205 199 194 193 196 194 180 197 194 191 192 198 197 201 194 199 204 205 210 206 212 214 217 207 215 218 224 225 229
205 194 194 198 191 189 197 195 191 192 191 188 190 189 190 185 212 207 198 194 191 202 198 201 191 193 194 203 196 205 204 206 214 213 213 217 222 214 218 225 229 218 237
205 204 194 197 195 199 194 201 186 195 196 192 193 194 197 198 203 211 209 207 203 205 207 191 205 201 196 212 210 211 205 209 217 218 217 217 223 212 224 220 224 232 228
211 208 191 196 192 201 199 190 201 192 182 193 198 197 197 202 202 195 203 214 215 214 204 204 213 204 210 215 208 215 215 218 223 219 216 223 220 223 227 226 226 228 236
216 209 206 199 202 203 199 197 201 196 196 188 192 191 202 201 200 201 203 218 223 220 210 216 207 208 216 214 213 213 220 219 217 221 228 211 232 232 232 227 228 239 236
211 210 207 208 202 202 202 200 203 198 197 203 201 205 198 203 182 202 206 214 222 226 224 211 210 218 220 215 213 220 225 216 229 222 223 239 224 237 235 221 238 235 240
211 209 211 213 211 206 204 204 205 197 208 205 195 208 209 204 209 203 212 222 229 227 217 223 220 222 224 215 228 230 223 233 223 243 232 237 239 239 216 238 232 241 255
214 213 195 204 213 214 215 214 210 213 215 195 213 205 205 221 223 213 223 227 230 229 227 229 224 227 226 230 233 231 235 232 246 243 236 242 228 236 239 226 250 263 285
222 216 214 212 213 210 207 203 210 211 211 208 220 221 215 215 220 227 229 234 237 230 225 234 226 222 225 236 228 235 235 246 237 233 243 229 241 236 245 262 272 287 280
229 218 226 224 231 223 211 211 221 221 217 216 216 215 229 230 231 233 227 223 232 227 232 232 228 223 232 231 238 224 241 241 232 240 239 241 242 261 272 288 288 278 279
236 227 240 241 233 232 233 239 229 230 213 224 230 233 228 239 236 230 227 232 229 229 238 247 229 247 230 242 225 237 253 229 240 241 240 260 266 288 293 281 287 290 318
234 244 245 251 259 261 250 239 238 245 241 238 233 238 237 237 242 243 243 250 229 227 239 245 239 234 220 237 245 249 242 247 241 254 267 300 292 282 292 294 341 439 399
260 251 246 241 244 244 244 249 240 254 251 221 236 232 244 245 238 240 239 242 247 243 230 244 241 242 236 256 245 243 246 257 273 290 305 299 293 300 328 409 467 455 439
238 246 238 230 226 242 244 240 238 237 258 247 245 250 250 251 249 248 239 233 247 253 254 243 233 252 251 244 250 257 278 297 317 297 298 305 330 419 469 421 426 423 395
213 224 231 236 255 244 245 250 240 219 246 248 254 259 250 248 249 247 254 241 235 238 229 237 243 255 260 272 287 285 317 302 301 312 337 395 466 369 424 426 545 556 538
253 251 256 265 255 259 237 248 264 262 275 274 265 265 255 250 251 241 245 236 247 264 262 271 259 286 282 287 320 295 302 318 345 473 457 359 582 549 563 551 538 522 507
257 247 258 252 268 255 278 265 260 262 258 261 259 240 261 256 249 266 261 265 282 263 275 273 273 298 319 297 306 320 390 466 403 568 567 522 544 537 527 513 501 488 479

GFSGL_2pvu_pres_072.txt.gz
Presure
212 193 204 236 251 229 236 226 222 215 214 208 208 216 214 223 211 206 208 183 199 217 216 230 217 230 206 205 194 198 216 212 196 190 181 201 192 204 196 205 214 215 213
204 223 200 195 210 262 244 239 231 225 217 211 213 210 210 207 212 210 181 211 174 200 194 201 189 199 201 209 191 207 202 223 207 218 211 213 187 152 201 216 208 204 204
188 207 223 193 188 199 213 252 243 234 211 199 218 215 218 219 233 227 217 222 213 189 196 213 208 212 210 216 221 208 182 208 170 201 203 159 155 212 203 198 202 203 197
203 183 199 215 203 193 172 202 237 256 241 231 220 212 209 210 214 210 213 220 220 216 213 194 207 206 201 187 214 198 219 178 189 201 196 201 199 209 209 206 207 203 204
185 199 199 223 211 209 190 191 191 190 196 252 244 236 234 228 224 226 220 218 219 199 186 187 170 198 188 205 209 197 203 200 194 201 203 196 195 198 197 196 199 195 205
199 184 198 222 196 197 202 207 205 184 184 191 186 192 188 187 239 190 185 178 177 191 193 203 202 201 201 198 202 194 193 193 195 189 194 195 196 194 193 193 196 199 201
200 198 188 221 210 207 202 194 173 205 207 188 181 181 179 180 182 185 182 193 187 188 210 207 209 209 209 209 208 205 202 199 194 183 194 191 186 193 199 197 203 200 204
202 201 190 200 215 204 194 198 198 199 188 189 199 208 203 204 212 211 205 206 208 205 185 192 200 193 196 195 192 189 191 198 185 193 201 202 187 199 206 206 204 210 213
204 199 202 224 212 201 195 201 194 197 201 197 197 194 193 194 197 198 199 197 199 195 189 187 190 197 198 198 201 197 199 199 200 198 197 204 200 199 207 207 203 210 217
198 201 208 225 219 213 199 188 194 197 197 193 194 201 199 194 192 191 201 200 197 192 192 189 187 193 194 195 202 210 218 209 210 207 206 210 197 203 210 212 210 209 224
199 202 215 210 207 215 210 201 201 191 192 200 197 195 193 194 193 199 199 201 197 196 197 195 196 202 193 188 189 202 210 219 218 215 216 205 200 206 214 214 207 222 218
204 208 218 222 212 217 211 212 203 197 194 193 201 196 197 192 186 188 184 196 189 186 190 188 191 194 199 192 210 202 215 214 216 217 216 205 220 216 220 214 210 230 221
212 216 205 232 213 206 209 209 202 211 208 199 196 202 202 197 193 195 192 192 197 195 198 191 193 202 206 204 209 206 210 215 213 215 221 226 222 223 215 217 233 223 220
210 200 212 234 216 205 223 206 204 208 205 207 204 197 197 194 208 194 195 200 185 193 196 194 200 207 205 200 212 207 213 217 221 232 227 220 221 225 229 225 233 230 238
213 234 231 220 222 215 220 206 204 210 206 204 205 207 208 204 206 207 204 202 202 204 200 211 207 202 211 210 214 212 225 206 229 226 226 221 229 229 249 227 232 240 228
242 231 224 217 218 220 216 210 210 215 211 207 210 210 212 215 216 212 213 210 214 214 208 204 209 214 211 211 210 225 227 219 241 227 231 234 233 235 227 244 221 233 230
230 224 229 224 217 222 214 212 210 209 220 211 206 213 206 217 215 217 216 214 201 209 217 216 213 205 214 228 229 224 236 251 239 237 235 234 248 234 244 247 233 231 247
239 241 236 229 189 221 221 220 213 213 211 218 216 219 216 221 218 216 215 226 219 217 205 220 236 231 227 235 234 236 235 228 242 237 235 247 244 207 246 230 241 253 256
246 256 240 237 230 227 226 228 220 224 224 214 193 231 236 233 232 230 231 231 234 234 228 242 237 235 235 236 238 236 235 251 238 246 252 245 260 241 261 244 254 257 267
252 247 240 242 235 237 232 242 238 236 236 234 220 240 236 239 238 245 241 236 234 258 248 240 243 229 243 246 247 243 242 259 264 253 258 238 251 251 259 271 257 280 270
235 251 252 246 226 221 224 257 255 250 243 243 238 217 240 250 254 270 246 227 244 253 255 240 238 243 244 251 254 256 235 266 248 242 253 253 260 272 282 281 293 309 279
264 236 255 258 270 261 250 246 207 245 238 218 232 229 215 249 233 248 247 220 250 248 245 259 257 250 262 261 267 235 240 267 252 262 265 273 302 290 287 282 288 307 366
257 250 243 256 250 240 234 232 216 231 233 236 243 251 259 238 245 226 242 248 244 249 253 258 260 264 274 252 240 284 248 255 265 270 266 311 288 292 295 307 467 617 604
253 262 254 220 256 205 260 258 268 260 255 262 272 264 228 239 241 242 236 258 262 276 279 250 256 238 284 296 293 244 276 277 297 310 280 297 305 322 564 598 362 578 569
256 251 255 254 269 247 248 262 272 262 251 254 253 241 242 229 250 278 259 255 269 275 282 297 286 292 273 273 294 291 298 309 287 297 313 449 544 545 373 555 535 540 535
269 270 271 264 257 255 265 261 258 267 268 261 245 249 263 275 261 270 271 278 286 296 301 292 292 297 298 299 302 294 283 292 315 386 480 542 538 533 524 517 513 507 501

GFSGL_2pvu_pres_075.txt.gz
Presure
187 190 212 215 194 208 231 259 231 227 223 214 212 208 211 207 202 200 203 199 201 197 196 188 191 191 221 211 203 199 209 200 189 230 212 213 197 216 193 220 165 202 195
195 205 189 207 215 210 193 210 229 247 231 230 223 214 208 212 209 204 205 203 200 201 210 211 204 214 206 214 182 195 222 219 215 218 198 210 179 170 199 179 204 163 195
188 173 201 193 194 211 198 183 190 205 240 241 223 221 222 221 219 221 218 220 219 221 210 215 201 197 218 216 198 211 208 213 206 186 194 222 206 195 201 203 194 190 195
201 196 188 192 208 187 188 225 209 198 186 200 210 245 233 225 218 214 208 211 202 198 203 202 199 218 215 211 208 186 182 225 212 209 209 197 200 200 198 197 193 186 192
189 197 197 195 202 177 199 219 212 197 202 197 187 189 190 203 246 239 236 232 232 228 228 225 212 201 170 169 174 219 217 208 208 199 193 193 194 191 184 186 198 198 198
175 199 193 182 209 208 189 192 223 206 208 203 214 190 183 182 185 189 184 187 181 181 187 177 186 172 174 178 204 197 191 195 195 196 193 192 197 201 199 199 213 182 204
189 176 178 196 197 198 201 192 210 223 206 198 203 196 206 204 203 197 189 187 183 203 195 197 194 201 206 204 203 204 200 184 186 199 194 196 192 189 186 194 197 216 211
192 197 195 202 193 195 201 196 193 210 217 202 197 199 198 197 199 194 199 199 194 197 197 193 195 196 190 186 189 188 190 191 187 195 201 194 190 191 188 193 207 205 210
192 199 192 206 202 194 193 201 188 202 215 210 202 201 194 193 194 197 199 200 134 198 200 198 197 193 192 191 190 186 195 184 184 186 191 194 196 212 197 205 194 205 212
187 216 194 202 198 198 194 203 193 199 210 213 211 210 203 200 194 197 202 195 192 192 193 198 186 184 203 194 193 199 194 194 192 199 195 197 201 201 202 204 211 214 210
200 197 198 202 199 199 202 204 199 203 209 211 213 211 213 206 204 210 199 193 176 202 198 200 198 199 197 200 195 199 199 192 194 199 197 196 204 208 204 212 208 206 213
207 195 203 205 204 205 206 206 205 213 205 204 209 219 215 211 214 199 211 206 204 202 198 199 197 195 191 194 186 187 196 201 200 203 198 207 210 208 216 206 211 213 222
203 212 218 204 203 204 207 210 210 175 203 216 201 228 215 212 214 213 212 213 217 210 214 211 207 206 207 205 207 204 203 200 203 211 200 216 215 208 201 214 216 220 218
212 210 205 210 211 212 210 212 212 212 202 211 208 226 221 214 221 219 214 204 209 211 199 194 207 206 205 202 195 210 213 216 216 210 214 203 200 214 216 221 221 223 227
226 228 225 223 224 225 222 220 218 206 212 210 217 224 219 218 212 213 216 208 208 206 205 208 207 206 208 213 208 211 214 211 211 209 212 218 221 224 220 222 244 221 240
237 232 233 233 227 221 217 215 213 211 211 216 228 225 219 213 214 221 217 215 214 215 206 222 221 218 218 224 218 219 220 224 225 222 225 234 233 233 238 244 229 254 250
264 246 233 232 230 231 229 231 230 224 226 232 171 213 220 223 215 211 212 224 215 222 223 224 227 226 217 224 224 226 243 239 234 224 224 235 241 251 225 253 237 254 250
269 274 285 269 259 251 248 240 237 233 229 230 218 222 194 222 209 217 211 202 187 206 228 223 221 229 239 240 234 232 242 233 230 255 251 258 245 245 251 259 250 249 265
271 266 275 277 272 285 268 247 239 236 234 229 229 230 231 233 227 224 219 217 222 224 214 220 227 231 228 216 248 246 248 238 254 240 240 235 239 252 250 265 278 266 272
241 249 257 257 184 234 250 254 236 242 247 257 259 262 258 253 236 232 225 228 232 225 230 233 248 252 249 242 253 250 214 226 242 244 242 249 253 263 276 282 275 305 302
303 255 247 235 238 231 226 243 230 229 233 234 228 237 239 235 239 238 230 216 237 230 259 249 241 230 238 225 228 223 244 267 230 247 261 276 270 267 268 296 306 296 306
288 283 260 260 240 248 237 206 225 231 232 210 238 238 226 241 260 255 248 204 197 241 245 245 216 241 222 239 253 233 278 276 254 258 265 265 279 272 275 305 304 309 308
270 264 260 251 252 261 267 254 223 248 250 259 247 239 248 253 220 216 249 250 245 243 235 226 225 235 245 231 233 236 256 274 257 266 290 292 300 308 315 316 300 290 300
267 269 273 261 260 261 260 254 250 257 262 265 263 263 264 250 238 241 248 225 222 226 239 252 263 235 237 272 270 269 286 283 298 308 299 306 314 314 322 307 312 328 375
292 275 275 264 267 261 260 264 267 262 257 254 258 263 254 250 245 256 257 255 260 263 262 268 278 269 280 296 286 301 299 313 305 289 319 317 306 306 311 441 317 327 525
272 291 287 301 298 275 268 264 261 257 260 251 253 264 262 257 256 270 268 266 274 292 279 296 289 293 301 305 270 316 314 320 310 297 297 314 328 475 447 314 507 440 497

GFSGL_2pvu_pres_078.txt.gz
Presure
191 201 194 204 200 221 195 208 230 258 232 233 227 225 221 228 230 222 214 210 215 207 206 208 204 198 193 194 194 202 181 198 201 202 200 204 195 216 214 199 220 170 204
190 183 196 200 196 204 216 223 201 202 213 269 234 230 228 215 215 206 206 207 210 202 201 192 194 195 201 200 197 204 223 213 208 210 222 214 200 184 212 200 216 208 202
186 192 171 202 207 198 212 199 211 194 192 192 200 242 254 236 220 214 211 210 206 205 208 211 202 200 201 209 216 212 212 208 211 225 210 170 180 192 216 190 196 201 196
188 196 193 184 182 203 198 200 203 203 212 226 200 181 188 196 227 252 243 223 220 219 217 215 211 212 215 213 210 212 207 219 198 171 172 178 205 196 188 202 198 203 196
190 184 201 204 179 182 178 196 207 203 197 204 217 200 190 204 193 187 190 190 202 201 246 248 244 242 239 239 229 186 176 172 179 184 198 208 210 201 191 202 194 185 193
193 196 196 201 188 178 175 185 181 190 213 185 188 205 226 202 205 211 202 189 189 187 186 189 185 184 188 183 173 183 200 205 193 202 200 191 190 194 194 190 197 181 173
201 194 203 199 198 193 191 198 203 189 204 195 211 189 198 212 208 197 201 200 194 201 206 211 209 202 201 198 199 193 199 190 190 188 190 196 188 185 190 193 196 194 194
189 191 202 196 201 195 200 194 182 211 193 212 202 196 189 200 196 208 200 199 200 197 193 195 194 184 193 192 191 195 191 185 187 191 185 189 196 203 196 200 199 202 205
191 200 189 194 197 197 204 216 195 193 212 203 201 199 197 184 188 213 220 212 203 196 203 201 199 187 192 192 194 195 191 192 187 186 192 194 194 196 186 199 203 205 196
199 201 190 195 205 200 205 197 193 193 208 187 201 201 200 209 205 203 213 212 216 215 211 205 199 204 203 202 199 201 194 192 195 200 202 201 204 204 204 202 195 204 204
211 208 198 199 200 205 193 195 193 189 210 197 201 205 207 207 204 210 212 215 208 206 226 227 215 213 210 209 210 210 211 211 208 199 200 202 204 203 201 204 214 207 209
211 205 207 203 202 228 212 215 217 210 209 199 205 212 204 204 208 203 210 215 218 217 215 234 226 217 217 213 211 206 210 207 211 213 213 214 211 195 213 205 213 219 219
211 213 233 217 217 213 213 202 203 207 203 205 212 202 208 203 203 207 206 212 205 199 174 216 223 226 226 225 217 221 223 218 210 213 214 199 207 218 225 222 215 213 214
223 219 221 216 218 208 209 206 206 206 207 212 204 204 203 209 212 212 223 219 217 195 205 203 218 223 221 217 212 220 219 211 214 200 214 216 220 212 224 221 237 239 228
206 229 232 232 231 225 225 225 218 217 213 213 213 212 216 222 220 224 223 214 202 203 205 212 212 221 192 226 203 220 215 217 197 225 210 224 233 196 233 234 205 246 252
257 252 231 229 247 244 244 240 239 237 234 233 236 241 212 231 181 219 210 202 211 213 216 215 222 224 218 206 217 218 222 204 213 226 228 201 224 227 233 214 235 249 244
308 310 304 296 289 267 257 253 254 245 241 239 227 217 215 216 226 208 207 215 220 225 218 217 226 225 212 216 218 220 223 221 223 212 229 215 229 231 226 247 222 261 253
156 205 280 282 267 268 273 271 273 309 252 255 257 224 242 225 218 219 232 228 230 229 224 214 226 226 226 224 223 215 226 212 232 234 226 234 236 229 251 208 215 237 232
325 325 319 319 272 249 249 258 263 229 239 233 263 273 240 237 249 261 242 240 236 229 229 232 230 229 237 242 247 250 245 242 209 219 230 236 248 257 250 241 238 232 238
297 326 274 350 279 264 249 262 259 261 249 252 182 258 253 265 261 257 264 255 248 243 244 212 256 246 235 236 233 244 238 229 243 251 250 250 221 256 245 239 250 252 251
160 291 311 321 277 271 186 155 245 194 235 229 238 247 238 244 246 252 235 201 239 229 236 241 236 229 249 253 240 235 248 251 252 250 250 249 250 257 242 254 253 260 267
282 289 239 301 268 262 260 250 248 258 247 247 239 219 240 258 242 237 234 236 252 251 231 236 238 238 235 243 236 230 258 252 253 249 258 246 250 254 254 258 278 290 269
292 290 291 290 299 289 260 261 255 247 251 252 249 250 237 229 232 241 235 245 244 244 241 237 234 237 249 240 258 270 257 252 240 243 254 256 256 245 281 263 298 327 298
281 286 285 279 289 277 301 300 292 272 263 259 252 253 239 250 256 253 245 256 254 247 242 237 238 241 260 269 270 265 263 271 267 257 279 275 266 282 277 319 332 300 297
274 290 278 284 287 283 268 276 272 289 299 294 282 278 274 266 254 251 253 262 250 267 270 253 271 266 274 268 268 258 276 271 274 291 287 305 323 334 319 292 311 334 346
300 280 308 303 291 289 280 277 265 269 277 292 278 268 273 273 270 271 267 269 263 258 262 272 263 279 276 257 275 283 306 294 306 325 323 311 293 316 326 350 369 364 391

GFSGL_2pvu_pres_081.txt.gz
Presure
185 157 190 206 191 190 199 210 222 208 212 238 258 244 240 246 242 249 252 258 249 237 242 237 231 224 216 214 214 212 212 201 199 200 199 199 204 203 216 227 223 237 171
153 192 189 194 211 202 182 203 194 193 219 200 204 214 242 240 228 230 220 227 223 222 222 223 219 209 211 205 204 200 196 200 203 204 205 203 209 212 197 215 231 175 174
170 184 189 190 183 189 197 188 191 194 202 194 211 212 191 198 213 255 232 225 215 216 217 216 213 212 210 208 207 209 211 211 212 211 209 207 211 209 217 187 182 177 193
183 182 174 190 190 187 190 195 199 185 189 188 196 189 210 218 205 192 190 200 225 245 251 236 230 223 223 223 224 222 217 214 215 225 238 238 204 180 184 186 197 208 209
178 181 181 172 177 178 190 197 196 205 190 180 186 192 188 207 202 219 227 224 206 196 191 188 188 186 195 197 199 184 226 201 198 194 183 186 182 202 210 204 197 198 194
193 184 194 184 184 178 192 190 202 205 201 202 200 190 187 184 193 196 201 202 221 220 198 203 209 209 193 194 200 198 199 194 195 197 198 196 199 198 201 198 196 202 206
173 185 186 181 194 192 198 198 191 196 202 194 191 197 197 193 201 201 216 200 198 199 207 207 204 200 197 194 198 198 198 201 201 194 192 196 197 196 188 193 195 202 199
191 192 184 187 196 194 200 208 195 203 200 202 205 193 198 201 192 195 200 206 212 202 192 193 207 214 210 203 199 200 200 198 193 197 193 198 199 197 193 196 194 192 194
194 189 194 194 206 197 196 174 207 202 207 192 202 202 203 196 194 192 201 208 201 202 203 199 208 197 220 209 214 212 210 209 203 204 202 203 196 198 195 198 200 202 203
207 204 160 202 200 201 198 198 194 202 204 202 195 201 203 193 204 192 197 202 201 195 207 204 204 211 210 211 217 211 218 206 228 221 211 210 208 207 207 209 206 220 214
209 208 206 205 201 203 210 207 209 204 194 195 200 202 198 225 220 206 212 207 205 206 208 202 207 204 206 207 213 218 233 241 235 233 228 223 220 193 225 221 215 218 219
219 217 217 220 218 209 211 206 203 201 205 205 206 223 219 223 222 209 202 204 207 205 209 204 202 204 208 210 206 230 212 199 220 196 236 222 225 228 226 221 215 218 208
212 211 216 214 212 210 211 210 205 206 213 218 228 225 213 201 206 204 202 200 207 201 203 206 202 206 223 210 227 228 230 218 214 203 216 193 218 231 215 219 219 222 197
212 212 211 212 212 214 213 217 220 220 216 215 214 211 210 207 204 204 202 208 205 209 205 198 191 226 217 195 214 194 216 187 231 212 214 227 225 218 223 222 224 228 230
222 221 224 224 223 224 226 228 232 229 227 223 220 216 214 219 229 220 217 225 221 216 209 222 237 205 216 226 214 204 219 212 209 204 221 230 218 223 207 221 213 225 233
250 248 243 242 243 245 244 245 246 249 242 238 227 224 222 219 222 224 227 227 233 236 241 183 173 206 204 194 210 205 222 225 192 243 231 212 224 220 223 223 224 245 188
247 260 269 263 318 319 319 319 319 315 314 264 254 255 260 251 250 262 275 255 231 218 223 198 223 212 211 199 217 217 220 230 228 232 224 230 230 232 218 215 230 245 256
270 308 300 297 297 302 273 304 278 294 295 285 274 283 295 196 254 224 225 217 244 257 176 246 236 231 228 225 234 229 230 221 234 210 231 235 226 235 236 257 264 235 229
285 287 221 249 333 330 296 334 335 341 312 275 225 272 241 242 233 259 267 263 251 204 216 235 229 234 237 230 255 256 201 208 243 232 251 258 261 251 253 242 247 236 239
315 321 159 222 355 309 312 142 307 339 222 298 285 266 176 260 247 255 254 244 238 235 246 224 238 246 234 233 229 238 240 260 251 237 238 239 245 238 251 254 237 250 245
308 298 290 334 334 325 309 290 292 319 287 265 271 272 264 252 240 262 249 241 245 245 230 246 237 247 247 266 227 270 233 250 262 242 247 238 255 253 245 244 252 250 251
192 283 216 145 317 313 310 305 287 298 291 284 270 260 250 264 248 263 237 238 231 244 244 243 269 265 244 258 258 250 251 259 244 252 248 240 249 253 250 251 251 264 248
276 268 317 312 315 306 307 299 307 290 288 306 309 274 266 268 258 252 255 259 251 248 254 253 251 262 250 248 231 240 250 246 242 252 254 253 255 256 265 265 255 270 270
320 252 306 309 302 305 300 296 295 289 300 266 301 276 260 263 259 260 264 251 254 255 260 260 262 258 255 264 269 256 235 259 256 255 268 244 267 271 275 275 276 266 298
316 305 304 304 304 298 292 311 273 281 286 287 263 292 272 267 253 256 262 259 257 253 252 256 259 254 254 256 260 252 256 262 274 258 261 280 270 274 271 284 333 333 325
333 316 306 303 306 280 301 302 291 303 290 278 284 295 294 300 290 272 267 259 262 268 270 272 275 291 280 264 284 299 294 284 255 268 299 303 304 337 327 323 326 336 330

GFSGL_2pvu_pres_084.txt.gz
Presure
181 182 183 186 191 164 192 198 184 193 199 206 196 219 204 244 254 247 247 243 248 235 217 209 210 211 213 226 234 229 227 230 230 221 214 206 208 201 196 198 201 211 203
181 179 187 187 183 191 185 191 185 194 203 189 195 191 194 200 211 209 230 252 249 238 236 230 234 235 230 231 226 222 215 219 213 208 202 210 205 202 203 207 208 207 211
183 176 174 189 181 163 174 186 193 195 192 190 205 190 193 193 193 193 215 228 196 209 241 236 233 226 220 220 220 219 216 216 214 213 210 212 214 216 214 210 212 232 232
182 184 183 174 189 185 183 177 182 182 183 181 196 186 212 185 186 193 199 191 197 213 217 204 199 184 192 213 219 228 235 235 231 232 218 212 211 182 183 186 190 191 195
180 181 178 173 192 189 178 179 182 176 180 180 189 193 200 205 181 207 196 182 183 199 194 196 205 223 213 200 204 211 207 204 201 203 203 203 202 203 203 204 205 205 199
193 191 189 187 191 171 187 181 189 182 185 190 199 202 195 195 207 199 198 193 210 187 197 192 213 199 196 202 206 206 206 218 218 217 211 204 196 194 195 194 194 193 196
183 183 176 176 180 189 182 182 187 179 188 193 183 194 202 192 198 195 200 197 206 195 198 204 201 198 196 213 203 201 214 200 190 196 197 197 144 215 219 209 203 202 202
182 184 188 190 190 182 167 187 188 184 193 181 192 204 199 197 199 203 205 188 204 198 203 185 190 203 194 205 196 196 205 208 213 200 200 211 206 204 201 207 208 206 210
190 190 192 192 191 192 191 147 182 190 198 203 207 193 180 198 205 189 201 219 196 196 184 194 193 221 197 200 182 199 201 206 202 204 203 190 192 201 210 214 207 220 219
209 205 203 203 203 201 200 196 211 207 204 199 202 199 193 199 203 191 200 205 206 202 197 206 218 218 214 204 212 205 202 205 205 209 202 211 203 207 211 220 249 233 223
215 215 214 212 211 217 216 212 204 197 204 204 201 201 206 209 208 200 198 196 204 217 234 229 221 217 208 208 206 194 201 201 206 205 197 202 217 209 220 229 213 247 229
215 217 227 225 213 212 210 212 206 175 189 214 213 213 208 198 195 199 202 200 205 220 214 206 193 196 199 196 197 200 198 203 199 208 202 213 215 212 234 200 216 200 208
214 210 226 232 231 228 225 218 215 213 197 202 202 203 198 200 206 203 200 202 210 200 209 216 208 221 205 206 200 214 213 211 209 212 209 200 230 223 188 204 201 214 211
223 229 231 209 229 223 216 211 213 218 215 208 207 203 199 213 212 222 231 235 212 219 175 197 203 216 211 211 199 211 234 222 219 193 223 234 221 188 230 228 217 182 210
220 226 220 218 211 215 219 216 205 208 210 209 220 224 225 213 228 236 228 225 222 218 207 204 210 211 211 200 191 208 209 181 213 208 212 214 192 197 207 227 210 217 219
226 226 216 213 220 221 208 212 218 220 214 227 225 249 247 250 241 233 208 225 223 221 210 214 214 203 215 197 200 209 212 218 224 218 204 210 225 221 211 223 218 192 220
238 235 240 240 237 235 232 223 227 253 250 246 237 258 274 277 296 330 338 266 249 239 230 232 217 230 229 218 217 228 233 239 220 235 229 210 225 236 226 236 224 224 223
240 241 244 193 257 257 256 173 241 250 181 209 297 307 347 346 308 295 301 288 292 292 301 261 267 261 255 248 255 261 253 259 241 242 232 234 227 236 238 226 229 236 233
249 255 259 264 214 214 272 240 220 278 275 339 403 335 326 323 323 337 341 308 288 272 282 283 270 260 271 248 251 251 252 249 229 246 251 251 243 255 241 214 234 225 239
269 265 265 277 296 222 162 282 284 250 212 305 351 322 135 309 312 321 359 301 297 270 256 266 277 241 259 242 231 241 239 241 262 258 262 251 257 263 232 244 237 232 265
265 311 293 275 272 274 125 127 307 314 305 282 345 322 305 288 290 299 315 305 282 287 267 262 265 264 251 243 243 256 238 260 267 260 244 237 237 251 247 250 247 240 249
269 272 276 281 291 312 310 261 306 296 291 276 322 313 304 296 295 286 315 296 289 292 274 258 273 269 269 259 249 252 251 244 250 242 252 248 244 227 243 249 257 253 264
300 314 308 311 310 305 300 289 288 284 302 320 301 306 307 296 305 280 310 278 288 281 278 269 260 269 266 259 267 260 249 249 256 261 257 250 255 256 252 260 264 268 255
314 262 303 300 295 285 322 323 330 313 308 316 305 300 311 296 295 306 285 304 275 282 280 271 279 284 271 275 273 265 260 262 253 262 265 266 264 252 253 262 268 261 247
360 322 313 340 338 333 325 336 322 319 305 302 306 303 308 299 299 285 299 287 283 259 291 260 259 261 279 271 270 274 276 255 265 258 259 262 262 255 269 258 269 270 310
347 335 332 325 321 314 308 306 303 307 325 337 327 316 310 305 294 297 324 286 304 314 291 282 278 270 290 284 308 285 276 276 263 275 279 271 260 271 288 325 333 326 329

GFSGL_2pvu_pres_087.txt.gz
Presure
191 182 181 182 180 189 169 172 170 188 193 196 195 193 199 196 201 209 208 211 229 243 271 261 260 250 222 212 209 208 206 206 210 207 221 228 226 218 216 199 196 198 195
180 174 186 183 183 182 188 189 193 155 164 200 200 199 199 203 193 183 191 205 202 205 211 215 233 208 240 234 233 230 226 224 223 217 218 223 214 211 212 210 211 211 231
184 172 180 184 183 185 184 191 174 181 181 185 187 190 188 192 200 195 212 205 194 193 193 187 203 204 210 190 191 187 188 194 218 221 224 218 155 212 203 199 196 194 183
188 181 187 190 181 189 184 173 189 187 170 184 178 185 187 186 185 193 203 201 208 188 199 195 189 191 191 197 204 206 196 208 214 211 208 202 208 196 197 198 198 197 201
190 184 185 184 182 188 191 184 173 189 187 180 188 193 189 180 193 192 185 199 197 197 200 203 199 205 197 182 183 206 193 198 193 192 194 193 197 195 201 204 207 206 205
182 186 182 190 183 191 192 197 191 194 183 174 171 173 189 184 181 195 184 203 203 196 195 194 200 195 193 196 190 180 212 193 191 191 211 203 189 192 205 194 195 196 200
188 189 182 179 180 181 183 169 172 183 182 186 193 176 186 182 179 189 190 204 208 193 195 199 207 199 193 191 201 195 183 194 190 201 210 193 188 193 198 199 207 199 200
187 173 182 186 181 184 187 183 183 182 175 188 191 187 187 191 191 194 205 210 215 197 203 202 192 194 206 202 193 194 192 192 197 197 218 204 200 210 203 199 199 195 197
179 181 183 174 185 183 189 189 185 187 191 191 189 193 186 196 193 195 212 199 220 197 188 188 211 202 197 192 190 193 204 234 217 213 217 218 203 202 208 194 202 202 201
193 195 196 196 193 184 186 187 188 190 199 199 199 202 201 203 201 212 205 205 199 206 205 207 205 212 196 181 189 195 199 205 225 215 218 214 212 203 200 197 194 202 217
209 211 211 209 208 202 201 205 206 207 205 208 205 205 209 213 206 206 201 203 161 204 209 216 200 206 196 199 201 205 203 197 215 217 192 193 194 194 205 196 209 215 214
207 208 209 206 214 209 212 216 213 217 212 212 215 211 209 211 211 205 180 204 211 203 197 196 201 196 198 196 203 208 221 222 219 204 203 202 216 203 205 206 204 209 199
195 197 205 207 210 213 217 203 200 201 208 206 210 214 218 213 209 211 211 215 197 194 204 208 195 191 193 199 201 199 199 206 222 200 196 215 215 214 207 211 203 181 219
222 209 216 223 223 203 215 221 214 209 215 211 207 223 202 217 221 212 196 197 205 211 200 203 206 210 205 202 227 224 221 211 224 200 225 228 227 206 215 208 183 216 226
214 219 218 216 216 222 224 224 210 216 202 220 223 209 212 223 202 212 214 199 193 207 191 211 217 210 217 232 228 222 222 229 199 205 215 189 203 204 217 206 213 221 214
222 225 229 234 232 221 220 224 227 226 220 216 214 224 236 223 221 223 222 222 220 209 222 225 225 229 240 235 234 240 241 220 235 215 205 205 215 204 216 183 214 206 213
230 220 218 218 224 214 221 218 215 215 215 226 239 234 240 245 161 240 176 152 249 256 262 271 269 258 255 251 239 250 251 220 226 228 227 226 222 225 224 216 216 240 228
221 222 223 221 221 225 223 218 224 234 248 245 232 241 241 172 183 258 195 286 303 313 302 306 314 294 291 290 290 299 292 283 269 249 248 242 258 251 247 245 246 247 239
234 240 242 245 248 252 252 250 248 247 249 253 256 262 225 156 281 307 288 277 305 380 266 331 323 313 318 332 352 287 266 279 275 276 287 276 260 251 240 241 246 243 268
239 248 249 248 248 247 246 248 251 263 269 159 130 126 299 291 188 286 285 322 313 338 336 315 312 315 306 307 327 323 285 285 258 256 279 251 278 274 263 276 259 256 260
255 256 254 255 260 262 264 270 265 267 306 306 300 283 278 287 295 320 314 315 300 290 324 318 301 299 296 304 317 310 304 308 277 273 264 273 254 279 276 265 265 249 261
257 264 265 270 278 314 311 307 300 289 279 279 295 328 324 313 312 306 300 294 299 317 292 310 303 299 283 280 297 303 307 287 296 282 263 270 268 259 263 261 269 262 266
302 296 286 150 276 280 281 313 333 329 325 321 316 313 305 301 316 306 321 320 323 320 314 306 294 270 293 295 280 299 301 292 286 275 276 276 275 271 266 266 274 276 278
317 291 315 319 314 314 317 323 316 314 309 306 302 322 331 349 346 336 325 311 309 313 308 302 301 306 296 295 296 291 302 305 301 284 292 288 288 284 278 276 273 276 272
346 346 347 341 340 378 375 369 363 360 350 344 340 332 327 318 311 303 314 333 329 321 320 316 306 314 310 314 298 316 256 254 250 255 260 272 291 290 266 267 268 271 275
304 297 294 295 296 295 295 298 301 302 303 304 301 296 294 291 290 290 291 288 290 288 290 291 296 299 303 308 305 305 309 313 313 312 315 278 318 320 320 320 295 315 319

GFSGL_2pvu_pres_093.txt.gz
Presure
195 193 183 189 188 190 183 184 189 183 193 186 186 184 191 196 204 211 211 201 206 196 203 201 206 211 218 226 234 235 248 268 269 253 250 246 242 239 234 230 224 219 214
190 182 181 185 184 192 182 183 184 183 185 184 193 197 172 197 173 172 173 208 176 184 187 196 201 201 204 185 198 194 201 201 205 204 206 211 204 215 203 197 194 194 191
188 199 185 178 185 186 190 184 177 188 184 183 177 187 191 193 188 188 189 194 187 198 169 192 196 200 198 192 189 203 206 211 190 191 191 194 191 195 194 193 199 196 190
209 188 196 183 181 185 187 188 191 185 183 185 182 177 186 187 198 185 190 189 189 173 184 184 182 182 185 191 197 194 199 203 211 206 210 210 201 203 210 207 204 204 203
191 189 206 187 185 183 187 188 185 189 195 197 181 183 184 187 181 183 191 186 183 188 188 184 183 194 196 193 187 190 198 197 190 197 207 202 202 204 202 197 192 194 195
191 189 184 200 192 188 189 186 196 191 189 188 188 169 183 186 183 179 179 196 176 173 200 187 184 177 178 182 187 188 193 193 182 209 205 201 193 192 192 193 194 198 195
197 193 184 198 197 199 191 192 190 187 189 187 191 194 180 193 179 185 184 187 194 194 183 194 185 182 183 188 186 188 177 201 208 183 211 205 204 194 195 184 189 200 192
185 200 197 195 183 192 197 203 198 196 192 193 194 186 184 187 190 181 191 183 187 186 189 189 198 179 183 171 183 205 201 200 199 208 208 203 212 203 204 197 203 192 206
194 196 218 195 191 198 194 191 198 201 199 178 182 188 192 191 177 178 182 209 184 189 200 192 200 190 215 194 206 202 203 219 215 216 213 206 198 205 200 213 201 195 195
176 192 200 197 203 192 197 201 200 186 198 200 200 197 201 194 193 194 182 200 192 195 195 190 195 210 199 200 211 217 225 206 214 215 210 214 209 210 203 217 221 222 204
211 213 215 183 198 197 198 205 203 199 198 199 201 192 191 190 191 198 197 186 192 193 202 210 210 207 209 204 216 213 202 215 213 214 212 212 219 218 217 204 218 191 193
188 191 191 201 202 196 183 200 198 200 197 200 203 201 204 198 187 185 194 201 204 211 207 204 206 204 203 212 207 204 195 202 206 205 210 201 222 211 218 207 210 210 212
204 204 209 190 199 184 208 211 213 210 203 204 198 201 199 198 196 204 213 216 204 207 210 203 206 196 201 203 206 198 205 206 208 207 229 201 210 206 215 217 217 205 202
216 209 215 203 199 212 201 206 221 217 205 210 211 214 209 212 215 211 200 211 210 197 195 206 204 209 214 222 219 210 211 223 231 218 205 209 213 214 225 231 201 243 176
209 216 207 212 195 209 183 212 207 214 204 213 210 190 203 207 216 210 195 214 212 207 213 220 221 215 224 227 228 212 227 214 222 192 222 204 231 234 179 229 248 153 192
223 220 205 212 221 223 212 221 224 228 243 221 238 217 206 217 219 232 206 220 215 221 223 216 228 226 238 233 225 219 218 224 250 253 228 253 253 167 183 245 251 264 262
234 216 219 224 219 208 212 211 193 202 202 185 225 214 211 235 223 219 218 228 231 235 229 224 224 228 224 224 233 251 245 265 257 255 255 253 211 263 272 272 260 326 322
217 223 236 225 216 219 216 213 213 216 213 213 215 222 230 228 226 228 231 230 225 228 223 233 228 230 218 253 245 238 259 185 145 256 267 269 271 318 313 304 305 299 313
225 222 223 227 226 226 224 218 217 226 222 227 225 227 230 233 227 232 231 234 227 230 240 232 240 244 260 257 261 255 263 263 265 299 312 296 276 281 313 332 332 313 330
222 220 221 223 223 223 222 224 228 228 225 238 229 225 228 239 230 227 236 241 245 239 239 241 257 262 270 273 272 301 309 302 296 290 286 320 329 330 318 314 307 322 303
226 227 227 232 244 231 230 236 238 240 247 248 247 241 235 239 237 237 242 243 237 264 266 270 255 313 295 302 287 297 298 299 323 330 323 320 320 338 328 330 320 322 302
250 234 248 247 248 248 244 247 254 252 248 241 242 247 248 244 244 263 275 266 254 262 274 280 299 279 300 294 384 293 364 360 348 355 358 355 350 342 331 325 325 321 317
265 264 244 259 256 255 249 247 253 251 253 257 262 264 270 273 268 272 279 308 292 318 280 287 319 322 304 305 300 305 367 353 350 340 323 311 308 303 323 322 316 318 320
295 268 261 256 254 252 264 270 266 292 295 289 288 292 299 296 289 282 281 285 312 307 314 318 312 310 307 292 283 282 286 289 295 297 295 296 294 297 299 297 294 294 295
333 331 328 332 333 306 304 309 302 315 292 294 295 317 347 341 319 322 325 320 313 310 305 298 287 282 283 282 280 284 282 282 281 280 278 278 278 279 279 279 280 278 279
324 324 326 328 325 328 333 330 331 328 326 325 323 319 318 316 313 309 306 299 294 292 289 285 283 280 282 288 291 285 287 289 295 296 294 288 289 290 295 297 299 301 297

GFSGL_2pvu_pres_096.txt.gz
Presure
229 241 229 207 191 179 181 188 193 191 193 197 215 196 190 181 176 178 179 179 179 182 181 182 185 227 227 221 230 223 225 240 214 239 235 248 247 250 256 255 247 244 239
239 236 234 207 194 175 183 179 190 183 193 193 189 182 194 210 210 217 219 220 207 212 209 193 187 174 210 190 182 198 202 189 200 196 198 200 199 194 191 187 188 191 186
251 240 237 214 201 193 178 194 181 191 175 183 184 188 191 189 186 184 184 190 186 196 198 169 166 188 174 199 157 193 200 199 191 188 190 196 195 201 204 203 203 203 201
237 249 234 211 195 197 181 183 188 181 184 176 180 182 177 178 184 189 190 189 190 182 177 180 182 181 189 190 192 177 175 182 190 181 175 172 186 193 192 188 210 199 199
238 248 227 211 193 185 190 175 181 183 183 189 185 181 183 182 182 184 187 177 177 190 185 190 184 179 180 186 177 189 186 180 177 173 172 181 182 183 186 198 189 199 201
251 236 222 209 191 191 191 176 183 183 181 183 183 177 200 191 188 180 161 177 182 182 183 181 177 181 190 187 172 191 192 183 178 181 179 182 182 188 197 195 205 191 205
237 227 216 204 190 191 196 174 177 185 183 187 184 184 176 184 182 191 180 174 177 172 180 186 183 179 181 180 186 185 186 178 194 200 173 206 176 182 194 195 205 204 196
227 218 208 204 191 198 187 199 192 183 186 189 185 182 190 188 189 191 190 191 180 183 186 184 187 182 187 184 192 183 192 194 193 185 204 208 190 195 208 213 210 203 204
216 206 201 198 179 196 181 191 175 199 201 194 193 193 190 187 188 184 183 186 189 190 188 187 190 191 175 196 184 195 181 185 184 211 205 204 204 202 208 211 211 210 210
209 204 203 192 190 180 205 208 199 195 200 206 221 202 192 191 194 192 193 193 192 189 185 191 192 175 183 189 193 192 201 194 204 208 210 204 204 202 214 212 208 200 207
221 205 203 192 191 188 186 169 204 214 200 206 195 190 191 192 199 202 205 174 195 202 204 191 200 202 199 191 195 199 200 209 217 212 207 211 207 204 203 208 194 203 211
207 212 207 209 192 198 198 193 192 182 179 195 198 185 189 202 200 211 211 207 201 196 197 202 196 187 193 202 193 203 209 211 196 205 195 196 197 203 208 212 214 213 214
200 213 209 196 206 202 193 191 191 195 215 201 195 202 211 209 207 196 200 202 206 212 212 212 214 213 213 188 207 215 198 205 208 204 202 208 214 224 213 220 216 221 225
202 212 205 203 201 190 184 190 201 186 215 204 203 211 173 198 171 206 212 214 216 215 213 197 202 218 221 216 211 218 215 205 193 220 221 211 216 223 223 224 228 224 221
215 205 200 210 214 205 206 204 201 200 208 205 209 205 208 198 212 214 212 206 203 216 210 212 213 214 178 208 212 201 211 218 207 208 204 228 228 227 224 226 230 227 231
212 221 209 192 209 205 198 200 204 201 198 215 200 207 206 207 216 221 218 212 180 222 218 226 223 202 230 212 222 205 217 217 219 237 218 222 221 227 239 232 235 186 256
225 222 209 212 203 205 225 209 216 216 214 214 214 222 205 208 215 211 224 223 212 225 248 224 219 220 215 222 219 232 232 230 229 233 229 244 242 234 239 231 267 284 273
206 218 227 224 234 218 213 213 213 221 222 223 226 233 221 231 223 227 220 217 214 227 226 218 224 226 228 227 225 223 233 232 229 231 238 239 242 258 279 267 270 300 297
231 227 224 219 222 224 225 229 217 224 221 222 228 228 229 225 225 223 232 238 225 236 225 227 232 233 234 233 236 242 246 238 241 244 240 263 279 277 301 296 295 337 291
238 216 234 231 233 227 225 228 225 225 227 227 232 233 227 225 231 237 226 228 235 234 238 233 230 234 247 248 249 236 250 250 244 257 258 284 289 265 309 325 355 322 320
240 241 239 245 241 236 239 233 234 232 242 232 236 232 236 238 240 240 240 231 227 235 237 246 250 242 250 250 249 241 263 270 281 304 290 292 321 318 299 331 323 301 332
249 245 237 246 241 244 244 241 236 238 237 242 244 234 229 235 242 238 242 248 248 247 243 253 264 253 248 250 267 275 263 305 289 318 305 318 324 313 299 288 287 287 288
265 257 250 260 257 237 245 251 251 248 243 240 246 240 252 250 251 255 254 254 259 259 258 271 268 265 271 290 305 300 294 325 326 318 317 311 299 288 284 283 280 281 285
279 271 273 271 262 260 253 239 239 241 265 265 265 267 270 267 267 272 271 272 271 280 288 300 314 338 342 306 330 323 325 319 314 306 298 294 292 287 279 280 287 291 291
277 278 300 306 302 302 301 300 301 304 300 298 293 293 290 288 287 287 287 314 337 315 335 320 327 327 321 323 315 311 306 300 298 292 285 279 280 285 267 296 317 377 357
327 330 329 328 328 329 333 335 337 337 336 337 338 337 336 335 334 331 330 328 327 325 323 320 314 311 309 303 297 293 289 288 281 291 295 320 354 349 388 389 377 371 364

GFSGL_2pvu_pres_099.txt.gz
Presure
235 224 223 228 228 222 228 203 201 194 217 183 186 193 194 181 180 184 185 186 181 180 182 178 174 175 179 180 180 182 190 208 224 219 209 192 182 200 195 198 200 204 198
210 230 211 227 233 223 232 204 203 194 199 182 192 183 190 182 179 178 182 180 177 177 171 173 178 181 181 183 190 191 155 153 154 199 200 199 205 200 196 183 185 195 194
150 233 227 219 233 218 240 214 203 187 194 179 193 220 190 186 178 172 171 175 180 179 177 174 176 174 191 198 189 193 200 195 173 182 187 185 181 179 194 190 193 187 173
240 238 240 229 237 229 247 218 204 192 183 176 180 189 193 211 214 191 187 188 187 187 187 191 193 194 188 204 193 179 176 188 187 180 173 179 182 191 185 186 182 181 179
252 253 237 231 239 233 252 222 204 192 175 194 167 182 191 192 195 185 199 206 204 203 199 190 195 192 186 176 181 179 182 173 177 178 185 188 173 184 191 187 188 196 185
267 263 261 228 248 241 248 227 207 200 192 185 180 171 177 181 183 182 186 186 178 173 168 170 167 168 178 187 173 182 188 176 182 187 175 183 180 197 179 179 176 170 182
299 268 244 245 232 233 227 245 215 203 192 170 184 181 171 183 181 186 187 188 189 183 182 182 181 178 175 177 175 181 177 175 179 179 172 184 179 172 179 178 182 181 211
356 309 242 231 236 234 234 243 219 203 190 188 186 182 175 176 184 183 183 180 177 179 181 181 178 187 166 180 181 182 184 188 165 182 186 182 175 178 192 182 196 180 185
263 233 235 228 233 230 220 237 219 202 193 189 171 177 189 161 181 186 189 185 179 189 192 189 155 175 176 183 187 174 190 184 192 186 189 182 177 172 194 190 198 197 208
242 227 228 233 230 206 195 230 219 200 193 189 182 193 192 193 193 191 175 185 194 182 181 185 190 197 200 196 191 195 182 193 195 200 206 201 207 211 192 200 204 203 198
221 227 216 187 190 229 215 223 207 199 195 190 173 189 166 180 200 197 191 207 179 187 193 197 191 183 187 193 191 196 196 212 218 201 206 204 211 209 192 200 204 207 211
207 222 214 216 182 214 222 215 211 192 185 197 179 177 195 162 193 197 210 206 201 207 191 194 208 190 203 207 213 212 188 206 209 213 202 205 205 192 211 202 209 198 202
182 226 205 220 212 190 208 213 201 193 191 191 202 199 194 191 203 210 201 209 187 175 213 197 216 223 206 218 195 212 215 218 204 205 209 197 206 199 201 188 213 203 213
207 226 211 209 212 216 201 208 180 201 183 181 183 191 179 210 202 187 216 196 214 214 206 190 208 208 200 197 215 208 199 195 204 216 211 210 203 213 213 219 216 233 234
198 221 225 197 200 211 220 209 191 196 200 200 200 200 202 196 206 209 187 186 210 196 206 213 205 215 190 212 194 205 205 213 212 204 217 206 219 224 204 222 207 213 208
219 234 222 229 209 213 210 201 211 218 203 205 193 206 189 195 198 212 192 204 203 203 211 206 206 209 211 216 206 203 207 216 223 193 217 217 221 226 213 237 206 229 224
208 211 223 220 235 201 210 219 198 205 250 217 202 220 199 211 212 206 205 214 204 213 214 214 209 210 213 214 214 206 235 224 223 217 232 224 239 218 212 221 240 226 250
220 227 219 217 217 229 228 222 209 218 217 212 222 206 200 196 215 226 215 209 205 219 222 206 219 216 223 210 222 219 211 236 224 227 228 235 237 224 231 235 246 247 248
219 222 222 216 214 221 228 219 218 218 220 223 223 217 214 213 214 213 217 217 217 206 214 226 221 214 228 216 220 227 227 221 223 235 228 234 229 237 250 250 244 259 262
235 230 233 234 234 221 230 227 225 230 229 231 217 208 213 208 218 215 217 225 216 222 226 229 226 228 228 230 245 239 236 247 234 227 251 250 243 255 254 258 271 269 297
267 255 251 242 238 235 245 233 236 228 235 235 224 226 235 238 229 232 234 233 229 237 234 234 240 239 236 218 231 239 237 240 254 251 256 237 252 240 271 259 280 346 344
254 253 264 263 254 251 250 246 242 243 237 240 241 238 240 241 244 239 240 240 240 238 251 248 237 222 224 251 250 242 246 245 264 256 269 264 269 293 281 335 327 303 319
270 271 275 268 267 269 264 263 260 254 252 247 247 243 242 244 243 243 243 224 225 235 238 233 235 249 255 244 251 260 259 267 278 291 294 296 304 330 322 326 322 317 309
300 308 303 278 270 272 269 291 283 276 272 270 268 266 264 265 264 265 264 266 266 267 256 254 270 266 254 271 258 290 277 295 284 325 332 325 329 322 318 311 307 302 297
282 287 287 288 302 306 307 303 281 278 278 274 273 266 266 264 262 261 259 275 280 285 281 288 291 296 282 283 285 339 270 329 327 326 322 314 311 308 303 294 290 291 302
324 329 330 332 335 308 308 307 286 286 284 288 289 290 291 288 286 283 280 279 290 303 300 339 338 322 334 331 328 327 323 319 314 310 305 299 299 339 316 355 378 380 373

GFSGL_2pvu_pres_102.txt.gz
Presure
207 205 206 221 208 228 222 231 230 226 234 223 200 202 192 182 190 191 184 199 199 183 184 187 179 187 180 179 180 178 173 182 181 177 181 181 175 181 195 199 183 190 189
202 213 220 205 206 224 223 234 223 236 233 199 198 194 195 181 198 189 188 186 176 179 181 183 184 185 181 182 177 186 190 183 183 179 177 175 197 196 196 196 183 198 177
209 222 210 217 227 218 221 213 229 236 224 208 207 194 197 183 175 189 188 184 183 179 180 182 183 182 181 182 181 171 171 154 164 178 185 196 207 176 186 185 176 177 185
220 207 241 225 222 225 216 211 228 229 234 212 203 198 201 186 173 184 182 184 189 186 184 181 172 174 173 178 182 181 182 183 179 191 198 199 187 181 185 181 181 190 186
242 232 230 226 219 147 138 215 226 225 233 251 211 198 190 202 175 175 173 178 178 179 176 178 180 181 173 173 177 175 177 183 197 200 189 181 184 176 181 177 178 178 175
239 238 237 236 231 220 208 221 234 240 246 236 213 199 202 181 201 166 194 190 173 181 173 173 173 169 178 173 181 204 197 172 191 188 183 171 174 184 178 181 184 170 176
231 222 226 169 224 215 237 234 239 237 251 222 239 207 193 196 186 198 185 167 165 201 207 171 189 186 206 199 194 187 183 183 181 178 180 176 174 173 179 176 180 186 190
289 283 281 302 257 255 238 230 234 227 228 220 253 216 193 201 185 188 172 192 193 178 182 188 190 184 183 186 182 181 182 181 171 164 173 179 185 181 179 184 188 186 189
260 284 276 266 263 289 244 241 233 242 228 237 256 224 198 199 189 186 192 180 189 183 182 181 178 180 182 182 185 173 180 180 185 174 175 169 184 193 196 192 191 188 199
238 264 280 278 274 271 240 243 236 233 231 229 225 237 216 193 199 179 184 188 189 162 179 185 192 187 182 190 172 191 191 184 171 188 184 188 190 192 200 191 192 210 191
225 253 252 281 275 236 248 234 212 233 213 227 244 242 221 211 197 197 190 171 189 193 195 194 192 189 179 180 184 183 177 176 191 190 193 201 196 200 188 209 201 217 210
219 228 243 244 212 226 242 200 213 203 201 205 212 208 228 211 205 198 198 181 191 184 188 175 175 192 193 190 196 194 194 197 197 203 204 194 191 177 213 187 204 196 193
214 203 223 232 223 232 214 225 198 191 195 203 190 174 204 211 212 208 195 202 188 195 190 179 189 185 212 176 194 212 178 221 202 216 212 209 215 209 190 198 203 191 199
216 210 206 230 224 223 212 214 195 199 207 194 181 179 181 192 203 198 172 212 210 205 202 202 201 205 202 184 200 213 209 214 205 213 202 215 215 225 192 200 224 201 201
228 214 218 206 194 230 224 190 212 210 197 206 215 212 199 215 212 199 202 203 195 191 182 210 211 218 213 213 204 200 196 193 195 213 210 211 211 201 219 201 222 221 204
214 226 207 198 225 211 222 216 197 202 207 204 198 176 200 194 215 209 193 210 202 200 202 202 206 202 196 186 196 199 211 207 224 198 220 214 214 218 212 222 222 212 223
224 214 229 226 217 210 224 191 212 197 198 190 201 205 205 207 205 208 211 213 191 191 213 191 199 192 205 197 194 202 207 208 214 209 224 222 214 207 199 210 222 214 221
219 228 226 212 212 217 213 213 229 210 208 204 215 208 204 202 191 212 196 198 210 196 200 189 213 211 204 200 219 197 200 216 221 224 199 215 217 216 227 225 221 220 232
225 223 224 221 225 227 227 220 216 220 221 232 227 214 204 206 227 223 228 215 207 207 216 203 191 194 197 213 214 223 223 214 215 198 212 226 227 224 226 216 235 239 231
232 244 239 225 223 226 223 230 224 227 245 207 205 233 223 220 223 216 216 231 224 222 221 215 220 232 213 224 191 223 225 224 228 226 220 233 225 226 237 239 246 216 232
246 235 239 230 244 236 235 230 238 236 233 228 238 247 230 225 224 226 226 236 231 230 235 218 226 227 235 240 234 231 225 234 241 236 241 238 237 245 227 230 229 241 260
310 302 262 238 237 233 237 235 237 244 237 238 240 238 237 222 223 227 240 214 209 209 228 212 204 201 207 236 239 242 240 238 232 247 235 248 238 244 237 258 253 271 282
304 286 297 306 298 260 259 252 250 249 233 238 241 246 240 229 225 224 230 239 232 224 225 238 219 242 229 245 242 238 229 241 251 239 251 242 273 291 284 260 288 290 283
363 349 295 299 275 291 319 324 275 272 251 246 250 236 248 238 241 238 240 241 240 237 248 256 240 231 231 253 259 261 244 260 271 275 282 274 259 295 274 267 338 341 339
333 341 344 350 351 318 305 307 292 316 320 317 312 282 277 270 245 274 284 290 289 285 281 281 282 282 282 282 285 240 292 299 307 262 293 280 345 341 340 326 333 324 318
316 321 323 327 332 338 341 344 346 348 322 302 299 304 315 321 323 323 324 323 317 313 313 313 311 306 292 295 291 313 287 306 344 342 339 337 332 328 321 313 313 311 328

GFSGL_2pvu_pres_105.txt.gz
Presure
205 212 157 197 194 180 179 211 200 211 221 210 224 226 210 194 196 189 189 202 210 198 192 182 192 194 177 190 179 201 191 182 174 169 173 170 169 160 180 185 179 172 185
205 191 193 195 192 120 191 221 207 207 209 208 226 239 238 199 195 199 189 180 198 190 192 188 186 189 181 176 186 175 185 170 183 179 167 168 174 171 163 183 179 179 152
199 203 198 199 197 199 195 213 211 203 211 229 211 228 223 202 194 193 195 183 179 189 193 182 193 192 179 181 181 181 192 176 174 164 179 186 166 184 188 163 170 191 180
194 195 199 159 199 226 189 212 174 194 213 224 224 231 232 220 194 193 192 192 182 188 182 192 191 182 181 181 178 181 183 181 182 183 180 183 177 176 182 172 193 195 193
205 201 196 211 222 213 185 188 209 230 227 219 230 215 220 215 197 211 197 191 186 187 183 185 184 187 189 185 188 191 184 181 179 183 182 183 187 179 163 195 195 194 185
214 215 225 245 242 222 218 210 224 216 206 127 209 215 246 231 214 193 188 195 187 186 173 187 185 175 174 173 168 181 181 181 172 178 177 179 169 180 185 193 181 183 174
243 239 239 239 234 232 232 235 218 190 164 224 210 212 215 233 233 212 193 192 190 188 190 174 163 176 182 181 185 185 178 169 168 182 169 175 179 192 185 185 180 182 181
228 233 242 246 241 232 231 236 225 211 215 139 233 212 220 247 226 224 208 200 191 192 188 187 180 171 177 183 164 176 181 181 171 170 187 195 192 185 186 163 181 191 169
238 227 228 253 262 264 278 225 222 219 222 168 159 209 233 231 248 240 215 205 203 193 189 194 192 189 181 178 180 192 193 198 200 193 182 180 179 182 170 182 185 189 190
234 229 228 215 246 256 267 261 261 258 244 228 228 224 239 232 238 220 245 208 206 195 196 183 186 192 176 186 190 173 197 167 170 185 190 174 184 171 181 187 169 182 192
248 229 218 235 226 239 261 247 247 252 262 241 247 240 233 179 225 221 242 229 208 203 192 195 196 186 170 198 201 194 192 173 191 194 190 181 181 190 176 195 190 201 195
232 213 223 220 219 236 255 225 240 249 253 253 240 242 231 234 230 223 232 237 224 210 202 191 193 199 193 190 176 189 178 189 184 181 167 184 185 196 199 201 191 211 226
220 232 230 219 216 226 250 229 242 252 272 249 239 239 207 226 217 220 223 216 227 217 209 206 196 192 196 199 194 193 191 176 170 183 189 196 195 208 169 189 200 218 219
224 235 211 221 214 213 239 252 227 239 236 232 221 224 205 207 183 220 216 214 208 224 221 213 193 211 209 214 209 179 198 206 211 210 210 188 178 227 218 223 179 211 193
226 230 222 216 213 216 224 238 227 213 244 227 204 225 213 196 208 217 204 214 153 203 207 214 222 227 191 209 209 193 206 208 207 196 202 211 197 221 217 219 216 197 212
220 220 218 229 218 210 227 202 234 206 230 229 216 215 217 213 204 217 196 208 200 203 197 191 191 190 199 211 210 209 207 205 203 207 202 213 198 203 220 222 217 198 216
222 234 216 213 236 226 215 232 220 210 218 227 202 215 219 211 196 214 218 206 206 173 201 211 201 198 194 193 203 214 209 184 212 213 202 207 212 201 210 204 211 220 226
242 232 217 226 223 234 214 222 220 231 236 224 234 213 219 218 201 204 204 219 204 207 167 162 171 200 215 217 183 191 222 207 197 189 201 200 215 213 221 221 204 204 208
257 237 240 238 233 219 231 230 232 223 233 227 228 223 223 215 214 217 230 225 206 201 217 227 224 196 189 188 204 216 214 212 208 215 219 206 212 193 202 213 216 225 219
278 291 242 235 238 241 226 242 223 244 235 228 228 203 221 238 214 206 222 212 211 208 214 212 219 220 208 222 214 210 186 190 202 217 221 226 228 227 224 219 216 210 233
290 311 291 269 246 237 244 233 242 226 218 230 239 223 226 223 236 226 231 235 245 235 224 226 216 201 206 213 214 216 225 225 229 210 189 192 216 211 232 236 229 222 216
305 288 297 310 299 274 254 231 240 241 242 226 227 246 234 226 217 235 230 210 237 228 209 226 227 227 226 224 228 234 221 226 230 233 235 228 220 227 237 228 239 248 241
372 343 320 301 310 315 303 321 255 241 239 242 246 239 235 241 242 233 244 237 231 244 232 236 227 231 232 228 228 246 247 225 221 228 225 225 227 234 240 230 232 247 250
330 336 339 347 355 336 302 273 293 317 296 253 253 251 247 236 244 222 220 221 222 239 232 229 232 227 230 232 231 241 239 235 242 247 247 254 255 250 251 234 248 261 283
309 308 315 319 324 331 339 347 353 307 332 270 313 275 263 262 253 252 257 254 247 249 253 253 254 243 245 253 252 260 257 244 250 253 249 255 239 249 260 252 300 340 300
308 299 319 308 308 309 315 319 326 334 340 345 348 316 310 333 278 276 277 252 259 260 256 251 251 254 257 250 261 259 290 258 249 252 254 297 296 314 300 317 351 344 335

GFSGL_2pvu_pres_108.txt.gz
Presure
200 197 191 201 135 171 183 191 199 197 191 183 206 189 205 223 223 225 201 195 195 205 189 212 205 212 209 196 187 169 198 178 182 181 176 196 173 176 179 171 174 180 169
201 203 201 189 189 210 150 190 188 202 195 205 194 192 192 201 217 239 199 197 195 197 185 213 204 180 195 198 194 173 185 190 180 172 188 198 178 173 182 181 178 171 170
211 211 209 198 200 189 181 187 203 190 192 203 193 192 213 213 217 232 201 197 192 192 193 180 199 200 186 195 191 187 170 182 169 166 189 182 182 183 175 181 174 165 189
207 212 209 201 205 206 199 181 187 185 189 191 171 203 218 210 213 233 229 194 189 192 191 188 195 190 195 183 183 183 179 171 180 198 180 177 176 183 173 170 168 177 186
206 203 204 203 208 210 204 203 204 182 190 185 210 211 214 211 205 236 232 198 193 190 192 188 187 175 181 182 192 188 186 182 181 178 181 177 184 177 176 184 182 184 181
215 215 216 196 195 204 210 203 194 198 189 208 198 209 204 219 231 230 236 222 197 193 192 191 188 188 188 173 184 181 180 194 190 188 188 186 177 183 180 171 176 179 172
237 231 225 222 216 216 212 203 208 194 199 206 213 201 211 217 227 222 217 235 220 197 193 192 189 193 189 184 165 181 181 182 182 181 174 174 188 184 178 178 172 186 178
226 225 230 225 233 230 221 217 231 163 230 239 222 225 218 229 228 217 202 221 228 222 194 194 192 189 188 192 189 179 172 171 176 163 185 182 172 180 189 189 181 184 187
237 239 241 241 246 247 246 243 234 230 232 229 226 233 221 227 222 228 220 206 223 226 221 194 195 193 190 188 182 190 188 181 185 165 175 181 181 184 182 196 193 174 165
228 227 228 228 224 226 225 233 227 229 233 231 216 227 219 232 236 224 221 224 229 222 251 234 198 193 192 197 192 183 179 175 186 183 184 186 195 165 170 169 186 195 173
226 228 237 253 242 242 245 228 226 221 240 235 248 234 247 236 163 217 220 219 222 185 240 237 232 211 195 193 188 184 195 199 192 185 186 174 183 195 193 183 189 193 187
250 249 254 242 240 232 239 218 222 215 217 237 232 200 234 213 230 202 200 224 210 230 233 231 206 229 207 206 202 197 198 198 192 188 185 189 184 188 192 194 189 189 185
244 248 245 237 255 235 226 245 226 225 224 244 217 211 240 257 242 246 241 238 240 157 236 226 228 220 245 217 205 203 202 201 198 198 200 201 203 202 192 174 195 168 182
241 239 239 246 267 232 231 220 226 220 216 227 242 224 231 223 225 237 249 235 235 230 232 226 222 225 193 229 228 205 203 203 202 200 195 164 203 201 195 199 200 199 201
243 242 239 249 255 238 225 224 217 209 217 219 222 238 237 220 239 246 248 234 227 230 226 208 226 221 221 225 222 226 223 220 220 208 207 207 211 193 220 210 225 221 225
278 279 267 260 252 239 228 230 222 221 225 223 216 225 239 248 272 255 257 220 230 229 231 233 219 197 222 218 224 209 223 217 219 222 217 222 212 194 219 221 222 193 203
274 267 259 253 255 231 233 238 221 218 237 224 208 221 226 249 248 249 234 230 242 220 237 192 217 225 226 215 206 225 223 206 227 224 224 221 223 206 215 220 189 211 213
271 253 280 269 259 247 239 224 236 222 239 228 228 233 225 232 243 229 239 228 232 211 199 221 224 215 223 204 228 219 227 226 221 217 221 226 186 201 222 223 211 207 214
282 276 269 270 276 263 262 240 238 230 231 238 226 225 214 230 211 235 221 242 221 212 235 227 226 207 224 235 228 215 212 219 221 219 216 233 222 214 203 205 196 204 211
287 283 260 277 285 288 280 280 245 243 234 235 235 239 243 225 233 218 231 224 237 223 230 232 233 212 210 237 220 229 222 211 208 224 197 202 206 209 219 227 228 233 197
302 309 312 308 294 268 257 290 292 278 240 249 236 243 238 233 245 230 222 240 215 245 229 226 226 231 206 239 217 219 220 224 214 227 229 230 226 224 204 208 232 226 227
286 288 290 293 296 304 296 316 272 283 291 273 251 250 237 238 250 239 238 231 236 225 220 226 218 226 233 229 230 226 229 240 238 214 216 222 229 233 236 236 226 223 231
319 321 324 329 333 337 348 333 301 294 310 276 322 289 261 262 260 249 241 249 239 240 238 240 232 240 216 233 216 221 220 224 228 224 219 228 239 229 225 226 247 234 231
295 298 301 305 310 321 324 329 329 332 340 348 306 292 305 312 273 263 254 256 241 247 252 244 247 242 251 240 242 239 242 239 231 232 233 238 246 246 218 230 241 231 242
353 355 359 366 366 370 323 308 312 324 327 330 328 332 343 313 304 300 313 291 266 258 252 258 257 240 241 256 252 250 250 249 229 249 252 239 250 243 243 249 239 252 240
449 451 390 381 343 340 340 341 342 347 324 309 317 321 325 329 330 329 331 332 301 308 308 292 274 265 265 248 256 255 259 263 241 241 243 257 251 252 246 239 248 261 241

GFSGL_2pvu_pres_111.txt.gz
Presure
206 198 195 194 200 196 212 218 217 190 182 188 201 190 202 193 200 183 189 199 203 216 218 203 201 200 183 233 232 222 226 228 210 194 187 159 166 186 176 184 185 170 164
205 200 204 210 202 202 204 206 196 190 187 201 174 175 200 202 188 200 208 186 195 215 217 202 200 194 208 202 232 227 229 212 202 199 195 183 190 185 173 176 182 173 176
212 196 203 194 210 144 194 197 135 181 206 195 195 202 199 197 203 201 196 182 207 210 228 207 199 193 198 195 183 226 212 207 203 191 197 192 177 178 184 173 175 189 173
215 208 208 194 199 148 205 195 186 196 189 182 179 188 186 193 195 209 163 200 206 196 221 213 196 192 191 200 185 191 194 196 200 190 192 179 191 187 171 182 172 191 182
216 217 216 209 207 208 179 194 202 199 195 124 202 188 190 191 182 181 210 190 217 207 236 225 197 196 189 189 191 185 192 194 203 194 178 173 182 172 191 171 174 187 180
223 212 207 205 213 208 209 207 201 209 211 201 191 189 198 183 206 199 193 185 204 203 184 217 210 192 195 186 190 189 189 185 187 193 202 191 188 190 184 189 174 186 176
225 221 221 221 225 204 204 203 205 202 223 198 191 203 194 188 181 193 193 211 205 211 154 232 226 199 190 194 189 184 188 190 189 180 181 182 181 181 178 186 182 187 188
214 221 229 222 220 214 213 217 216 213 209 215 178 178 211 143 246 216 216 227 202 230 214 223 222 218 199 192 190 194 192 188 190 190 188 183 175 181 182 184 183 184 183
243 221 219 227 224 217 215 213 213 216 222 218 210 132 210 188 186 201 210 197 211 220 231 221 220 210 214 200 193 191 192 193 188 187 186 189 186 183 179 165 175 175 162
248 253 250 243 232 228 230 230 231 231 224 206 195 202 224 206 234 201 235 227 243 230 226 223 225 206 157 216 201 193 193 192 192 191 188 188 190 190 189 194 195 210 192
232 230 232 235 233 238 235 232 235 239 245 245 249 252 236 207 211 232 230 220 226 231 202 229 211 221 215 209 216 210 193 194 194 194 200 198 202 201 191 188 185 183 186
230 228 230 225 223 221 219 226 228 226 229 227 225 228 222 228 232 249 242 226 221 226 218 218 226 226 199 224 214 212 223 215 189 193 192 185 186 192 189 186 188 192 195
233 232 228 228 227 229 227 227 225 225 236 250 239 234 240 233 225 235 223 217 221 232 233 244 247 218 206 212 217 224 215 222 227 229 202 199 194 193 186 185 185 185 193
230 238 220 227 218 245 240 245 248 243 245 248 246 237 231 229 219 219 212 235 232 226 220 235 242 242 233 226 216 211 202 216 231 236 230 220 207 203 199 177 180 200 191
232 228 229 231 241 245 241 236 239 248 237 228 234 235 240 230 220 225 233 219 229 227 223 242 243 227 234 247 239 238 224 221 230 230 244 238 234 222 211 209 199 193 196
245 243 241 242 240 241 252 256 245 245 245 266 233 225 223 236 218 229 229 233 216 218 215 225 242 242 237 234 248 240 239 234 234 228 227 233 229 231 234 226 218 223 219
246 241 241 243 247 249 256 259 252 256 242 238 251 240 235 222 244 218 238 223 228 217 217 236 222 217 226 235 250 247 239 232 230 206 230 232 216 225 227 230 203 230 204
263 266 266 268 269 268 258 284 283 281 259 250 259 259 227 243 231 234 223 220 225 225 232 229 231 239 253 273 248 252 239 227 235 220 225 234 217 226 232 230 235 225 229
305 304 303 305 305 296 284 272 286 284 279 292 246 264 239 244 231 240 227 227 225 226 226 229 215 232 237 247 254 256 244 215 229 238 215 213 202 226 210 223 233 227 227
270 278 302 301 298 296 295 294 293 287 280 264 287 265 255 256 246 243 239 239 235 226 234 250 227 213 225 235 250 248 249 249 234 231 230 239 239 228 226 236 216 223 226
270 279 281 279 281 290 301 308 310 308 298 299 283 276 287 260 253 253 247 249 240 240 244 241 246 233 235 231 239 243 248 244 264 237 225 245 233 211 220 219 217 205 223
326 328 333 338 343 344 319 306 293 290 296 308 316 319 296 292 288 273 256 250 252 251 236 235 230 249 253 242 234 231 233 212 237 236 238 235 240 222 227 241 237 238 237
304 305 306 307 309 311 313 319 323 328 336 344 342 300 307 316 297 284 291 288 275 258 248 252 253 252 251 249 250 257 238 238 251 232 245 250 241 241 236 225 216 214 220
326 329 327 323 318 315 317 320 326 331 333 335 322 325 334 340 325 321 309 275 309 305 321 313 267 264 254 250 253 249 253 252 251 238 249 244 241 239 229 235 231 231 241
344 336 333 332 333 340 356 356 344 345 351 356 361 366 332 332 323 325 336 339 343 338 304 310 283 304 319 296 286 280 267 264 264 256 252 255 255 246 247 248 248 244 238
460 475 466 458 459 482 468 466 457 453 454 450 388 348 348 350 359 364 366 327 322 327 333 333 332 335 314 305 306 310 307 321 296 285 285 285 283 268 267 260 269 267 262

GFSGL_2pvu_pres_114.txt.gz
Presure
221 235 213 213 201 180 188 188 186 204 198 192 195 193 190 185 197 187 188 188 202 203 196 198 197 201 231 215 201 203 200 200 237 238 220 206 220 211 202 189 193 191 169
228 266 224 213 202 202 199 194 198 193 195 191 180 164 173 180 188 188 189 194 187 186 212 209 201 196 204 223 208 198 194 193 222 237 222 218 219 215 206 191 188 166 171
228 255 234 215 203 202 198 197 199 206 200 210 206 195 129 196 208 200 203 193 181 199 204 207 212 179 210 216 215 204 204 208 208 192 228 217 191 218 218 202 189 185 194
244 251 234 215 199 202 201 196 194 204 204 201 203 212 206 193 182 177 182 202 188 211 168 204 219 192 205 207 215 207 203 194 197 191 220 222 210 218 205 195 188 185 179
225 238 223 226 206 199 203 200 167 195 208 200 198 203 199 191 189 188 218 202 189 193 193 181 182 202 190 215 233 213 202 201 199 198 192 224 217 215 206 199 194 197 184
219 239 229 220 205 206 204 201 197 198 115 204 192 206 209 209 196 203 178 188 201 169 187 184 203 174 181 194 202 215 210 197 192 199 194 210 199 217 188 200 178 170 170
262 248 219 172 215 204 204 204 204 202 196 200 202 203 204 202 193 174 191 175 188 199 184 169 197 197 198 183 194 190 209 207 199 193 195 190 190 191 189 187 190 192 170
253 245 233 228 223 215 214 214 208 204 204 207 206 203 205 204 196 193 196 191 198 205 192 184 194 190 192 192 220 203 220 205 202 196 191 191 194 190 188 192 185 179 178
247 257 247 267 239 225 222 219 216 214 215 198 205 212 195 196 172 190 208 197 203 172 182 189 210 224 219 211 194 210 206 229 207 200 195 198 190 189 195 196 192 193 192
235 242 245 246 247 229 233 234 230 233 217 212 213 215 219 213 210 202 156 173 212 207 214 233 201 200 189 202 161 242 224 204 215 206 196 193 195 196 186 189 192 195 191
242 242 238 242 245 238 235 222 213 219 218 220 220 217 213 215 214 212 201 144 198 191 217 194 200 208 233 210 231 232 229 225 221 216 212 201 191 190 197 203 203 197 192
233 240 237 235 237 246 248 251 256 254 252 228 234 234 234 226 223 233 224 236 181 218 210 214 209 194 206 219 223 236 217 217 222 218 211 185 178 190 195 192 188 185 195
229 223 229 233 236 227 226 228 236 238 238 241 241 247 242 247 244 251 203 203 203 203 207 206 230 225 219 218 231 220 230 234 221 226 218 205 210 206 228 209 197 195 193
238 239 246 228 239 238 226 228 237 223 224 226 226 225 223 228 233 228 228 234 235 237 239 232 228 224 228 240 240 235 228 240 231 224 214 216 226 206 212 212 212 214 217
229 225 228 231 235 237 228 227 231 231 228 233 229 227 229 230 232 230 234 220 224 222 222 218 220 206 231 221 231 235 235 219 219 234 232 222 230 207 213 222 211 209 217
231 228 230 235 240 237 232 234 229 225 235 236 223 232 225 231 251 254 254 255 255 245 239 230 232 219 233 230 217 225 219 250 245 237 234 239 239 241 223 227 214 222 190
254 253 257 253 249 255 253 250 252 252 252 226 249 239 245 245 249 258 251 252 240 252 235 242 231 228 224 230 216 216 216 228 240 227 252 245 243 237 222 237 246 236 238
247 249 249 248 245 249 247 245 246 250 254 256 251 251 253 246 254 254 261 253 256 243 244 240 239 237 222 228 224 216 226 237 233 237 216 226 238 238 240 227 226 248 245
296 299 301 300 311 302 300 309 306 309 307 301 290 285 285 269 267 268 262 253 253 252 252 242 243 234 240 234 236 230 225 220 229 229 235 222 232 243 240 237 269 254 249
295 294 293 290 289 292 289 284 283 289 291 291 310 310 312 312 298 296 286 273 250 259 252 242 246 244 236 232 237 228 232 231 229 225 228 238 222 228 226 239 239 243 258
320 325 328 330 332 298 290 279 277 276 275 273 270 273 316 310 303 307 295 286 291 272 255 255 273 261 242 244 244 243 241 245 247 241 239 230 228 228 238 230 229 233 237
304 305 307 308 312 316 318 322 325 330 335 341 347 310 300 290 288 313 315 308 299 292 286 294 263 256 269 270 262 247 245 254 250 246 242 242 242 239 243 247 245 237 222
290 291 291 290 293 334 338 335 332 331 331 333 317 323 327 335 341 323 290 289 310 326 317 294 291 293 267 260 275 266 258 252 251 253 253 251 252 251 253 266 257 260 258
322 326 330 332 335 339 342 344 345 350 354 359 358 337 338 343 340 337 332 338 342 310 296 309 320 321 293 298 293 273 271 269 268 264 264 262 258 251 250 249 249 250 251
333 348 369 430 437 438 440 439 445 444 449 489 361 351 355 355 351 352 350 331 333 335 336 341 335 333 311 312 320 289 294 299 296 284 281 280 275 270 267 268 269 272 276
407 434 438 479 473 469 462 455 450 445 443 460 466 471 469 465 461 458 457 451 442 355 356 362 369 371 352 338 335 315 338 323 320 317 312 291 294 294 292 282 281 302 308

GFSGL_2pvu_pres_117.txt.gz
Presure
239 239 214 207 223 220 204 206 196 205 203 195 194 177 193 187 188 189 184 181 191 171 206 195 185 199 190 181 203 201 192 238 218 203 202 200 209 215 216 207 205 210 215
261 251 249 258 218 222 214 185 218 210 193 211 193 190 184 180 197 197 184 176 187 190 187 202 189 198 172 211 198 202 193 181 227 220 203 194 203 227 227 225 223 206 215
268 257 262 228 222 214 235 220 200 213 195 180 208 194 201 194 195 193 194 196 146 200 191 182 192 204 211 187 199 194 206 193 186 223 216 205 203 195 225 228 197 215 207
274 269 269 250 246 214 230 226 224 214 203 210 194 183 182 98 192 184 193 191 181 186 188 188 214 203 184 194 198 181 204 199 192 200 213 212 204 207 200 200 228 215 216
278 266 272 285 245 228 218 232 230 222 224 194 203 187 170 191 193 193 190 188 197 198 194 208 202 189 199 203 200 200 172 181 191 196 217 205 211 203 205 199 196 229 202
265 270 285 184 181 226 202 212 241 223 201 222 200 203 201 200 204 202 195 207 195 192 192 195 191 171 186 182 132 174 198 190 200 172 187 200 206 213 206 208 198 202 204
254 243 259 226 223 218 213 231 194 223 210 173 207 200 201 200 200 200 201 208 206 196 131 200 199 204 197 204 198 194 193 195 194 180 185 182 193 199 203 206 202 200 203
250 253 239 223 242 211 220 192 241 236 225 208 211 198 199 206 198 197 200 201 193 200 204 168 205 178 156 199 199 192 203 212 197 191 190 186 201 205 200 194 202 209 196
240 246 249 226 217 217 218 212 230 234 233 190 199 211 204 206 206 204 204 201 206 202 146 195 188 201 204 191 201 212 207 208 193 181 227 210 190 202 195 203 198 200 201
238 234 236 236 246 257 245 248 217 243 222 218 220 217 213 203 204 203 204 202 203 204 138 202 209 155 194 174 184 202 202 212 208 230 209 208 210 192 197 203 214 203 198
239 237 239 243 234 237 248 242 237 237 220 231 227 223 218 213 214 211 210 207 209 203 159 206 186 200 191 212 204 206 210 196 203 231 196 203 190 199 210 193 194 210 207
231 230 229 231 234 236 237 238 237 247 239 245 257 247 226 221 220 217 211 216 214 210 207 207 204 186 205 210 215 211 206 205 220 228 223 220 225 202 225 222 228 210 208
235 231 226 226 247 250 235 252 244 238 233 219 221 251 250 247 244 237 235 232 223 220 220 217 232 214 203 206 207 203 224 227 226 222 212 205 217 200 236 225 229 224 210
231 231 228 238 245 242 236 235 243 242 244 244 246 248 249 251 252 252 237 232 221 216 233 233 240 241 226 230 220 220 212 216 209 211 207 202 207 230 218 221 228 235 220
241 243 241 243 236 235 229 229 228 226 224 230 235 232 229 234 241 238 239 240 241 241 235 222 224 221 223 212 213 214 216 216 214 214 196 210 226 230 236 205 239 239 224
244 247 234 236 231 234 238 239 239 234 236 238 230 230 231 232 233 226 223 226 234 233 232 230 230 232 233 225 226 222 216 213 215 223 230 226 210 226 224 226 237 237 231
223 229 233 233 236 238 246 243 240 230 226 228 226 233 236 237 228 231 230 238 223 227 227 227 228 225 226 223 224 224 228 224 228 228 218 217 220 231 221 226 229 234 226
252 249 249 248 252 259 261 245 243 243 240 240 239 240 238 238 242 243 243 241 238 239 239 236 245 243 241 236 234 265 239 230 228 223 226 229 229 215 223 226 228 220 232
245 264 252 278 273 265 263 261 260 264 264 264 265 266 270 272 268 271 268 258 246 246 247 247 244 236 245 247 257 260 249 259 252 257 246 242 229 231 231 236 240 239 234
331 332 333 337 338 318 334 337 350 344 322 303 297 315 323 325 303 297 293 284 270 262 259 260 264 258 268 261 254 258 262 262 254 258 241 249 234 229 232 237 234 238 234
306 307 309 311 313 316 318 319 322 327 330 337 345 355 358 330 320 305 305 312 306 315 312 329 325 324 311 304 270 265 268 262 265 267 265 242 247 240 248 240 234 224 227
288 289 291 292 293 295 300 314 306 308 310 314 318 321 327 332 336 340 321 307 298 290 288 289 290 291 294 322 316 307 296 292 275 263 262 265 260 253 248 249 250 248 245
307 311 311 311 317 321 326 330 331 333 336 338 340 332 324 325 342 336 337 335 335 335 340 328 303 295 283 282 287 321 319 306 296 289 268 262 259 262 262 263 263 256 251
315 317 318 318 318 327 333 337 347 357 366 370 366 364 366 376 351 340 349 346 352 354 342 345 338 334 342 343 310 285 305 323 316 307 292 294 290 270 264 265 265 268 269
311 320 329 355 399 503 498 493 488 484 483 484 483 480 423 423 424 471 470 454 470 418 369 359 362 347 342 342 328 337 343 305 288 306 321 315 307 294 295 299 290 277 275
419 509 503 492 481 471 463 456 451 451 450 450 449 451 450 448 447 447 449 451 455 458 471 471 438 351 358 362 355 344 339 337 336 337 340 312 301 305 315 317 321 303 298

GFSGL_2pvu_pres_120.txt.gz
Presure
233 220 229 230 223 222 224 206 200 211 188 188 198 180 174 193 191 174 184 190 184 189 176 183 182 183 177 178 172 197 178 188 191 207 200 206 200 222 206 196 194 198 211
233 224 215 210 216 213 221 200 208 210 204 241 233 173 192 189 189 189 188 182 182 182 183 171 180 193 193 181 185 185 168 185 188 169 198 190 201 179 221 208 199 192 196
250 237 227 220 215 217 202 215 199 206 181 213 207 211 218 195 189 194 185 179 185 188 185 187 182 186 201 175 195 196 180 187 191 192 198 191 209 199 177 220 205 197 201
271 260 238 237 230 224 225 228 203 224 206 214 208 215 224 185 190 194 186 190 174 184 106 131 179 183 189 194 184 181 191 178 189 173 158 174 176 183 186 196 221 209 205
267 263 256 248 238 229 230 233 239 196 205 226 174 213 206 204 211 189 192 195 192 183 184 187 193 191 180 184 185 183 185 207 211 194 205 212 196 175 181 202 188 201 213
268 269 260 257 178 261 254 250 239 235 195 252 199 206 224 219 204 208 192 193 188 191 193 187 175 181 177 194 198 194 205 193 206 202 181 181 181 182 199 193 200 184 188
241 237 248 257 255 263 260 265 274 264 266 219 219 220 238 195 209 207 184 205 193 189 190 185 187 184 152 189 177 188 190 196 208 206 205 188 211 197 183 182 187 180 191
244 227 240 245 255 260 272 274 271 280 281 233 247 231 235 246 223 222 211 187 195 197 192 188 190 193 192 181 128 151 191 171 187 196 204 195 200 194 201 205 186 191 201
231 239 251 111 239 245 249 263 261 254 253 250 232 226 191 234 156 233 227 223 206 195 195 183 195 195 197 151 196 198 190 183 200 201 190 190 148 211 183 199 213 194 172
227 226 233 236 243 244 234 240 249 252 246 249 217 241 222 219 247 241 228 221 205 214 187 185 202 196 141 195 202 198 209 184 180 167 163 204 188 189 181 168 209 215 189
220 219 226 230 228 232 235 236 240 231 243 243 237 223 206 222 212 250 244 221 224 214 205 213 204 198 202 196 194 201 200 204 201 159 204 177 205 200 205 187 204 204 217
230 226 227 226 228 230 228 229 230 216 244 237 228 234 217 226 214 222 218 231 225 215 217 216 213 213 210 206 191 201 198 200 186 166 193 208 212 208 209 221 206 209 194
231 219 216 229 234 227 228 234 235 236 239 235 234 244 244 231 240 246 241 244 244 229 224 217 206 206 206 202 197 205 201 164 208 207 205 208 208 215 207 192 221 211 228
232 228 230 231 240 226 245 233 232 228 228 235 234 235 234 229 229 234 231 230 229 234 230 233 231 227 221 218 219 216 211 206 210 210 157 213 216 213 206 206 211 215 220
231 226 227 238 239 245 242 234 228 234 233 230 231 241 246 227 231 233 232 230 229 222 223 225 232 238 239 238 236 227 224 222 225 214 208 205 209 212 223 215 221 211 209
240 242 251 249 254 258 252 240 239 247 233 231 227 234 240 241 238 235 241 243 243 241 244 246 246 247 236 230 224 227 236 221 218 228 227 218 221 209 216 213 213 216 214
233 229 233 245 254 241 245 251 257 255 251 258 252 252 252 247 240 239 245 243 238 235 234 235 237 238 245 247 242 237 233 228 228 227 224 224 223 211 214 215 214 220 215
250 251 261 263 256 251 265 248 245 248 251 260 261 253 241 242 241 240 243 244 239 234 235 238 234 234 228 223 233 235 234 237 237 234 222 220 222 223 226 223 216 216 213
310 315 316 348 351 324 313 310 291 275 266 268 271 261 255 257 259 256 263 256 253 248 252 247 250 243 242 240 239 237 233 229 229 236 229 231 230 227 227 231 229 225 229
307 308 310 311 312 314 317 322 327 329 332 336 342 339 335 264 267 269 267 269 270 265 257 247 249 251 250 248 249 249 246 245 240 242 241 239 239 239 235 234 235 233 228
285 289 290 292 294 295 302 305 306 308 309 313 318 321 324 330 334 341 347 353 296 283 277 277 276 272 268 264 262 260 255 259 258 255 253 251 250 246 246 247 252 247 242
294 302 307 309 313 315 315 316 316 319 322 326 330 327 324 322 324 331 337 337 334 338 342 346 350 356 316 289 282 281 282 279 277 274 281 270 268 267 267 263 262 266 265
301 304 308 315 319 323 326 330 333 335 338 339 339 338 337 338 337 337 328 328 337 342 345 341 334 337 340 341 343 350 338 321 310 320 325 310 297 294 301 306 304 297 288
306 307 309 319 322 327 333 340 355 364 462 491 492 514 512 509 506 504 506 487 418 375 341 350 349 345 338 329 332 337 341 341 341 317 312 315 297 296 298 297 297 308 327
322 319 323 332 363 499 492 488 483 481 477 473 465 460 456 458 462 466 469 474 475 477 481 416 485 427 374 370 357 349 343 347 331 348 339 341 341 336 301 284 282 280 278
333 441 493 481 473 467 461 454 447 442 437 438 441 452 466 460 440 422 424 438 444 448 451 453 456 458 465 466 432 460 460 433 351 350 352 354 356 348 345 340 334 335 340

GFSGL_2pvu_pres_123.txt.gz
Presure
248 226 261 190 182 180 199 165 179 157 168 162 180 193 182 200 175 191 178 206 188 181 178 178 170 170 175 174 178 174 191 183 185 178 174 182 197 191 178 203 206 184 224
260 213 222 188 179 187 177 159 189 176 200 200 205 195 219 259 193 191 188 179 173 188 194 172 193 189 194 179 197 194 184 192 187 187 194 188 193 183 185 213 204 215 185
242 234 222 204 180 192 187 178 174 196 203 183 179 202 209 197 210 212 174 179 191 183 182 187 183 176 187 185 189 191 193 198 184 143 206 183 181 184 191 200 188 196 200
240 279 243 204 192 182 201 186 191 201 205 219 189 182 181 182 208 214 184 191 183 189 180 181 182 185 183 179 185 183 186 190 184 177 189 189 180 196 188 209 203 163 178
229 244 270 229 189 202 190 204 186 187 205 193 182 183 172 204 188 197 211 194 191 182 169 179 174 193 102 182 181 183 180 174 178 162 182 185 184 201 214 206 134 202 212
245 254 250 265 223 228 225 223 224 218 223 234 232 232 225 225 196 162 162 197 203 197 191 203 181 193 182 194 190 178 178 183 182 187 185 191 173 197 175 189 214 171 198
251 266 264 263 276 273 232 225 219 223 225 214 213 214 211 203 185 196 194 228 201 222 211 208 198 187 192 192 193 193 192 186 188 180 178 182 181 185 184 167 193 198 155
251 244 239 244 249 221 223 272 254 225 222 194 229 226 228 234 239 238 217 189 208 211 217 205 187 204 192 190 195 192 190 188 186 177 180 178 158 138 155 197 202 162 203
242 250 253 250 253 254 257 261 268 270 254 241 240 245 252 250 251 259 218 253 265 207 192 227 217 194 204 206 188 184 192 187 127 185 180 121 184 181 191 188 161 193 200
240 235 227 227 235 241 240 244 256 264 260 262 269 280 290 288 286 286 283 266 251 212 213 209 206 215 211 193 195 200 200 185 175 180 180 185 187 184 148 180 195 194 189
219 220 217 223 229 238 234 226 232 233 242 245 245 250 261 262 267 279 269 277 241 218 220 234 227 206 203 191 209 197 192 185 190 191 189 192 197 195 201 172 154 204 193
231 222 223 225 228 228 233 231 229 235 236 237 239 245 236 247 246 248 254 229 248 239 249 236 228 245 233 220 224 214 204 211 208 209 203 200 186 163 191 173 189 193 175
229 223 234 234 230 231 226 223 222 223 227 229 228 232 237 237 237 235 246 247 247 221 227 208 211 214 210 241 235 226 218 218 201 190 190 193 198 205 208 206 178 162 200
215 229 222 213 214 238 230 227 228 228 228 228 229 229 225 226 232 239 236 238 238 236 230 226 220 220 221 225 249 246 229 200 209 213 213 211 204 206 203 200 201 194 202
229 231 234 235 233 234 231 231 239 226 224 226 233 234 234 231 230 233 238 237 237 237 245 252 242 231 225 220 221 234 244 237 226 221 207 205 204 202 196 197 211 211 210
230 222 227 228 229 231 238 235 242 231 241 233 238 233 234 243 240 243 239 236 237 241 238 231 229 237 245 248 241 246 245 245 246 242 233 219 210 215 219 216 215 211 205
253 255 253 261 246 243 244 241 242 241 246 265 252 250 257 260 250 271 242 250 238 241 240 245 240 239 239 239 238 241 244 243 239 245 246 246 235 231 234 228 225 227 226
251 247 253 254 256 266 269 262 275 268 255 250 242 248 254 267 265 266 267 257 259 251 253 247 246 241 254 255 241 235 238 241 240 233 234 233 239 228 227 225 219 219 218
301 330 326 326 326 326 327 328 330 305 307 309 309 312 304 286 289 271 257 262 265 268 267 240 244 257 261 253 252 248 244 249 252 250 247 247 249 242 240 239 236 232 236
294 295 298 300 226 305 308 311 314 316 318 320 320 321 325 330 333 337 344 335 289 275 262 260 266 273 267 266 262 256 252 248 249 247 242 242 239 238 241 242 241 243 227
278 278 278 278 281 289 294 333 328 322 317 318 320 322 327 324 320 319 322 331 334 339 343 346 275 267 271 274 268 259 254 254 251 250 250 249 246 241 242 244 240 240 239
268 268 270 293 304 313 342 349 352 351 349 334 325 323 322 327 332 336 339 337 331 329 328 332 337 342 347 337 286 268 274 274 270 264 262 266 262 260 255 253 254 254 248
265 276 290 306 332 340 348 354 359 359 359 357 356 350 349 348 348 347 348 348 350 349 349 347 344 344 343 340 340 342 348 322 282 284 276 278 265 272 267 265 261 259 260
280 295 321 337 349 370 468 496 489 486 468 462 463 463 463 483 486 489 489 488 488 493 492 497 479 369 358 353 345 344 341 338 341 350 352 341 300 282 285 279 273 284 281
309 323 339 390 493 483 477 470 462 457 452 449 448 451 453 451 451 448 449 458 475 478 463 454 462 468 474 481 484 488 485 358 348 339 342 344 346 350 347 342 344 345 340
322 350 491 477 458 444 434 425 420 419 415 412 410 407 407 416 423 424 426 425 425 429 455 468 449 432 434 447 455 461 467 468 464 470 376 360 337 344 349 348 345 339 335

GFSGL_2pvu_pres_126.txt.gz
Presure
584 94 319 289 224 195 208 174 164 139 159 173 161 153 161 162 146 173 156 182 188 190 178 174 181 201 172 165 161 180 178 191 196 193 193 194 183 188 183 178 198 200 193
335 476 324 268 206 197 194 183 182 183 181 152 154 154 148 143 170 170 177 180 187 169 160 170 179 178 182 176 185 187 180 183 177 178 186 191 204 206 185 171 185 201 188
512 338 299 203 181 179 197 168 184 172 157 160 178 163 157 166 168 171 169 175 175 170 173 182 175 170 185 166 172 181 186 169 187 181 185 190 199 196 183 183 180 188 199
280 296 252 184 218 209 208 181 181 169 161 196 153 163 182 163 173 182 191 199 218 190 189 171 195 210 176 176 195 181 194 185 196 183 185 191 197 202 196 191 173 193 179
282 259 242 223 198 182 182 183 183 181 168 194 194 174 186 171 170 183 189 169 183 174 175 222 208 211 198 189 176 185 177 183 168 195 181 189 181 187 188 180 184 176 186
268 262 222 231 190 220 193 192 199 181 195 198 204 184 188 197 176 164 182 177 187 194 177 180 172 161 173 212 191 185 185 192 175 193 175 194 197 194 186 181 177 183 194
254 250 250 239 217 220 194 217 185 201 202 179 179 178 187 192 206 207 183 192 206 207 203 220 165 176 168 190 204 168 191 183 180 197 182 177 196 192 195 196 197 190 188
255 243 237 186 228 206 195 184 211 206 190 203 194 191 217 203 205 216 212 199 189 178 185 185 173 175 152 208 200 196 194 194 195 199 198 204 187 192 185 189 168 190 166
255 245 253 241 223 218 203 201 178 211 193 189 206 205 188 212 187 205 181 184 201 189 204 214 216 231 225 214 196 204 203 207 192 208 199 200 194 197 179 186 190 189 189
255 231 237 261 259 274 271 198 192 186 202 221 221 204 215 219 216 195 193 205 213 207 221 228 224 214 199 209 200 205 186 194 180 188 202 214 191 192 202 138 174 180 188
251 261 233 228 233 241 239 245 233 217 189 248 192 190 202 193 205 223 183 220 227 236 232 246 228 236 244 253 255 202 203 218 220 198 218 215 212 201 189 193 201 195 195
244 239 250 252 250 248 261 261 259 260 248 252 273 281 290 269 268 270 262 260 242 243 241 244 281 308 306 297 299 301 300 222 236 220 192 220 224 212 202 191 199 191 179
218 233 234 235 239 216 240 239 239 243 246 245 248 249 249 255 257 260 270 269 267 267 272 274 274 273 271 266 275 286 279 272 286 216 228 224 208 218 223 206 203 199 202
231 217 215 218 225 226 229 230 229 238 240 243 244 247 244 249 249 249 251 250 249 246 248 253 250 257 258 255 257 255 266 269 263 226 225 207 228 223 215 214 207 207 206
216 218 216 225 232 232 214 217 228 233 225 231 233 242 240 244 237 239 235 235 236 240 241 242 244 242 246 246 247 252 250 248 257 254 233 236 235 227 240 234 227 221 223
225 226 224 226 227 229 232 229 235 230 226 231 237 224 221 247 241 237 242 237 242 243 247 238 236 236 238 239 246 249 241 242 242 241 235 226 217 236 230 221 230 232 224
238 238 243 233 247 242 242 242 236 237 241 242 252 242 243 249 245 250 254 257 232 240 238 236 238 243 248 248 246 247 250 251 250 249 243 258 227 226 229 244 240 236 243
253 258 266 251 246 239 244 247 244 246 249 250 253 250 253 254 255 255 258 255 265 258 263 260 257 250 259 249 254 262 252 249 249 251 250 247 248 257 241 239 236 229 232
277 302 331 324 320 315 312 308 284 283 287 316 292 295 298 302 294 314 289 293 281 275 271 267 283 279 278 278 271 270 277 272 282 256 247 252 245 241 241 246 250 247 242
322 304 297 291 288 285 285 283 283 287 289 293 297 298 301 308 316 321 329 332 339 343 345 332 333 276 272 267 266 269 264 273 277 278 282 253 252 254 253 247 246 246 243
278 267 268 270 271 273 274 283 284 284 286 293 312 316 363 363 367 368 374 375 377 375 355 337 337 337 338 341 345 347 349 283 283 263 280 279 275 268 268 262 253 247 245
259 256 261 268 270 274 280 280 286 301 327 351 354 408 520 515 513 429 429 382 372 377 382 379 358 343 338 337 337 335 330 334 342 351 301 277 269 269 279 274 264 264 271
256 266 263 260 268 271 275 299 333 347 416 486 475 470 470 476 478 477 479 483 487 463 444 372 374 382 360 339 333 332 334 336 331 332 341 341 347 299 283 278 278 271 273
242 250 261 265 276 278 320 333 373 473 461 447 438 432 431 429 430 436 440 445 454 462 465 465 469 457 369 365 362 360 356 355 346 346 345 340 338 343 345 343 299 278 275
261 259 273 282 309 323 351 471 454 437 424 412 403 404 399 401 402 404 408 411 412 416 430 438 441 445 447 459 479 471 463 464 472 486 373 352 350 351 349 344 343 340 345
273 278 296 319 326 404 456 440 426 416 416 416 418 419 423 432 439 408 391 391 389 392 394 398 414 420 425 423 428 451 465 453 443 446 457 468 476 481 488 385 353 350 349